| time (UTC) | temp C | wind direction | speed KPH | gust KPH | rain 1hr cm | rain 24hr cm | rain mn cm | humidity % | barometer mb |
| 20260902123427 | 20 | 89 | 1.6 | 9.7 | 0.00 | 0.69 | 0.03 | 97 | 1016.5 |
| 20260902123342 | 20 | 105 | 1.6 | 9.7 | 0.00 | 0.69 | 0.03 | 97 | 1016.5 |
| 20260902123327 | 20 | 115 | 1.6 | 9.7 | 0.00 | 0.69 | 0.03 | 97 | 1016.5 |
| 20260902123226 | 20 | 98 | 1.6 | 9.7 | 0.00 | 0.69 | 0.03 | 97 | 1016.5 |
| 20260902123126 | 20 | 100 | 1.6 | 9.7 | 0.00 | 0.69 | 0.03 | 97 | 1016.4 |
| 20260902123026 | 20 | 61 | 0.0 | 6.4 | 0.00 | 0.69 | 0.03 | 97 | 1016.4 |
| 20260902123021 | 20 | 72 | 4.8 | 4.8 | 0.00 | 0.69 | 0.03 | 97 | 1016.6 |
| 20260902122925 | 20 | 108 | 0.0 | 3.2 | 0.00 | 0.69 | 0.03 | 97 | 1016.5 |
| 20260902122841 | 20 | 108 | 0.0 | 3.2 | 0.00 | 0.69 | 0.03 | 97 | 1016.5 |
| 20260902122823 | 20 | 108 | 0.0 | 4.8 | 0.00 | 0.69 | 0.03 | 97 | 1016.5 |
| 20260902122723 | 20 | 108 | 1.6 | 6.4 | 0.00 | 0.69 | 0.03 | 97 | 1016.4 |
| 20260902122622 | 20 | 107 | 1.6 | 6.4 | 0.00 | 0.69 | 0.03 | 97 | 1016.5 |
| 20260902122522 | 20 | 79 | 1.6 | 6.4 | 0.00 | 0.69 | 0.03 | 97 | 1016.5 |
| 20260902122440 | 20 | 79 | 1.6 | 6.4 | 0.00 | 0.69 | 0.03 | 97 | 1016.6 |
| 20260902122435 | 20 | 79 | 1.6 | 6.4 | 0.00 | 0.69 | 0.03 | 97 | 1016.6 |
| 20260902122427 | 20 | 79 | 1.6 | 6.4 | 0.00 | 0.69 | 0.03 | 97 | 1016.6 |
| 20260902122220 | 20 | 78 | 1.6 | 6.4 | 0.00 | 0.69 | 0.03 | 97 | 1016.5 |
| 20260902122119 | 20 | 80 | 1.6 | 6.4 | 0.00 | 0.69 | 0.03 | 97 | 1016.6 |
| 20260902122021 | 20 | 86 | 1.6 | 6.4 | 0.00 | 0.69 | 0.03 | 97 | 1016.7 |
| 20260902122019 | 20 | 86 | 1.6 | 6.4 | 0.00 | 0.69 | 0.03 | 97 | 1016.6 |
| 20260902121919 | 20 | 71 | 0.0 | 6.4 | 0.00 | 0.69 | 0.03 | 97 | 1016.6 |
| 20260902121838 | 20 | 66 | 1.6 | 6.4 | 0.00 | 0.69 | 0.03 | 97 | 1016.7 |
| 20260902121818 | 20 | 49 | 1.6 | 6.4 | 0.00 | 0.69 | 0.03 | 97 | 1016.7 |
| 20260902121718 | 20 | 63 | 1.6 | 6.4 | 0.00 | 0.69 | 0.03 | 97 | 1016.6 |
| 20260902121616 | 20 | 119 | 0.0 | 6.4 | 0.00 | 0.69 | 0.03 | 97 | 1016.6 |
| 20260902121520 | 20 | 107 | 0.0 | 4.8 | 0.00 | 0.69 | 0.03 | 97 | 1016.7 |
| 20260902121517 | 20 | 107 | 0.0 | 4.8 | 0.00 | 0.69 | 0.03 | 97 | 1016.6 |
| 20260902121417 | 20 | 107 | 0.0 | 4.8 | 0.00 | 0.69 | 0.03 | 97 | 1016.6 |
| 20260902121339 | 20 | 94 | 0.0 | 4.8 | 0.00 | 0.69 | 0.03 | 97 | 1016.5 |
| 20260902121329 | 20 | 55 | 0.0 | 4.8 | 0.00 | 0.69 | 0.03 | 97 | 1016.5 |
| 20260902121324 | 20 | 89 | 0.0 | 4.8 | 0.00 | 0.69 | 0.03 | 97 | 1016.5 |
| 20260902121114 | 20 | 55 | 0.0 | 4.8 | 0.00 | 0.69 | 0.03 | 97 | 1016.5 |
| 20260902121020 | 20 | 55 | 0.0 | 4.8 | 0.00 | 0.69 | 0.03 | 97 | 1016.5 |
| 20260902121015 | 20 | 55 | 1.6 | 4.8 | 0.00 | 0.69 | 0.03 | 97 | 1016.5 |
| 20260902120913 | 20 | 55 | 1.6 | 6.4 | 0.00 | 0.69 | 0.03 | 97 | 1016.4 |
| 20260902120837 | 20 | 61 | 1.6 | 6.4 | 0.00 | 0.69 | 0.03 | 97 | 1016.4 |
| 20260902120827 | 20 | 67 | 1.6 | 6.4 | 0.00 | 0.69 | 0.03 | 97 | 1016.4 |
| 20260902120822 | 20 | 86 | 1.6 | 6.4 | 0.00 | 0.69 | 0.03 | 97 | 1016.4 |
| 20260902120610 | 20 | 81 | 1.6 | 6.4 | 0.00 | 0.69 | 0.03 | 97 | 1016.4 |
| 20260902120523 | 20 | 81 | 1.6 | 6.4 | 0.00 | 0.69 | 0.03 | 97 | 1016.3 |
| 20260902120521 | 20 | 81 | 0.0 | 6.4 | 0.00 | 0.69 | 0.03 | 97 | 1016.4 |
| 20260902120518 | 20 | 81 | 1.6 | 6.4 | 0.00 | 0.69 | 0.03 | 97 | 1016.4 |
| 20260902120308 | 20 | 81 | 1.6 | 6.4 | 0.00 | 0.69 | 0.03 | 97 | 1016.3 |
| 20260902120221 | 20 | 68 | 1.6 | 6.4 | 0.00 | 0.69 | 0.03 | 97 | 1016.3 |
| 20260902120216 | 20 | 62 | 1.6 | 6.4 | 0.00 | 0.69 | 0.03 | 97 | 1016.3 |
| 20260902120021 | 20 | 110 | 3.2 | 6.4 | 0.00 | 0.69 | 0.03 | 97 | 1016.4 |
| 20260902120006 | 20 | 87 | 1.6 | 6.4 | 0.00 | 0.69 | 0.03 | 97 | 1016.3 |
| 20260902115905 | 20 | 67 | 1.6 | 6.4 | 0.00 | 0.69 | 0.03 | 97 | 1016.2 |
| 20260902115836 | 20 | 69 | 1.6 | 6.4 | 0.00 | 0.69 | 0.03 | 97 | 1016.2 |
| 20260902115813 | 20 | 57 | 1.6 | 6.4 | 0.00 | 0.69 | 0.03 | 97 | 1016.2 |
| 20260902115804 | 20 | 93 | 1.6 | 12.9 | 0.00 | 0.69 | 0.03 | 97 | 1016.2 |
| 20260902115651 | 20 | 88 | 1.6 | 12.9 | 0.00 | 0.69 | 0.03 | 97 | 1016.2 |
| 20260902115540 | 20 | 61 | 1.6 | 12.9 | 0.00 | 0.69 | 0.03 | 97 | 1016.3 |
| 20260902115533 | 20 | 88 | 1.6 | 12.9 | 0.00 | 0.69 | 0.03 | 97 | 1016.3 |
| 20260902115524 | 20 | 88 | 1.6 | 12.9 | 0.00 | 0.69 | 0.03 | 97 | 1016.2 |
| 20260902115521 | 20 | 88 | 1.6 | 12.9 | 0.00 | 0.69 | 0.03 | 97 | 1016.4 |
| 20260902115058 | 20 | 89 | 1.6 | 12.9 | 0.00 | 0.69 | 0.03 | 97 | 1016.3 |
| 20260902115021 | 20 | 78 | 0.0 | 12.9 | 0.00 | 0.69 | 0.03 | 97 | 1016.5 |
| 20260902114958 | 20 | 78 | 1.6 | 12.9 | 0.00 | 0.69 | 0.03 | 97 | 1016.4 |
| 20260902114858 | 20 | 72 | 1.6 | 12.9 | 0.00 | 0.69 | 0.03 | 97 | 1016.3 |
| 20260902114837 | 20 | 55 | 1.6 | 12.9 | 0.00 | 0.69 | 0.03 | 97 | 1016.3 |
| 20260902114811 | 20 | 99 | 0.0 | 6.4 | 0.00 | 0.69 | 0.03 | 97 | 1016.3 |
| 20260902114806 | 20 | 92 | 1.6 | 12.9 | 0.00 | 0.69 | 0.03 | 97 | 1016.3 |
| 20260902114556 | 20 | 88 | 0.0 | 6.4 | 0.00 | 0.69 | 0.03 | 97 | 1016.3 |
| 20260902114520 | 20 | 92 | 0.0 | 6.4 | 0.00 | 0.69 | 0.03 | 97 | 1016.4 |
| 20260902114456 | 20 | 92 | 0.0 | 6.4 | 0.00 | 0.69 | 0.03 | 97 | 1016.3 |
| 20260902114353 | 20 | 93 | 0.0 | 6.4 | 0.00 | 0.69 | 0.03 | 97 | 1016.3 |
| 20260902114334 | 20 | 84 | 0.0 | 6.4 | 0.00 | 0.69 | 0.03 | 97 | 1016.3 |
| 20260902114308 | 20 | 85 | 1.6 | 6.4 | 0.00 | 0.69 | 0.03 | 97 | 1016.3 |
| 20260902114303 | 20 | 85 | 1.6 | 4.8 | 0.00 | 0.69 | 0.03 | 97 | 1016.3 |
| 20260902114116 | 20 | 85 | 1.6 | 6.4 | 0.00 | 0.69 | 0.03 | 97 | 1016.3 |
| 20260902114020 | 20 | 85 | 0.0 | 6.4 | 0.00 | 0.69 | 0.03 | 97 | 1016.4 |
| 20260902114003 | 20 | 85 | 1.6 | 6.4 | 0.00 | 0.69 | 0.03 | 97 | 1016.3 |
| 20260902113833 | 20 | 81 | 1.6 | 6.4 | 0.00 | 0.69 | 0.03 | 97 | 1016.3 |
| 20260902113807 | 20 | 68 | 1.6 | 6.4 | 0.00 | 0.69 | 0.03 | 97 | 1016.3 |
| 20260902113801 | 20 | 82 | 1.6 | 6.4 | 0.00 | 0.69 | 0.03 | 97 | 1016.3 |
| 20260902113552 | 20 | 68 | 1.6 | 6.4 | 0.00 | 0.69 | 0.03 | 97 | 1016.3 |
| 20260902113521 | 20 | 68 | 0.0 | 6.4 | 0.00 | 0.69 | 0.03 | 97 | 1016.4 |
| 20260902113452 | 20 | 68 | 1.6 | 6.4 | 0.00 | 0.69 | 0.03 | 97 | 1016.3 |
| 20260902113351 | 20 | 62 | 1.6 | 6.4 | 0.00 | 0.69 | 0.03 | 97 | 1016.4 |
| 20260902113332 | 20 | 57 | 1.6 | 6.4 | 0.00 | 0.69 | 0.03 | 97 | 1016.4 |
| 20260902113306 | 20 | 101 | 0.0 | 6.4 | 0.00 | 0.69 | 0.03 | 97 | 1016.3 |
| 20260902113300 | 20 | 57 | 1.6 | 6.4 | 0.00 | 0.69 | 0.03 | 97 | 1016.3 |
| 20260902113050 | 20 | 70 | 0.0 | 6.4 | 0.00 | 0.69 | 0.03 | 97 | 1016.3 |
| 20260902113020 | 20 | 66 | 4.8 | 6.4 | 0.00 | 0.69 | 0.03 | 97 | 1016.4 |
| 20260902112950 | 20 | 61 | 0.0 | 6.4 | 0.00 | 0.69 | 0.03 | 97 | 1016.3 |
| 20260902112849 | 20 | 45 | 0.0 | 4.8 | 0.00 | 0.69 | 0.03 | 97 | 1016.3 |
| 20260902112830 | 20 | 44 | 0.0 | 4.8 | 0.00 | 0.69 | 0.03 | 97 | 1016.3 |
| 20260902112749 | 20 | 44 | 0.0 | 4.8 | 0.00 | 0.69 | 0.03 | 97 | 1016.3 |
| 20260902112648 | 20 | 49 | 0.0 | 4.8 | 0.00 | 0.69 | 0.03 | 97 | 1016.2 |
| 20260902112601 | 20 | 92 | 0.0 | 4.8 | 0.00 | 0.69 | 0.03 | 97 | 1016.2 |
| 20260902112556 | 20 | 77 | 0.0 | 4.8 | 0.00 | 0.69 | 0.03 | 97 | 1016.2 |
| 20260902112521 | 20 | 82 | 1.6 | 4.8 | 0.00 | 0.69 | 0.03 | 97 | 1016.3 |
| 20260902112330 | 20 | 109 | 0.0 | 4.8 | 0.00 | 0.69 | 0.03 | 97 | 1016.2 |
| 20260902112246 | 20 | 65 | 0.0 | 4.8 | 0.00 | 0.69 | 0.03 | 97 | 1016.2 |
| 20260902112159 | 20 | 65 | 0.0 | 0.0 | 0.00 | 0.69 | 0.03 | 97 | 1016.2 |
| 20260902112154 | 20 | 69 | 0.0 | 0.0 | 0.00 | 0.69 | 0.03 | 97 | 1016.2 |
| 20260902112020 | 20 | 65 | 0.0 | 0.0 | 0.00 | 0.69 | 0.03 | 97 | 1016.4 |
| 20260902112013 | 20 | 63 | 0.0 | 0.0 | 0.00 | 0.69 | 0.03 | 97 | 1016.2 |
| 20260902112008 | 20 | 65 | 0.0 | 0.0 | 0.00 | 0.69 | 0.03 | 97 | 1016.2 |
| 20260902111852 | 20 | 65 | 0.0 | 0.0 | 0.00 | 0.69 | 0.03 | 97 | 1016.2 |
| 20260902111702 | 20 | 86 | 0.0 | 1.6 | 0.00 | 0.69 | 0.03 | 97 | 1016.2 |
| 20260902111658 | 20 | 84 | 0.0 | 4.8 | 0.00 | 0.69 | 0.03 | 97 | 1016.2 |
| 20260902111653 | 20 | 86 | 0.0 | 0.0 | 0.00 | 0.69 | 0.03 | 97 | 1016.2 |
| 20260902111521 | 20 | 86 | 0.0 | 1.6 | 0.00 | 0.69 | 0.03 | 97 | 1016.2 |
| 20260902111443 | 20 | 86 | 0.0 | 1.6 | 0.00 | 0.69 | 0.03 | 97 | 1016.1 |
| 20260902111433 | 20 | 86 | 0.0 | 4.8 | 0.00 | 0.69 | 0.03 | 97 | 1016.2 |
| 20260902111243 | 20 | 87 | 0.0 | 4.8 | 0.00 | 0.69 | 0.03 | 97 | 1016.2 |
| 20260902111141 | 20 | 89 | 0.0 | 4.8 | 0.00 | 0.69 | 0.03 | 97 | 1016.2 |
| 20260902111041 | 20 | 89 | 1.6 | 6.4 | 0.00 | 0.69 | 0.03 | 97 | 1016.2 |
| 20260902111021 | 20 | 84 | 0.0 | 6.4 | 0.00 | 0.69 | 0.03 | 97 | 1016.3 |
| 20260902110941 | 20 | 84 | 1.6 | 6.4 | 0.00 | 0.69 | 0.03 | 97 | 1016.2 |
| 20260902110824 | 20 | 84 | 1.6 | 6.4 | 0.00 | 0.69 | 0.03 | 97 | 1016.2 |
| 20260902110740 | 20 | 84 | 1.6 | 6.4 | 0.00 | 0.69 | 0.03 | 97 | 1016.3 |
| 20260902110654 | 20 | 80 | 1.6 | 6.4 | 0.00 | 0.69 | 0.03 | 97 | 1016.3 |
| 20260902110649 | 20 | 84 | 1.6 | 6.4 | 0.00 | 0.69 | 0.03 | 97 | 1016.2 |
| 20260902110520 | 20 | 80 | 0.0 | 6.4 | 0.00 | 0.69 | 0.03 | 97 | 1016.4 |
| 20260902110438 | 20 | 80 | 1.6 | 6.4 | 0.00 | 0.69 | 0.03 | 97 | 1016.3 |
| 20260902110324 | 20 | 84 | 1.6 | 6.4 | 0.00 | 0.69 | 0.03 | 97 | 1016.3 |
| 20260902110236 | 20 | 112 | 1.6 | 6.4 | 0.00 | 0.69 | 0.03 | 97 | 1016.3 |
| 20260902110136 | 20 | 72 | 1.6 | 6.4 | 0.00 | 0.69 | 0.03 | 97 | 1016.3 |
| 20260902110034 | 20 | 71 | 1.6 | 6.4 | 0.00 | 0.69 | 0.03 | 97 | 1016.3 |
| 20260902110020 | 20 | 65 | 6.4 | 6.4 | 0.00 | 0.69 | 0.03 | 97 | 1016.5 |
| 20260902105935 | 20 | 74 | 0.0 | 6.4 | 0.00 | 0.69 | 0.03 | 97 | 1016.3 |
| 20260902105823 | 20 | 88 | 0.0 | 3.2 | 0.00 | 0.69 | 0.03 | 97 | 1016.3 |
| 20260902105733 | 20 | 99 | 1.6 | 3.2 | 0.00 | 0.69 | 0.03 | 97 | 1016.3 |
| 20260902105632 | 20 | 99 | 1.6 | 3.2 | 0.00 | 0.69 | 0.03 | 97 | 1016.3 |
| 20260902105546 | 20 | 100 | 0.0 | 3.2 | 0.00 | 0.69 | 0.03 | 97 | 1016.3 |
| 20260902105540 | 20 | 70 | 0.0 | 3.2 | 0.00 | 0.69 | 0.03 | 97 | 1016.4 |
| 20260902105521 | 20 | 68 | 3.2 | 3.2 | 0.00 | 0.69 | 0.03 | 97 | 1016.5 |
| 20260902105331 | 20 | 91 | 0.0 | 3.2 | 0.00 | 0.69 | 0.03 | 97 | 1016.3 |
| 20260902105323 | 20 | 80 | 0.0 | 3.2 | 0.00 | 0.69 | 0.03 | 97 | 1016.3 |
| 20260902105229 | 20 | 83 | 0.0 | 3.2 | 0.00 | 0.69 | 0.03 | 97 | 1016.3 |
| 20260902105129 | 20 | 92 | 0.0 | 3.2 | 0.00 | 0.69 | 0.03 | 97 | 1016.3 |
| 20260902105028 | 20 | 92 | 0.0 | 4.8 | 0.00 | 0.69 | 0.03 | 97 | 1016.2 |
| 20260902105020 | 20 | 92 | 0.0 | 4.8 | 0.00 | 0.69 | 0.03 | 97 | 1016.5 |
| 20260902105000 | 20 | 74 | 0.0 | 4.8 | 0.00 | 0.69 | 0.03 | 97 | 1016.3 |
| 20260902104956 | 20 | 69 | 0.0 | 4.8 | 0.00 | 0.69 | 0.03 | 97 | 1016.3 |
| 20260902104951 | 20 | 92 | 1.6 | 4.8 | 0.00 | 0.69 | 0.03 | 97 | 1016.3 |
| 20260902104835 | 20 | 74 | 0.0 | 4.8 | 0.00 | 0.69 | 0.03 | 97 | 1016.3 |
| 20260902104626 | 20 | 76 | 1.6 | 4.8 | 0.00 | 0.69 | 0.03 | 97 | 1016.3 |
| 20260902104526 | 20 | 71 | 1.6 | 4.8 | 0.00 | 0.69 | 0.03 | 97 | 1016.3 |
| 20260902104521 | 20 | 71 | 1.6 | 4.8 | 0.00 | 0.69 | 0.03 | 97 | 1016.5 |
| 20260902104426 | 20 | 87 | 1.6 | 4.8 | 0.00 | 0.69 | 0.03 | 97 | 1016.3 |
| 20260902104321 | 20 | 86 | 1.6 | 4.8 | 0.00 | 0.69 | 0.03 | 97 | 1016.3 |
| 20260902104224 | 20 | 86 | 1.6 | 4.8 | 0.00 | 0.69 | 0.03 | 97 | 1016.2 |
| 20260902104123 | 20 | 86 | 1.6 | 4.8 | 0.00 | 0.69 | 0.03 | 97 | 1016.2 |
| 20260902104106 | 20 | 53 | 3.2 | 4.8 | 0.00 | 0.69 | 0.03 | 97 | 1016.4 |
| 20260902104021 | 20 | 64 | 1.6 | 4.8 | 0.00 | 0.69 | 0.03 | 97 | 1016.2 |
| 20260902103921 | 20 | 95 | 1.6 | 4.8 | 0.00 | 0.69 | 0.03 | 97 | 1016.2 |
| 20260902103819 | 20 | 92 | 1.6 | 4.8 | 0.00 | 0.69 | 0.03 | 97 | 1016.1 |
| 20260902103721 | 20 | 89 | 1.6 | 4.8 | 0.00 | 0.69 | 0.03 | 97 | 1016.1 |
| 20260902103621 | 20 | 76 | 1.6 | 4.8 | 0.00 | 0.69 | 0.03 | 97 | 1016.1 |
| 20260902103521 | 20 | 61 | 0.0 | 4.8 | 0.00 | 0.69 | 0.03 | 97 | 1016.3 |
| 20260902103420 | 20 | 61 | 1.6 | 4.8 | 0.00 | 0.69 | 0.03 | 97 | 1016.1 |
| 20260902103322 | 20 | 86 | 0.0 | 4.8 | 0.00 | 0.69 | 0.03 | 97 | 1016.1 |
| 20260902103220 | 20 | 89 | 0.0 | 4.8 | 0.00 | 0.69 | 0.03 | 97 | 1016.1 |
| 20260902103120 | 20 | 93 | 1.6 | 4.8 | 0.00 | 0.69 | 0.03 | 97 | 1016.1 |
| 20260902103020 | 20 | 93 | 1.6 | 4.8 | 0.00 | 0.69 | 0.03 | 97 | 1016.3 |
| 20260902102919 | 20 | 93 | 1.6 | 4.8 | 0.00 | 0.69 | 0.03 | 97 | 1016.1 |
| 20260902102820 | 20 | 93 | 1.6 | 4.8 | 0.03 | 0.69 | 0.03 | 97 | 1016.0 |
| 20260902102718 | 20 | 96 | 1.6 | 4.8 | 0.03 | 0.69 | 0.03 | 97 | 1016.0 |
| 20260902102638 | 20 | 103 | 1.6 | 6.4 | 0.03 | 0.69 | 0.03 | 97 | 1015.9 |
| 20260902102618 | 20 | 96 | 1.6 | 4.8 | 0.03 | 0.69 | 0.03 | 97 | 1016.0 |
| 20260902102543 | 20 | 103 | 1.6 | 6.4 | 0.03 | 0.69 | 0.03 | 97 | 1015.9 |
| 20260902102538 | 20 | 101 | 1.6 | 4.8 | 0.03 | 0.69 | 0.03 | 97 | 1016.0 |
| 20260902102528 | 20 | 103 | 1.6 | 4.8 | 0.03 | 0.69 | 0.03 | 97 | 1016.0 |
| 20260902102521 | 20 | 101 | 0.0 | 4.8 | 0.03 | 0.69 | 0.03 | 97 | 1016.2 |
| 20260902102213 | 20 | 87 | 1.6 | 6.4 | 0.03 | 0.69 | 0.03 | 97 | 1015.9 |
| 20260902102125 | 20 | 84 | 1.6 | 6.4 | 0.03 | 0.69 | 0.03 | 97 | 1015.9 |
| 20260902102120 | 20 | 90 | 1.6 | 6.4 | 0.03 | 0.69 | 0.03 | 97 | 1015.9 |
| 20260902102021 | 20 | 84 | 0.0 | 6.4 | 0.03 | 0.69 | 0.03 | 97 | 1016.1 |
| 20260902101911 | 20 | 74 | 1.6 | 6.4 | 0.03 | 0.69 | 0.03 | 97 | 1015.9 |
| 20260902101817 | 20 | 74 | 1.6 | 9.7 | 0.03 | 0.69 | 0.03 | 97 | 1015.9 |
| 20260902101810 | 20 | 76 | 1.6 | 9.7 | 0.03 | 0.69 | 0.03 | 97 | 1015.9 |
| 20260902101710 | 20 | 80 | 1.6 | 9.7 | 0.03 | 0.69 | 0.03 | 97 | 1015.8 |
| 20260902101610 | 20 | 81 | 1.6 | 9.7 | 0.03 | 0.69 | 0.03 | 97 | 1015.9 |
| 20260902101535 | 20 | 81 | 0.0 | 9.7 | 0.03 | 0.69 | 0.03 | 97 | 1016.1 |
| 20260902101509 | 20 | 81 | 1.6 | 9.7 | 0.03 | 0.69 | 0.03 | 97 | 1015.9 |
| 20260902101409 | 20 | 89 | 1.6 | 9.7 | 0.03 | 0.69 | 0.03 | 97 | 1015.9 |
| 20260902101313 | 20 | 96 | 1.6 | 9.7 | 0.03 | 0.69 | 0.03 | 97 | 1015.9 |
| 20260902101306 | 20 | 93 | 1.6 | 9.7 | 0.03 | 0.69 | 0.03 | 97 | 1015.9 |
| 20260902101206 | 20 | 97 | 1.6 | 9.7 | 0.03 | 0.69 | 0.03 | 97 | 1015.9 |
| 20260902101104 | 20 | 73 | 0.0 | 9.7 | 0.03 | 0.69 | 0.03 | 97 | 1015.9 |
| 20260902101022 | 20 | 102 | 0.0 | 4.8 | 0.03 | 0.69 | 0.03 | 97 | 1015.9 |
| 20260902101018 | 20 | 97 | 0.0 | 4.8 | 0.03 | 0.69 | 0.03 | 97 | 1015.9 |
| 20260902101014 | 20 | 96 | 0.0 | 4.8 | 0.03 | 0.69 | 0.03 | 97 | 1016.0 |
| 20260902101009 | 20 | 74 | 0.0 | 9.7 | 0.03 | 0.69 | 0.03 | 97 | 1015.9 |
| 20260902101000 | 20 | 74 | 0.0 | 9.7 | 0.03 | 0.69 | 0.03 | 97 | 1015.9 |
| 20260902100952 | 20 | 100 | 0.0 | 9.7 | 0.03 | 0.69 | 0.03 | 97 | 1015.9 |
| 20260902100622 | 20 | 96 | 0.0 | 4.8 | 0.03 | 0.69 | 0.03 | 97 | 1015.9 |
| 20260902100521 | 20 | 96 | 0.0 | 4.8 | 0.03 | 0.69 | 0.03 | 97 | 1016.2 |
| 20260902100312 | 20 | 90 | 0.0 | 4.8 | 0.03 | 0.69 | 0.03 | 97 | 1015.9 |
| 20260902100302 | 20 | 74 | 0.0 | 4.8 | 0.03 | 0.69 | 0.03 | 97 | 1016.0 |
| 20260902100202 | 20 | 74 | 0.0 | 4.8 | 0.03 | 0.69 | 0.03 | 97 | 1015.9 |
| 20260902100050 | 20 | 73 | 1.6 | 4.8 | 0.03 | 0.69 | 0.03 | 97 | 1016.1 |
| 20260902100004 | 20 | 73 | 0.0 | 4.8 | 0.03 | 0.69 | 0.03 | 97 | 1015.9 |
| 20260902095903 | 20 | 77 | 0.0 | 4.8 | 0.03 | 0.69 | 0.03 | 97 | 1015.9 |
| 20260902095812 | 20 | 94 | 0.0 | 6.4 | 0.03 | 0.69 | 0.03 | 97 | 1015.9 |
| 20260902095802 | 20 | 93 | 1.6 | 6.4 | 0.03 | 0.69 | 0.03 | 97 | 1015.9 |
| 20260902095715 | 20 | 93 | 1.6 | 6.4 | 0.03 | 0.69 | 0.03 | 97 | 1015.9 |
| 20260902095711 | 20 | 93 | 1.6 | 6.4 | 0.03 | 0.69 | 0.03 | 97 | 1015.9 |
| 20260902095521 | 20 | 94 | 4.8 | 6.4 | 0.03 | 0.69 | 0.03 | 97 | 1016.1 |
| 20260902095501 | 20 | 94 | 1.6 | 6.4 | 0.03 | 0.69 | 0.03 | 97 | 1015.9 |
| 20260902095401 | 20 | 59 | 1.6 | 6.4 | 0.03 | 0.69 | 0.03 | 97 | 1015.9 |
| 20260902095312 | 20 | 82 | 1.6 | 6.4 | 0.03 | 0.69 | 0.03 | 97 | 1015.9 |
| 20260902095300 | 20 | 82 | 1.6 | 6.4 | 0.03 | 0.69 | 0.03 | 97 | 1015.9 |
| 20260902095234 | 20 | 82 | 0.0 | 6.4 | 0.03 | 0.69 | 0.03 | 97 | 1015.9 |
| 20260902095121 | 20 | 71 | 0.0 | 6.4 | 0.03 | 0.69 | 0.03 | 97 | 1015.9 |
| 20260902095116 | 20 | 82 | 0.0 | 6.4 | 0.03 | 0.69 | 0.03 | 97 | 1015.9 |
| 20260902095035 | 20 | 84 | 1.6 | 6.4 | 0.03 | 0.69 | 0.03 | 97 | 1016.1 |
| 20260902094810 | 20 | 71 | 0.0 | 6.4 | 0.03 | 0.69 | 0.03 | 97 | 1015.9 |
| 20260902094757 | 20 | 71 | 0.0 | 6.4 | 0.03 | 0.69 | 0.03 | 97 | 1015.9 |
| 20260902094732 | 20 | 65 | 0.0 | 4.8 | 0.03 | 0.69 | 0.03 | 97 | 1015.9 |
| 20260902094727 | 20 | 65 | 0.0 | 4.8 | 0.03 | 0.69 | 0.03 | 97 | 1015.9 |
| 20260902094614 | 20 | 65 | 0.0 | 4.8 | 0.03 | 0.69 | 0.03 | 97 | 1015.9 |
| 20260902094550 | 20 | 65 | 0.0 | 4.8 | 0.03 | 0.69 | 0.03 | 97 | 1016.1 |
| 20260902094311 | 20 | 65 | 0.0 | 6.4 | 0.03 | 0.69 | 0.03 | 97 | 1015.9 |
| 20260902094255 | 20 | 65 | 0.0 | 6.4 | 0.03 | 0.69 | 0.03 | 97 | 1015.9 |
| 20260902094207 | 20 | 70 | 0.0 | 6.4 | 0.03 | 0.69 | 0.03 | 97 | 1015.9 |
| 20260902094203 | 20 | 70 | 0.0 | 6.4 | 0.03 | 0.69 | 0.03 | 97 | 1015.9 |
| 20260902094036 | 20 | 70 | 0.0 | 6.4 | 0.03 | 0.69 | 0.03 | 97 | 1016.1 |
| 20260902094006 | 20 | 70 | 1.6 | 6.4 | 0.03 | 0.69 | 0.03 | 97 | 1015.8 |
| 20260902094000 | 20 | 70 | 1.6 | 6.4 | 0.03 | 0.69 | 0.03 | 97 | 1015.9 |
| 20260902093811 | 20 | 51 | 1.6 | 6.4 | 0.03 | 0.69 | 0.03 | 97 | 1015.8 |
| 20260902093805 | 20 | 86 | 1.6 | 8.0 | 0.03 | 0.69 | 0.03 | 97 | 1015.9 |
| 20260902093801 | 20 | 79 | 1.6 | 6.4 | 0.03 | 0.69 | 0.03 | 97 | 1015.9 |
| 20260902093551 | 20 | 86 | 1.6 | 8.0 | 0.03 | 0.69 | 0.03 | 97 | 1015.9 |
| 20260902093536 | 20 | 85 | 1.6 | 8.0 | 0.03 | 0.69 | 0.03 | 97 | 1016.1 |
| 20260902093504 | 20 | 63 | 1.6 | 8.0 | 0.03 | 0.69 | 0.03 | 97 | 1015.8 |
| 20260902093500 | 20 | 70 | 1.6 | 8.0 | 0.03 | 0.69 | 0.03 | 97 | 1015.9 |
| 20260902093323 | 20 | 63 | 1.6 | 8.0 | 0.03 | 0.69 | 0.03 | 97 | 1015.8 |
| 20260902093319 | 20 | 63 | 1.6 | 8.0 | 0.03 | 0.69 | 0.03 | 97 | 1015.8 |
| 20260902093314 | 20 | 63 | 1.6 | 8.0 | 0.03 | 0.69 | 0.03 | 97 | 1015.8 |
| 20260902093308 | 20 | 63 | 1.6 | 8.0 | 0.03 | 0.69 | 0.03 | 97 | 1015.8 |
| 20260902093051 | 20 | 78 | 1.6 | 8.0 | 0.03 | 0.69 | 0.03 | 97 | 1016.0 |
| 20260902092950 | 20 | 82 | 1.6 | 8.0 | 0.03 | 0.69 | 0.03 | 97 | 1015.8 |
| 20260902092849 | 20 | 79 | 1.6 | 8.0 | 0.03 | 0.69 | 0.03 | 97 | 1015.9 |
| 20260902092810 | 20 | 67 | 1.6 | 8.0 | 0.00 | 0.66 | 0.03 | 97 | 1015.9 |
| 20260902092745 | 20 | 82 | 0.0 | 8.0 | 0.00 | 0.66 | 0.03 | 97 | 1015.8 |
| 20260902092647 | 20 | 79 | 0.0 | 4.8 | 0.00 | 0.66 | 0.00 | 97 | 1015.8 |
| 20260902092546 | 20 | 86 | 1.6 | 4.8 | 0.00 | 0.66 | 0.00 | 97 | 1015.8 |
| 20260902092521 | 20 | 88 | 0.0 | 4.8 | 0.00 | 0.66 | 0.00 | 97 | 1016.0 |
| 20260902092446 | 20 | 88 | 1.6 | 4.8 | 0.00 | 0.66 | 0.00 | 97 | 1015.8 |
| 20260902092345 | 20 | 88 | 1.6 | 6.4 | 0.00 | 0.66 | 0.00 | 97 | 1015.8 |
| 20260902092309 | 20 | 88 | 1.6 | 6.4 | 0.00 | 0.66 | 0.00 | 97 | 1015.8 |
| 20260902092244 | 20 | 88 | 1.6 | 6.4 | 0.00 | 0.66 | 0.00 | 97 | 1015.8 |
| 20260902092144 | 20 | 88 | 1.6 | 6.4 | 0.00 | 0.66 | 0.00 | 97 | 1015.8 |
| 20260902092044 | 20 | 88 | 1.6 | 6.4 | 0.00 | 0.66 | 0.00 | 97 | 1015.8 |
| 20260902092021 | 20 | 82 | 1.6 | 6.4 | 0.00 | 0.66 | 0.00 | 97 | 1016.0 |
| 20260902091942 | 20 | 83 | 1.6 | 6.4 | 0.00 | 0.66 | 0.00 | 97 | 1015.8 |
| 20260902091908 | 20 | 97 | 1.6 | 6.4 | 0.00 | 0.66 | 0.00 | 97 | 1015.9 |
| 20260902091859 | 20 | 96 | 1.6 | 6.4 | 0.00 | 0.66 | 0.00 | 97 | 1015.9 |
| 20260902091749 | 20 | 80 | 1.6 | 6.4 | 0.00 | 0.66 | 0.00 | 97 | 1015.8 |
| 20260902091540 | 20 | 83 | 1.6 | 6.4 | 0.00 | 0.66 | 0.00 | 97 | 1015.8 |
| 20260902091520 | 20 | 71 | 4.8 | 6.4 | 0.00 | 0.66 | 0.00 | 97 | 1015.9 |
| 20260902091439 | 20 | 84 | 1.6 | 6.4 | 0.00 | 0.66 | 0.00 | 97 | 1015.7 |
| 20260902091339 | 20 | 59 | 0.0 | 6.4 | 0.00 | 0.66 | 0.00 | 97 | 1015.7 |
| 20260902091308 | 20 | 121 | 0.0 | 4.8 | 0.00 | 0.66 | 0.00 | 97 | 1015.7 |
| 20260902091239 | 20 | 121 | 1.6 | 4.8 | 0.00 | 0.66 | 0.00 | 97 | 1015.7 |
| 20260902091203 | 20 | 121 | 1.6 | 6.4 | 0.00 | 0.66 | 0.00 | 97 | 1015.7 |
| 20260902091050 | 20 | 82 | 1.6 | 8.0 | 0.00 | 0.66 | 0.00 | 97 | 1015.6 |
| 20260902091045 | 20 | 122 | 1.6 | 6.4 | 0.00 | 0.66 | 0.00 | 97 | 1015.7 |
| 20260902091021 | 20 | 86 | 0.0 | 6.4 | 0.00 | 0.66 | 0.00 | 97 | 1015.9 |
| 20260902090913 | 20 | 82 | 1.6 | 6.4 | 0.00 | 0.66 | 0.00 | 97 | 1015.6 |
| 20260902090735 | 20 | 82 | 1.6 | 8.0 | 0.00 | 0.66 | 0.00 | 97 | 1015.5 |
| 20260902090634 | 20 | 82 | 1.6 | 8.0 | 0.00 | 0.66 | 0.00 | 96 | 1015.6 |
| 20260902090534 | 20 | 83 | 1.6 | 8.0 | 0.00 | 0.66 | 0.00 | 96 | 1015.6 |
| 20260902090521 | 20 | 83 | 0.0 | 8.0 | 0.00 | 0.66 | 0.00 | 96 | 1015.8 |
| 20260902090435 | 20 | 83 | 1.6 | 8.0 | 0.00 | 0.66 | 0.00 | 96 | 1015.6 |
| 20260902090333 | 20 | 83 | 1.6 | 8.0 | 0.00 | 0.66 | 0.00 | 96 | 1015.5 |
| 20260902090305 | 20 | 86 | 1.6 | 8.0 | 0.00 | 0.66 | 0.00 | 96 | 1015.5 |
| 20260902090232 | 20 | 69 | 1.6 | 8.0 | 0.00 | 0.66 | 0.00 | 96 | 1015.5 |
| 20260902090133 | 20 | 96 | 1.6 | 8.0 | 0.00 | 0.66 | 0.00 | 96 | 1015.5 |
| 20260902090033 | 20 | 103 | 1.6 | 8.0 | 0.00 | 0.66 | 0.00 | 97 | 1015.5 |
| 20260902090021 | 20 | 76 | 1.6 | 8.0 | 0.00 | 0.66 | 0.00 | 97 | 1015.7 |
| 20260902085931 | 20 | 96 | 1.6 | 8.0 | 0.00 | 0.66 | 0.00 | 96 | 1015.5 |
| 20260902085830 | 20 | 46 | 1.6 | 8.0 | 0.00 | 0.66 | 0.00 | 97 | 1015.5 |
| 20260902085805 | 20 | 84 | 1.6 | 6.4 | 0.00 | 0.66 | 0.00 | 97 | 1015.5 |
| 20260902085757 | 20 | 68 | 0.0 | 4.8 | 0.00 | 0.66 | 0.00 | 96 | 1015.5 |
| 20260902085752 | 20 | 65 | 0.0 | 4.8 | 0.00 | 0.66 | 0.00 | 96 | 1015.5 |
| 20260902085748 | 20 | 69 | 0.0 | 4.8 | 0.00 | 0.66 | 0.00 | 97 | 1015.5 |
| 20260902085520 | 20 | 65 | 0.0 | 4.8 | 0.00 | 0.66 | 0.00 | 96 | 1015.6 |
| 20260902085429 | 20 | 65 | 0.0 | 4.8 | 0.00 | 0.66 | 0.00 | 97 | 1015.4 |
| 20260902085327 | 20 | 69 | 0.0 | 4.8 | 0.00 | 0.66 | 0.00 | 97 | 1015.4 |
| 20260902085306 | 20 | 84 | 0.0 | 4.8 | 0.00 | 0.66 | 0.00 | 97 | 1015.4 |
| 20260902085227 | 20 | 84 | 0.0 | 4.8 | 0.00 | 0.66 | 0.00 | 97 | 1015.5 |
| 20260902085127 | 20 | 84 | 0.0 | 4.8 | 0.00 | 0.66 | 0.00 | 97 | 1015.5 |
| 20260902085035 | 20 | 92 | 0.0 | 4.8 | 0.00 | 0.66 | 0.00 | 97 | 1015.7 |
| 20260902085026 | 20 | 91 | 0.0 | 4.8 | 0.00 | 0.66 | 0.00 | 97 | 1015.5 |
| 20260902084926 | 20 | 92 | 0.0 | 4.8 | 0.00 | 0.66 | 0.00 | 97 | 1015.5 |
| 20260902084804 | 20 | 91 | 0.0 | 4.8 | 0.00 | 0.66 | 0.00 | 97 | 1015.5 |
| 20260902084725 | 20 | 91 | 0.0 | 4.8 | 0.00 | 0.66 | 0.00 | 97 | 1015.4 |
| 20260902084624 | 20 | 91 | 1.6 | 4.8 | 0.00 | 0.66 | 0.00 | 97 | 1015.4 |
| 20260902084549 | 20 | 91 | 1.6 | 4.8 | 0.00 | 0.66 | 0.00 | 97 | 1015.4 |
| 20260902084544 | 20 | 90 | 0.0 | 4.8 | 0.00 | 0.66 | 0.00 | 97 | 1015.4 |
| 20260902084539 | 20 | 91 | 1.6 | 4.8 | 0.00 | 0.66 | 0.00 | 97 | 1015.4 |
| 20260902084521 | 20 | 91 | 0.0 | 4.8 | 0.00 | 0.66 | 0.00 | 97 | 1015.6 |
| 20260902084304 | 20 | 71 | 0.0 | 4.8 | 0.00 | 0.66 | 0.00 | 97 | 1015.4 |
| 20260902084220 | 20 | 57 | 0.0 | 4.8 | 0.00 | 0.66 | 0.00 | 97 | 1015.4 |
| 20260902084120 | 20 | 57 | 0.0 | 4.8 | 0.00 | 0.66 | 0.00 | 97 | 1015.4 |
| 20260902084021 | 20 | 55 | 0.0 | 4.8 | 0.00 | 0.66 | 0.00 | 97 | 1015.6 |
| 20260902084019 | 20 | 55 | 0.0 | 4.8 | 0.00 | 0.66 | 0.00 | 97 | 1015.4 |
| 20260902083919 | 20 | 55 | 1.6 | 6.4 | 0.00 | 0.66 | 0.00 | 97 | 1015.4 |
| 20260902083803 | 20 | 44 | 1.6 | 6.4 | 0.00 | 0.66 | 0.00 | 97 | 1015.3 |
| 20260902083718 | 20 | 76 | 0.0 | 6.4 | 0.00 | 0.66 | 0.00 | 97 | 1015.3 |
| 20260902083618 | 20 | 105 | 0.0 | 6.4 | 0.00 | 0.66 | 0.00 | 97 | 1015.3 |
| 20260902083521 | 20 | 117 | 1.6 | 6.4 | 0.00 | 0.66 | 0.00 | 97 | 1015.5 |
| 20260902083518 | 20 | 140 | 0.0 | 6.4 | 0.00 | 0.66 | 0.00 | 97 | 1015.2 |
| 20260902083417 | 20 | 117 | 0.0 | 6.4 | 0.00 | 0.66 | 0.00 | 97 | 1015.3 |
| 20260902083303 | 20 | 117 | 1.6 | 6.4 | 0.00 | 0.66 | 0.00 | 97 | 1015.3 |
| 20260902083216 | 20 | 117 | 1.6 | 6.4 | 0.00 | 0.66 | 0.00 | 97 | 1015.3 |
| 20260902083116 | 20 | 117 | 1.6 | 11.3 | 0.00 | 0.66 | 0.00 | 97 | 1015.3 |
| 20260902083021 | 20 | 117 | 1.6 | 11.3 | 0.00 | 0.66 | 0.00 | 97 | 1015.5 |
| 20260902083016 | 20 | 117 | 1.6 | 11.3 | 0.00 | 0.66 | 0.00 | 97 | 1015.3 |
| 20260902082915 | 20 | 107 | 1.6 | 11.3 | 0.00 | 0.66 | 0.00 | 97 | 1015.3 |
| 20260902082814 | 20 | 98 | 1.6 | 11.3 | 0.00 | 0.66 | 0.00 | 97 | 1015.2 |
| 20260902082803 | 20 | 97 | 1.6 | 11.3 | 0.00 | 0.66 | 0.00 | 97 | 1015.2 |
| 20260902082734 | 20 | 97 | 1.6 | 11.3 | 0.00 | 0.66 | 0.00 | 97 | 1015.2 |
| 20260902082621 | 20 | 101 | 1.6 | 11.3 | 0.00 | 0.66 | 0.00 | 97 | 1015.2 |
| 20260902082520 | 20 | 100 | 0.0 | 11.3 | 0.00 | 0.66 | 0.00 | 97 | 1015.4 |
| 20260902082424 | 20 | 108 | 1.6 | 11.3 | 0.00 | 0.66 | 0.00 | 97 | 1015.1 |
| 20260902082420 | 20 | 108 | 1.6 | 11.3 | 0.00 | 0.66 | 0.00 | 97 | 1015.2 |
| 20260902082308 | 20 | 108 | 1.6 | 11.3 | 0.00 | 0.66 | 0.00 | 97 | 1015.1 |
| 20260902082210 | 20 | 78 | 1.6 | 11.3 | 0.00 | 0.66 | 0.00 | 97 | 1015.1 |
| 20260902082110 | 20 | 67 | 1.6 | 8.0 | 0.00 | 0.66 | 0.00 | 97 | 1015.1 |
| 20260902082021 | 20 | 67 | 1.6 | 11.3 | 0.00 | 0.66 | 0.00 | 96 | 1015.2 |
| 20260902082009 | 20 | 67 | 1.6 | 11.3 | 0.00 | 0.66 | 0.00 | 96 | 1015.1 |
| 20260902081908 | 20 | 64 | 1.6 | 11.3 | 0.00 | 0.66 | 0.00 | 96 | 1015.0 |
| 20260902081810 | 20 | 80 | 1.6 | 11.3 | 0.00 | 0.66 | 0.00 | 96 | 1015.0 |
| 20260902081802 | 20 | 80 | 1.6 | 11.3 | 0.00 | 0.66 | 0.00 | 96 | 1015.1 |
| 20260902081708 | 20 | 81 | 1.6 | 11.3 | 0.00 | 0.66 | 0.00 | 96 | 1015.1 |
| 20260902081608 | 20 | 76 | 1.6 | 11.3 | 0.00 | 0.66 | 0.00 | 96 | 1015.0 |
| 20260902081535 | 20 | 76 | 1.6 | 11.3 | 0.00 | 0.66 | 0.00 | 96 | 1015.1 |
| 20260902081507 | 20 | 78 | 1.6 | 11.3 | 0.00 | 0.66 | 0.00 | 96 | 1015.0 |
| 20260902081423 | 20 | 92 | 3.2 | 11.3 | 0.00 | 0.66 | 0.00 | 96 | 1014.9 |
| 20260902081419 | 20 | 92 | 1.6 | 11.3 | 0.00 | 0.66 | 0.00 | 96 | 1014.9 |
| 20260902081303 | 20 | 92 | 3.2 | 11.3 | 0.00 | 0.66 | 0.00 | 96 | 1014.9 |
| 20260902081205 | 20 | 80 | 3.2 | 11.3 | 0.00 | 0.66 | 0.00 | 96 | 1014.8 |
| 20260902081116 | 20 | 93 | 3.2 | 11.3 | 0.00 | 0.66 | 0.00 | 96 | 1014.8 |
| 20260902081112 | 20 | 81 | 3.2 | 11.3 | 0.00 | 0.66 | 0.00 | 96 | 1014.8 |
| 20260902081021 | 20 | 93 | 0.0 | 11.3 | 0.00 | 0.66 | 0.00 | 96 | 1015.0 |
| 20260902080901 | 20 | 39 | 3.2 | 11.3 | 0.00 | 0.66 | 0.00 | 96 | 1014.8 |
| 20260902080806 | 20 | 90 | 1.6 | 11.3 | 0.00 | 0.66 | 0.00 | 96 | 1014.8 |
| 20260902080800 | 20 | 94 | 1.6 | 11.3 | 0.00 | 0.66 | 0.00 | 96 | 1014.8 |
| 20260902080700 | 20 | 63 | 1.6 | 11.3 | 0.00 | 0.66 | 0.00 | 96 | 1014.9 |
| 20260902080610 | 20 | 86 | 1.6 | 11.3 | 0.00 | 0.66 | 0.00 | 97 | 1014.9 |
| 20260902080606 | 20 | 101 | 1.6 | 11.3 | 0.00 | 0.66 | 0.00 | 96 | 1014.9 |
| 20260902080536 | 21 | 92 | 1.6 | 11.3 | 0.00 | 0.66 | 0.00 | 97 | 1015.2 |
| 20260902080357 | 21 | 76 | 1.6 | 11.3 | 0.00 | 0.66 | 0.00 | 96 | 1014.9 |
| 20260902080302 | 21 | 77 | 1.6 | 8.0 | 0.00 | 0.66 | 0.00 | 96 | 1014.9 |
| 20260902080256 | 21 | 71 | 1.6 | 8.0 | 0.00 | 0.66 | 0.00 | 96 | 1014.9 |
| 20260902080156 | 21 | 86 | 1.6 | 8.0 | 0.00 | 0.66 | 0.00 | 96 | 1014.9 |
| 20260902080055 | 21 | 97 | 1.6 | 8.0 | 0.00 | 0.66 | 0.00 | 96 | 1014.9 |
| 20260902080021 | 21 | 78 | 1.6 | 8.0 | 0.00 | 0.66 | 0.00 | 96 | 1015.2 |
| 20260902075954 | 21 | 72 | 1.6 | 8.0 | 0.00 | 0.66 | 0.00 | 96 | 1014.9 |
| 20260902075853 | 21 | 80 | 1.6 | 12.9 | 0.00 | 0.66 | 0.00 | 96 | 1014.9 |
| 20260902075752 | 21 | 80 | 1.6 | 12.9 | 0.00 | 0.66 | 0.00 | 96 | 1014.9 |
| 20260902075652 | 21 | 80 | 1.6 | 12.9 | 0.00 | 0.66 | 0.00 | 96 | 1014.9 |
| 20260902075551 | 21 | 70 | 1.6 | 12.9 | 0.00 | 0.66 | 0.00 | 96 | 1014.9 |
| 20260902075536 | 21 | 77 | 1.6 | 12.9 | 0.00 | 0.66 | 0.00 | 96 | 1015.0 |
| 20260902075503 | 21 | 119 | 1.6 | 12.9 | 0.00 | 0.66 | 0.00 | 96 | 1014.8 |
| 20260902075459 | 21 | 75 | 1.6 | 12.9 | 0.00 | 0.66 | 0.00 | 96 | 1014.8 |
| 20260902075302 | 21 | 72 | 1.6 | 12.9 | 0.00 | 0.66 | 0.00 | 96 | 1014.8 |
| 20260902075249 | 21 | 56 | 1.6 | 12.9 | 0.00 | 0.66 | 0.00 | 96 | 1014.8 |
| 20260902075148 | 21 | 80 | 1.6 | 12.9 | 0.00 | 0.66 | 0.00 | 96 | 1014.9 |
| 20260902075047 | 21 | 88 | 1.6 | 12.9 | 0.00 | 0.66 | 0.00 | 96 | 1014.8 |
| 20260902075021 | 21 | 96 | 1.6 | 12.9 | 0.00 | 0.66 | 0.00 | 96 | 1015.0 |
| 20260902074944 | 21 | 81 | 1.6 | 12.9 | 0.00 | 0.66 | 0.00 | 96 | 1014.8 |
| 20260902074843 | 21 | 67 | 1.6 | 6.4 | 0.00 | 0.66 | 0.00 | 96 | 1014.8 |
| 20260902074801 | 21 | 61 | 1.6 | 6.4 | 0.00 | 0.66 | 0.00 | 96 | 1014.8 |
| 20260902074742 | 21 | 126 | 1.6 | 6.4 | 0.00 | 0.66 | 0.00 | 96 | 1014.8 |
| 20260902074642 | 21 | 106 | 1.6 | 6.4 | 0.00 | 0.66 | 0.00 | 96 | 1014.8 |
| 20260902074542 | 21 | 98 | 1.6 | 6.4 | 0.00 | 0.66 | 0.00 | 96 | 1014.8 |
| 20260902074521 | 21 | 79 | 3.2 | 6.4 | 0.00 | 0.66 | 0.00 | 96 | 1015.0 |
| 20260902074441 | 21 | 96 | 0.0 | 6.4 | 0.00 | 0.66 | 0.00 | 96 | 1014.8 |
| 20260902074341 | 21 | 93 | 1.6 | 6.4 | 0.00 | 0.66 | 0.00 | 97 | 1014.8 |
| 20260902074300 | 21 | 86 | 1.6 | 6.4 | 0.00 | 0.66 | 0.00 | 97 | 1014.8 |
| 20260902074240 | 21 | 82 | 1.6 | 6.4 | 0.00 | 0.66 | 0.00 | 97 | 1014.8 |
| 20260902074140 | 21 | 80 | 1.6 | 8.0 | 0.00 | 0.66 | 0.00 | 97 | 1014.8 |
| 20260902074038 | 21 | 86 | 1.6 | 8.0 | 0.00 | 0.66 | 0.00 | 97 | 1014.8 |
| 20260902074021 | 21 | 105 | 0.0 | 8.0 | 0.00 | 0.66 | 0.00 | 97 | 1015.0 |
| 20260902073948 | 21 | 76 | 1.6 | 9.7 | 0.00 | 0.66 | 0.00 | 97 | 1014.8 |
| 20260902073944 | 21 | 105 | 1.6 | 8.0 | 0.00 | 0.66 | 0.00 | 97 | 1014.8 |
| 20260902073759 | 21 | 71 | 1.6 | 9.7 | 0.00 | 0.66 | 0.00 | 97 | 1014.8 |
| 20260902073735 | 21 | 57 | 1.6 | 9.7 | 0.00 | 0.66 | 0.00 | 97 | 1014.8 |
| 20260902073635 | 21 | 50 | 1.6 | 9.7 | 0.00 | 0.66 | 0.00 | 97 | 1014.7 |
| 20260902073535 | 21 | 50 | 3.2 | 9.7 | 0.00 | 0.66 | 0.00 | 97 | 1014.7 |
| 20260902073521 | 21 | 50 | 0.0 | 9.7 | 0.00 | 0.66 | 0.00 | 97 | 1014.9 |
| 20260902073447 | 21 | 70 | 3.2 | 11.3 | 0.00 | 0.66 | 0.00 | 97 | 1014.7 |
| 20260902073443 | 21 | 50 | 3.2 | 9.7 | 0.00 | 0.66 | 0.00 | 97 | 1014.7 |
| 20260902073315 | 21 | 103 | 3.2 | 11.3 | 0.00 | 0.66 | 0.00 | 97 | 1014.7 |
| 20260902073311 | 21 | 80 | 3.2 | 11.3 | 0.00 | 0.66 | 0.00 | 97 | 1014.6 |
| 20260902073304 | 21 | 71 | 3.2 | 11.3 | 0.00 | 0.66 | 0.00 | 97 | 1014.6 |
| 20260902073042 | 21 | 111 | 3.2 | 11.3 | 0.00 | 0.66 | 0.00 | 97 | 1014.6 |
| 20260902073020 | 21 | 99 | 1.6 | 11.3 | 0.00 | 0.66 | 0.00 | 97 | 1014.9 |
| 20260902072831 | 21 | 90 | 3.2 | 11.3 | 0.00 | 0.66 | 0.00 | 97 | 1014.6 |
| 20260902072800 | 21 | 90 | 3.2 | 14.5 | 0.00 | 0.66 | 0.00 | 97 | 1014.6 |
| 20260902072728 | 21 | 90 | 3.2 | 14.5 | 0.00 | 0.66 | 0.00 | 97 | 1014.6 |
| 20260902072629 | 21 | 90 | 4.8 | 14.5 | 0.00 | 0.66 | 0.00 | 96 | 1014.6 |
| 20260902072529 | 21 | 90 | 3.2 | 14.5 | 0.00 | 0.66 | 0.00 | 96 | 1014.6 |
| 20260902072520 | 21 | 63 | 3.2 | 14.5 | 0.00 | 0.66 | 0.00 | 96 | 1014.9 |
| 20260902072428 | 21 | 101 | 3.2 | 14.5 | 0.00 | 0.66 | 0.00 | 96 | 1014.6 |
| 20260902072327 | 21 | 74 | 3.2 | 14.5 | 0.00 | 0.66 | 0.00 | 96 | 1014.6 |
| 20260902072259 | 21 | 77 | 3.2 | 14.5 | 0.00 | 0.66 | 0.00 | 96 | 1014.6 |
| 20260902072226 | 21 | 83 | 3.2 | 14.5 | 0.00 | 0.66 | 0.00 | 96 | 1014.6 |
| 20260902072126 | 21 | 86 | 4.8 | 14.5 | 0.00 | 0.66 | 0.00 | 96 | 1014.5 |
| 20260902072027 | 21 | 82 | 4.8 | 14.5 | 0.00 | 0.66 | 0.00 | 96 | 1014.5 |
| 20260902072021 | 21 | 83 | 1.6 | 14.5 | 0.00 | 0.66 | 0.00 | 96 | 1014.8 |
| 20260902071923 | 21 | 53 | 4.8 | 14.5 | 0.00 | 0.66 | 0.00 | 96 | 1014.5 |
| 20260902071907 | 21 | 33 | 4.8 | 14.5 | 0.00 | 0.66 | 0.00 | 96 | 1014.5 |
| 20260902071723 | 21 | 49 | 3.2 | 12.9 | 0.00 | 0.66 | 0.00 | 96 | 1014.6 |
| 20260902071623 | 21 | 107 | 4.8 | 12.9 | 0.00 | 0.66 | 0.00 | 96 | 1014.5 |
| 20260902071522 | 21 | 92 | 3.2 | 12.9 | 0.00 | 0.66 | 0.00 | 96 | 1014.5 |
| 20260902071455 | 21 | 96 | 3.2 | 12.9 | 0.00 | 0.66 | 0.00 | 97 | 1014.5 |
| 20260902071451 | 21 | 93 | 3.2 | 11.3 | 0.00 | 0.66 | 0.00 | 97 | 1014.5 |
| 20260902071445 | 21 | 93 | 3.2 | 12.9 | 0.00 | 0.66 | 0.00 | 96 | 1014.5 |
| 20260902071328 | 21 | 69 | 3.2 | 11.3 | 0.00 | 0.66 | 0.00 | 97 | 1014.5 |
| 20260902071120 | 21 | 110 | 3.2 | 11.3 | 0.00 | 0.66 | 0.00 | 97 | 1014.5 |
| 20260902071021 | 21 | 103 | 3.2 | 11.3 | 0.00 | 0.66 | 0.00 | 97 | 1014.7 |
| 20260902070919 | 21 | 78 | 1.6 | 11.3 | 0.00 | 0.66 | 0.00 | 97 | 1014.4 |
| 20260902070818 | 21 | 101 | 1.6 | 11.3 | 0.00 | 0.66 | 0.00 | 97 | 1014.5 |
| 20260902070758 | 21 | 88 | 1.6 | 11.3 | 0.00 | 0.66 | 0.00 | 97 | 1014.5 |
| 20260902070744 | 21 | 58 | 1.6 | 11.3 | 0.00 | 0.66 | 0.00 | 97 | 1014.5 |
| 20260902070740 | 21 | 78 | 1.6 | 11.3 | 0.00 | 0.66 | 0.00 | 97 | 1014.5 |
| 20260902070735 | 21 | 101 | 1.6 | 11.3 | 0.00 | 0.66 | 0.00 | 97 | 1014.5 |
| 20260902070520 | 21 | 78 | 0.0 | 11.3 | 0.00 | 0.66 | 0.00 | 97 | 1014.8 |
| 20260902070416 | 21 | 78 | 1.6 | 11.3 | 0.00 | 0.66 | 0.00 | 97 | 1014.5 |
| 20260902070314 | 21 | 78 | 1.6 | 11.3 | 0.00 | 0.66 | 0.00 | 97 | 1014.5 |
| 20260902070259 | 21 | 78 | 1.6 | 11.3 | 0.00 | 0.66 | 0.00 | 97 | 1014.5 |
| 20260902070214 | 21 | 103 | 1.6 | 11.3 | 0.00 | 0.66 | 0.00 | 97 | 1014.5 |
| 20260902070142 | 21 | 69 | 1.6 | 11.3 | 0.00 | 0.66 | 0.00 | 97 | 1014.5 |
| 20260902070028 | 21 | 86 | 3.2 | 11.3 | 0.00 | 0.66 | 0.00 | 97 | 1014.5 |
| 20260902070024 | 21 | 56 | 1.6 | 11.3 | 0.00 | 0.66 | 0.00 | 97 | 1014.5 |
| 20260902070021 | 21 | 58 | 0.0 | 11.3 | 0.00 | 0.66 | 0.00 | 97 | 1014.8 |
| 20260902070015 | 21 | 51 | 1.6 | 11.3 | 0.00 | 0.66 | 0.00 | 97 | 1014.5 |
| 20260902065724 | 21 | 85 | 1.6 | 9.7 | 0.00 | 0.66 | 0.00 | 97 | 1014.4 |
| 20260902065720 | 21 | 85 | 1.6 | 9.7 | 0.00 | 0.66 | 0.00 | 97 | 1014.5 |
| 20260902065521 | 21 | 91 | 1.6 | 6.4 | 0.00 | 0.66 | 0.00 | 97 | 1014.8 |
| 20260902065510 | 21 | 91 | 1.6 | 9.7 | 0.00 | 0.66 | 0.00 | 97 | 1014.5 |
| 20260902065410 | 21 | 94 | 1.6 | 6.4 | 0.00 | 0.66 | 0.00 | 97 | 1014.5 |
| 20260902065309 | 21 | 95 | 1.6 | 6.4 | 0.00 | 0.66 | 0.00 | 97 | 1014.5 |
| 20260902065258 | 21 | 95 | 1.6 | 6.4 | 0.00 | 0.66 | 0.00 | 97 | 1014.5 |
| 20260902065210 | 21 | 46 | 1.6 | 6.4 | 0.00 | 0.66 | 0.00 | 97 | 1014.5 |
| 20260902065109 | 21 | 90 | 1.6 | 6.4 | 0.00 | 0.66 | 0.00 | 97 | 1014.5 |
| 20260902065020 | 21 | 117 | 4.8 | 4.8 | 0.00 | 0.66 | 0.00 | 97 | 1014.8 |
| 20260902065009 | 21 | 109 | 0.0 | 4.8 | 0.00 | 0.66 | 0.00 | 97 | 1014.5 |
| 20260902064908 | 21 | 111 | 0.0 | 4.8 | 0.00 | 0.66 | 0.00 | 97 | 1014.5 |
| 20260902064822 | 21 | 85 | 0.0 | 3.2 | 0.00 | 0.66 | 0.00 | 97 | 1014.6 |
| 20260902064815 | 21 | 84 | 0.0 | 3.2 | 0.00 | 0.66 | 0.00 | 97 | 1014.5 |
| 20260902064607 | 21 | 84 | 0.0 | 3.2 | 0.00 | 0.66 | 0.00 | 97 | 1014.6 |
| 20260902064520 | 21 | 84 | 1.6 | 1.6 | 0.00 | 0.66 | 0.00 | 97 | 1014.9 |
| 20260902064507 | 21 | 84 | 0.0 | 3.2 | 0.00 | 0.66 | 0.00 | 97 | 1014.6 |
| 20260902064419 | 21 | 84 | 0.0 | 4.8 | 0.00 | 0.66 | 0.00 | 97 | 1014.6 |
| 20260902064415 | 21 | 84 | 0.0 | 1.6 | 0.00 | 0.66 | 0.00 | 97 | 1014.6 |
| 20260902064254 | 21 | 84 | 0.0 | 4.8 | 0.00 | 0.66 | 0.00 | 97 | 1014.6 |
| 20260902064205 | 21 | 84 | 0.0 | 4.8 | 0.00 | 0.66 | 0.00 | 97 | 1014.6 |
| 20260902064105 | 21 | 84 | 0.0 | 4.8 | 0.00 | 0.66 | 0.00 | 97 | 1014.6 |
| 20260902064020 | 21 | 84 | 0.0 | 4.8 | 0.00 | 0.66 | 0.00 | 97 | 1014.9 |
| 20260902064017 | 21 | 84 | 0.0 | 4.8 | 0.00 | 0.66 | 0.00 | 97 | 1014.6 |
| 20260902064004 | 21 | 84 | 0.0 | 4.8 | 0.00 | 0.66 | 0.00 | 97 | 1014.6 |
| 20260902063907 | 21 | 84 | 0.0 | 4.8 | 0.00 | 0.66 | 0.00 | 97 | 1014.6 |
| 20260902063858 | 21 | 84 | 0.0 | 4.8 | 0.00 | 0.66 | 0.00 | 97 | 1014.6 |
| 20260902063704 | 21 | 84 | 0.0 | 4.8 | 0.00 | 0.66 | 0.00 | 97 | 1014.5 |
| 20260902063602 | 21 | 84 | 0.0 | 4.8 | 0.00 | 0.66 | 0.00 | 97 | 1014.5 |
| 20260902063524 | 21 | 84 | 0.0 | 4.8 | 0.00 | 0.66 | 0.00 | 97 | 1014.4 |
| 20260902063521 | 21 | 84 | 0.0 | 4.8 | 0.00 | 0.66 | 0.00 | 97 | 1014.8 |
| 20260902063514 | 21 | 84 | 0.0 | 4.8 | 0.00 | 0.66 | 0.00 | 97 | 1014.5 |
| 20260902063356 | 21 | 84 | 0.0 | 4.8 | 0.00 | 0.66 | 0.00 | 97 | 1014.5 |
| 20260902063201 | 21 | 102 | 0.0 | 4.8 | 0.00 | 0.66 | 0.00 | 97 | 1014.4 |
| 20260902063113 | 21 | 102 | 0.0 | 4.8 | 0.00 | 0.66 | 0.00 | 97 | 1014.4 |
| 20260902063109 | 21 | 102 | 0.0 | 4.8 | 0.00 | 0.66 | 0.00 | 97 | 1014.4 |
| 20260902063021 | 21 | 102 | 3.2 | 4.8 | 0.00 | 0.66 | 0.00 | 97 | 1014.7 |
| 20260902062912 | 21 | 103 | 0.0 | 1.6 | 0.00 | 0.66 | 0.00 | 97 | 1014.4 |
| 20260902062908 | 21 | 103 | 0.0 | 1.6 | 0.00 | 0.66 | 0.00 | 97 | 1014.5 |
| 20260902062749 | 21 | 103 | 0.0 | 4.8 | 0.00 | 0.66 | 0.00 | 97 | 1014.4 |
| 20260902062658 | 21 | 103 | 0.0 | 4.8 | 0.00 | 0.66 | 0.00 | 97 | 1014.4 |
| 20260902062557 | 21 | 103 | 0.0 | 4.8 | 0.00 | 0.66 | 0.00 | 97 | 1014.4 |
| 20260902062521 | 21 | 103 | 0.0 | 1.6 | 0.00 | 0.66 | 0.00 | 97 | 1014.7 |
| 20260902062508 | 21 | 103 | 0.0 | 4.8 | 0.00 | 0.66 | 0.00 | 97 | 1014.4 |
| 20260902062504 | 21 | 103 | 0.0 | 4.8 | 0.00 | 0.66 | 0.00 | 97 | 1014.4 |
| 20260902062247 | 21 | 103 | 0.0 | 4.8 | 0.00 | 0.66 | 0.00 | 97 | 1014.3 |
| 20260902062154 | 21 | 103 | 0.0 | 4.8 | 0.00 | 0.66 | 0.00 | 97 | 1014.3 |
| 20260902062054 | 21 | 103 | 0.0 | 4.8 | 0.00 | 0.66 | 0.00 | 97 | 1014.4 |
| 20260902062020 | 21 | 103 | 0.0 | 1.6 | 0.00 | 0.66 | 0.00 | 97 | 1014.6 |
| 20260902061951 | 21 | 103 | 0.0 | 4.8 | 0.00 | 0.66 | 0.00 | 97 | 1014.3 |
| 20260902061925 | 21 | 103 | 0.0 | 4.8 | 0.00 | 0.66 | 0.00 | 97 | 1014.3 |
| 20260902061921 | 21 | 103 | 0.0 | 4.8 | 0.00 | 0.66 | 0.00 | 97 | 1014.4 |
| 20260902061916 | 21 | 103 | 0.0 | 4.8 | 0.00 | 0.66 | 0.00 | 97 | 1014.3 |
| 20260902061759 | 21 | 103 | 0.0 | 4.8 | 0.00 | 0.66 | 0.00 | 97 | 1014.3 |
| 20260902061604 | 21 | 103 | 0.0 | 4.8 | 0.00 | 0.66 | 0.00 | 97 | 1014.3 |
| 20260902061559 | 21 | 103 | 0.0 | 4.8 | 0.00 | 0.66 | 0.00 | 97 | 1014.4 |
| 20260902061535 | 21 | 103 | 0.0 | 4.8 | 0.00 | 0.66 | 0.00 | 97 | 1014.6 |
| 20260902061408 | 21 | 103 | 0.0 | 4.8 | 0.00 | 0.66 | 0.00 | 97 | 1014.3 |
| 20260902061403 | 21 | 103 | 0.0 | 4.8 | 0.00 | 0.66 | 0.00 | 97 | 1014.3 |
| 20260902061249 | 21 | 103 | 0.0 | 4.8 | 0.00 | 0.66 | 0.00 | 97 | 1014.3 |
| 20260902061147 | 21 | 103 | 0.0 | 4.8 | 0.00 | 0.66 | 0.00 | 97 | 1014.3 |
| 20260902061105 | 21 | 103 | 0.0 | 4.8 | 0.00 | 0.66 | 0.00 | 97 | 1014.4 |
| 20260902061059 | 21 | 103 | 0.0 | 4.8 | 0.00 | 0.66 | 0.00 | 97 | 1014.4 |
| 20260902061021 | 21 | 103 | 0.0 | 4.8 | 0.00 | 0.66 | 0.00 | 97 | 1014.7 |
| 20260902060937 | 21 | 105 | 0.0 | 4.8 | 0.00 | 0.66 | 0.00 | 97 | 1014.4 |
| 20260902060928 | 21 | 105 | 0.0 | 3.2 | 0.00 | 0.66 | 0.00 | 97 | 1014.4 |
| 20260902060710 | 21 | 132 | 0.0 | 0.0 | 0.00 | 0.66 | 0.00 | 97 | 1014.5 |
| 20260902060705 | 21 | 132 | 0.0 | 0.0 | 0.00 | 0.66 | 0.00 | 97 | 1014.5 |
| 20260902060521 | 21 | 132 | 0.0 | 0.0 | 0.00 | 0.66 | 0.00 | 97 | 1014.8 |
| 20260902060345 | 21 | 132 | 0.0 | 0.0 | 0.00 | 0.66 | 0.00 | 97 | 1014.5 |
| 20260902060244 | 21 | 132 | 0.0 | 0.0 | 0.00 | 0.66 | 0.00 | 97 | 1014.5 |
| 20260902060144 | 21 | 132 | 0.0 | 0.0 | 0.00 | 0.66 | 0.00 | 97 | 1014.5 |
| 20260902060050 | 21 | 132 | 0.0 | 0.0 | 0.00 | 0.66 | 0.00 | 97 | 1014.7 |
| 20260902060043 | 21 | 132 | 0.0 | 0.0 | 0.00 | 0.66 | 0.00 | 97 | 1014.4 |
| 20260902055942 | 21 | 132 | 0.0 | 0.0 | 0.00 | 0.66 | 0.00 | 97 | 1014.4 |
| 20260902055841 | 21 | 132 | 0.0 | 0.0 | 0.00 | 0.66 | 0.00 | 97 | 1014.3 |
| 20260902055739 | 21 | 132 | 0.0 | 0.0 | 0.00 | 0.66 | 0.00 | 96 | 1014.4 |
| 20260902055653 | 21 | 132 | 0.0 | 0.0 | 0.00 | 0.66 | 0.00 | 96 | 1014.4 |
| 20260902055648 | 21 | 132 | 0.0 | 0.0 | 0.00 | 0.66 | 0.00 | 96 | 1014.4 |
| 20260902055520 | 21 | 132 | 0.0 | 0.0 | 0.00 | 0.66 | 0.00 | 96 | 1014.5 |
| 20260902055438 | 21 | 132 | 0.0 | 1.6 | 0.00 | 0.66 | 0.00 | 96 | 1014.3 |
| 20260902055338 | 21 | 132 | 0.0 | 1.6 | 0.00 | 0.66 | 0.00 | 96 | 1014.4 |
| 20260902055237 | 21 | 132 | 0.0 | 1.6 | 0.00 | 0.66 | 0.00 | 96 | 1014.4 |
| 20260902055137 | 21 | 132 | 0.0 | 1.6 | 0.00 | 0.66 | 0.00 | 96 | 1014.3 |
| 20260902055037 | 21 | 132 | 0.0 | 1.6 | 0.00 | 0.66 | 0.00 | 96 | 1014.3 |
| 20260902055021 | 21 | 132 | 0.0 | 1.6 | 0.00 | 0.66 | 0.00 | 96 | 1014.6 |
| 20260902054936 | 21 | 132 | 0.0 | 1.6 | 0.00 | 0.66 | 0.00 | 96 | 1014.3 |
| 20260902054834 | 21 | 132 | 0.0 | 1.6 | 0.00 | 0.66 | 0.00 | 96 | 1014.2 |
| 20260902054734 | 21 | 132 | 0.0 | 1.6 | 0.00 | 0.66 | 0.00 | 96 | 1014.2 |
| 20260902054634 | 21 | 132 | 0.0 | 1.6 | 0.00 | 0.66 | 0.00 | 96 | 1014.2 |
| 20260902054533 | 21 | 132 | 0.0 | 1.6 | 0.00 | 0.66 | 0.00 | 96 | 1014.2 |
| 20260902054521 | 21 | 132 | 0.0 | 1.6 | 0.00 | 0.66 | 0.00 | 96 | 1014.5 |
| 20260902054446 | 21 | 132 | 0.0 | 0.0 | 0.00 | 0.66 | 0.00 | 96 | 1014.2 |
| 20260902054440 | 21 | 132 | 0.0 | 0.0 | 0.00 | 0.66 | 0.00 | 96 | 1014.2 |
| 20260902054231 | 21 | 132 | 0.0 | 0.0 | 0.00 | 0.66 | 0.00 | 96 | 1014.3 |
| 20260902054130 | 21 | 132 | 0.0 | 0.0 | 0.00 | 0.66 | 0.00 | 96 | 1014.3 |
| 20260902054029 | 21 | 132 | 0.0 | 0.0 | 0.00 | 0.66 | 0.00 | 96 | 1014.3 |
| 20260902054021 | 21 | 132 | 0.0 | 0.0 | 0.00 | 0.66 | 0.00 | 96 | 1014.6 |
| 20260902053943 | 21 | 132 | 0.0 | 0.0 | 0.00 | 0.66 | 0.00 | 96 | 1014.3 |
| 20260902053937 | 21 | 132 | 0.0 | 0.0 | 0.00 | 0.66 | 0.00 | 96 | 1014.3 |
| 20260902053749 | 21 | 132 | 0.0 | 0.0 | 0.00 | 0.66 | 0.00 | 96 | 1014.3 |
| 20260902053636 | 21 | 132 | 0.0 | 0.0 | 0.00 | 0.66 | 0.00 | 96 | 1014.3 |
| 20260902053521 | 21 | 132 | 0.0 | 0.0 | 0.00 | 0.66 | 0.00 | 96 | 1014.6 |
| 20260902053426 | 21 | 132 | 0.0 | 0.0 | 0.00 | 0.66 | 0.00 | 96 | 1014.3 |
| 20260902053326 | 21 | 132 | 0.0 | 0.0 | 0.00 | 0.66 | 0.00 | 96 | 1014.3 |
| 20260902053257 | 21 | 132 | 0.0 | 0.0 | 0.00 | 0.66 | 0.00 | 96 | 1014.3 |
| 20260902053253 | 21 | 132 | 0.0 | 0.0 | 0.00 | 0.66 | 0.00 | 96 | 1014.3 |
| 20260902053242 | 21 | 132 | 0.0 | 0.0 | 0.00 | 0.66 | 0.00 | 96 | 1014.3 |
| 20260902053035 | 21 | 132 | 0.0 | 0.0 | 0.00 | 0.66 | 0.00 | 96 | 1014.6 |
| 20260902052924 | 21 | 132 | 0.0 | 0.0 | 0.00 | 0.66 | 0.00 | 96 | 1014.3 |
| 20260902052823 | 21 | 132 | 0.0 | 0.0 | 0.00 | 0.66 | 0.00 | 96 | 1014.3 |
| 20260902052723 | 21 | 132 | 0.0 | 0.0 | 0.00 | 0.66 | 0.00 | 96 | 1014.3 |
| 20260902052622 | 21 | 132 | 0.0 | 0.0 | 0.00 | 0.66 | 0.00 | 96 | 1014.4 |
| 20260902052522 | 21 | 132 | 0.0 | 0.0 | 0.00 | 0.66 | 0.00 | 96 | 1014.3 |
| 20260902052438 | 21 | 132 | 0.0 | 0.0 | 0.00 | 0.66 | 0.00 | 96 | 1014.3 |
| 20260902052433 | 21 | 132 | 0.0 | 0.0 | 0.00 | 0.66 | 0.00 | 96 | 1014.4 |
| 20260902052223 | 21 | 132 | 0.0 | 0.0 | 0.00 | 0.66 | 0.00 | 96 | 1014.3 |
| 20260902052122 | 21 | 132 | 0.0 | 0.0 | 0.00 | 0.66 | 0.00 | 96 | 1014.4 |
| 20260902052022 | 21 | 132 | 0.0 | 0.0 | 0.00 | 0.66 | 0.00 | 96 | 1014.3 |
| 20260902052020 | 21 | 132 | 0.0 | 0.0 | 0.00 | 0.66 | 0.00 | 96 | 1014.7 |
| 20260902052003 | 21 | 132 | 0.0 | 0.0 | 0.00 | 0.66 | 0.00 | 96 | 1014.4 |
| 20260902051956 | 21 | 132 | 0.0 | 0.0 | 0.00 | 0.66 | 0.00 | 96 | 1014.4 |
| 20260902051728 | 21 | 132 | 0.0 | 0.0 | 0.00 | 0.66 | 0.00 | 96 | 1014.4 |
| 20260902051539 | 21 | 132 | 0.0 | 0.0 | 0.00 | 0.66 | 0.00 | 96 | 1014.4 |
| 20260902051536 | 21 | 132 | 0.0 | 0.0 | 0.00 | 0.66 | 0.00 | 96 | 1014.7 |
| 20260902051426 | 21 | 132 | 0.0 | 0.0 | 0.00 | 0.66 | 0.00 | 96 | 1014.4 |
| 20260902051217 | 21 | 132 | 0.0 | 0.0 | 0.00 | 0.66 | 0.00 | 96 | 1014.4 |
| 20260902051116 | 21 | 132 | 0.0 | 0.0 | 0.00 | 0.66 | 0.00 | 96 | 1014.4 |
| 20260902051035 | 21 | 132 | 0.0 | 0.0 | 0.00 | 0.66 | 0.00 | 96 | 1014.8 |
| 20260902051016 | 21 | 132 | 0.0 | 0.0 | 0.00 | 0.66 | 0.00 | 96 | 1014.5 |
| 20260902050928 | 21 | 132 | 0.0 | 0.0 | 0.00 | 0.66 | 0.00 | 96 | 1014.5 |
| 20260902050923 | 21 | 132 | 0.0 | 0.0 | 0.00 | 0.66 | 0.00 | 96 | 1014.5 |
| 20260902050714 | 21 | 132 | 0.0 | 0.0 | 0.00 | 0.66 | 0.00 | 96 | 1014.6 |
| 20260902050613 | 21 | 132 | 0.0 | 0.0 | 0.00 | 0.66 | 0.00 | 96 | 1014.6 |
| 20260902050555 | 21 | 132 | 0.0 | 0.0 | 0.00 | 0.66 | 0.00 | 96 | 1014.6 |
| 20260902050548 | 21 | 132 | 0.0 | 0.0 | 0.00 | 0.66 | 0.00 | 96 | 1014.6 |
| 20260902050521 | 21 | 132 | 0.0 | 0.0 | 0.00 | 0.66 | 0.00 | 96 | 1014.9 |
| 20260902050326 | 21 | 132 | 0.0 | 0.0 | 0.00 | 0.66 | 0.00 | 96 | 1014.6 |
| 20260902050318 | 21 | 132 | 0.0 | 0.0 | 0.00 | 0.66 | 0.00 | 96 | 1014.6 |
| 20260902050112 | 21 | 132 | 0.0 | 0.0 | 0.00 | 0.66 | 0.00 | 96 | 1014.6 |
| 20260902050021 | 21 | 132 | 0.0 | 0.0 | 0.00 | 0.66 | 0.00 | 96 | 1015.0 |
| 20260902050011 | 21 | 132 | 0.0 | 0.0 | 0.00 | 0.66 | 0.00 | 96 | 1014.7 |
| 20260902045910 | 21 | 132 | 0.0 | 0.0 | 0.00 | 0.66 | 0.00 | 96 | 1014.7 |
| 20260902045809 | 21 | 132 | 0.0 | 0.0 | 0.00 | 0.66 | 0.00 | 96 | 1014.7 |
| 20260902045709 | 21 | 132 | 0.0 | 0.0 | 0.00 | 0.66 | 0.00 | 96 | 1014.7 |
| 20260902045607 | 21 | 132 | 0.0 | 0.0 | 0.00 | 0.66 | 0.00 | 96 | 1014.7 |
| 20260902045507 | 21 | 132 | 0.0 | 0.0 | 0.00 | 0.66 | 0.00 | 96 | 1014.7 |
| 20260902045434 | 21 | 132 | 0.0 | 0.0 | 0.00 | 0.66 | 0.00 | 96 | 1014.8 |
| 20260902045321 | 21 | 132 | 0.0 | 0.0 | 0.00 | 0.66 | 0.00 | 96 | 1014.7 |
| 20260902045313 | 21 | 132 | 0.0 | 0.0 | 0.00 | 0.66 | 0.00 | 96 | 1014.7 |
| 20260902045104 | 21 | 132 | 0.0 | 0.0 | 0.00 | 0.66 | 0.00 | 96 | 1014.7 |
| 20260902045021 | 21 | 132 | 0.0 | 0.0 | 0.00 | 0.66 | 0.00 | 96 | 1015.0 |
| 20260902045003 | 21 | 132 | 0.0 | 0.0 | 0.00 | 0.66 | 0.00 | 96 | 1014.7 |
| 20260902044903 | 21 | 132 | 0.0 | 0.0 | 0.00 | 0.66 | 0.00 | 96 | 1014.8 |
| 20260902044802 | 21 | 132 | 0.0 | 0.0 | 0.00 | 0.66 | 0.00 | 96 | 1014.8 |
| 20260902044728 | 21 | 132 | 0.0 | 0.0 | 0.00 | 0.66 | 0.00 | 96 | 1014.8 |
| 20260902044701 | 21 | 132 | 0.0 | 0.0 | 0.00 | 0.66 | 0.00 | 96 | 1014.8 |
| 20260902044602 | 21 | 132 | 0.0 | 0.0 | 0.00 | 0.66 | 0.00 | 96 | 1014.8 |
| 20260902044521 | 21 | 132 | 0.0 | 0.0 | 0.00 | 0.66 | 0.00 | 96 | 1015.0 |
| 20260902044502 | 21 | 132 | 0.0 | 0.0 | 0.00 | 0.66 | 0.00 | 96 | 1014.8 |
| 20260902044358 | 21 | 132 | 0.0 | 0.0 | 0.00 | 0.66 | 0.00 | 96 | 1014.9 |
| 20260902044229 | 21 | 132 | 0.0 | 0.0 | 0.00 | 0.66 | 0.00 | 96 | 1014.9 |
| 20260902044209 | 21 | 132 | 0.0 | 0.0 | 0.00 | 0.66 | 0.00 | 96 | 1014.9 |
| 20260902044204 | 21 | 132 | 0.0 | 0.0 | 0.00 | 0.66 | 0.00 | 96 | 1014.9 |
| 20260902044021 | 21 | 132 | 0.0 | 0.0 | 0.00 | 0.66 | 0.00 | 96 | 1015.0 |
| 20260902043955 | 21 | 132 | 0.0 | 0.0 | 0.00 | 0.66 | 0.00 | 96 | 1014.8 |
| 20260902043854 | 21 | 132 | 0.0 | 0.0 | 0.00 | 0.66 | 0.00 | 96 | 1014.8 |
| 20260902043726 | 21 | 132 | 0.0 | 0.0 | 0.00 | 0.66 | 0.00 | 96 | 1014.8 |
| 20260902043654 | 21 | 132 | 0.0 | 0.0 | 0.00 | 0.66 | 0.00 | 96 | 1014.8 |
| 20260902043554 | 21 | 132 | 0.0 | 0.0 | 0.00 | 0.66 | 0.00 | 96 | 1014.7 |
| 20260902043551 | 21 | 132 | 0.0 | 0.0 | 0.00 | 0.66 | 0.00 | 96 | 1014.9 |
| 20260902043515 | 21 | 132 | 0.0 | 0.0 | 0.00 | 0.66 | 0.00 | 96 | 1014.7 |
| 20260902043402 | 21 | 132 | 0.0 | 0.0 | 0.00 | 0.66 | 0.00 | 96 | 1014.7 |
| 20260902043228 | 21 | 132 | 0.0 | 0.0 | 0.00 | 0.66 | 0.00 | 96 | 1014.7 |
| 20260902043152 | 21 | 132 | 0.0 | 0.0 | 0.00 | 0.66 | 0.00 | 96 | 1014.7 |
| 20260902043052 | 21 | 132 | 0.0 | 0.0 | 0.00 | 0.66 | 0.00 | 96 | 1014.7 |
| 20260902043021 | 21 | 132 | 0.0 | 0.0 | 0.00 | 0.69 | 0.00 | 96 | 1014.9 |
| 20260902042951 | 21 | 132 | 0.0 | 0.0 | 0.00 | 0.69 | 0.00 | 96 | 1014.7 |
| 20260902042850 | 21 | 132 | 0.0 | 0.0 | 0.00 | 0.69 | 0.00 | 96 | 1014.6 |
| 20260902042726 | 21 | 132 | 0.0 | 0.0 | 0.00 | 0.69 | 0.00 | 96 | 1014.6 |
| 20260902042703 | 21 | 132 | 0.0 | 0.0 | 0.00 | 0.69 | 0.00 | 96 | 1014.6 |
| 20260902042658 | 21 | 132 | 0.0 | 0.0 | 0.00 | 0.69 | 0.00 | 96 | 1014.6 |
| 20260902042536 | 21 | 132 | 0.0 | 0.0 | 0.00 | 0.69 | 0.00 | 96 | 1014.8 |
| 20260902042449 | 21 | 132 | 0.0 | 0.0 | 0.00 | 0.69 | 0.00 | 96 | 1014.6 |
| 20260902042347 | 21 | 132 | 0.0 | 0.0 | 0.00 | 0.69 | 0.00 | 96 | 1014.6 |
| 20260902042223 | 21 | 132 | 0.0 | 0.0 | 0.00 | 0.69 | 0.00 | 96 | 1014.5 |
| 20260902042200 | 21 | 132 | 0.0 | 0.0 | 0.00 | 0.69 | 0.00 | 96 | 1014.6 |
| 20260902042155 | 21 | 132 | 0.0 | 0.0 | 0.00 | 0.69 | 0.00 | 96 | 1014.6 |
| 20260902042030 | 21 | 132 | 0.0 | 0.0 | 0.00 | 0.69 | 0.00 | 96 | 1014.5 |
| 20260902042025 | 21 | 132 | 0.0 | 0.0 | 0.00 | 0.69 | 0.00 | 96 | 1014.6 |
| 20260902042021 | 21 | 132 | 0.0 | 0.0 | 0.00 | 0.69 | 0.00 | 96 | 1014.8 |
| 20260902042019 | 21 | 132 | 0.0 | 0.0 | 0.00 | 0.69 | 0.00 | 96 | 1014.6 |
| 20260902042010 | 21 | 132 | 0.0 | 0.0 | 0.00 | 0.69 | 0.00 | 96 | 1014.6 |
| 20260902041546 | 21 | 132 | 0.0 | 0.0 | 0.00 | 0.69 | 0.00 | 96 | 1014.6 |
| 20260902041521 | 21 | 132 | 0.0 | 0.0 | 0.00 | 0.69 | 0.00 | 96 | 1014.8 |
| 20260902041444 | 21 | 132 | 0.0 | 0.0 | 0.00 | 0.69 | 0.00 | 96 | 1014.6 |
| 20260902041344 | 21 | 132 | 0.0 | 0.0 | 0.00 | 0.69 | 0.00 | 96 | 1014.6 |
| 20260902041222 | 21 | 132 | 0.0 | 0.0 | 0.00 | 0.69 | 0.00 | 96 | 1014.6 |
| 20260902041143 | 21 | 132 | 0.0 | 0.0 | 0.00 | 0.69 | 0.00 | 96 | 1014.5 |
| 20260902041041 | 21 | 132 | 0.0 | 0.0 | 0.00 | 0.69 | 0.00 | 96 | 1014.5 |
| 20260902041020 | 21 | 132 | 0.0 | 0.0 | 0.00 | 0.69 | 0.00 | 96 | 1014.7 |
| 20260902040947 | 21 | 132 | 0.0 | 0.0 | 0.00 | 0.69 | 0.00 | 96 | 1014.5 |
| 20260902040942 | 21 | 132 | 0.0 | 0.0 | 0.00 | 0.69 | 0.00 | 96 | 1014.5 |
| 20260902040841 | 21 | 132 | 0.0 | 0.0 | 0.00 | 0.69 | 0.00 | 96 | 1014.5 |
| 20260902040827 | 21 | 132 | 0.0 | 0.0 | 0.00 | 0.69 | 0.00 | 96 | 1014.5 |
| 20260902040640 | 21 | 132 | 0.0 | 0.0 | 0.00 | 0.69 | 0.00 | 96 | 1014.4 |
| 20260902040540 | 21 | 132 | 0.0 | 0.0 | 0.00 | 0.69 | 0.00 | 96 | 1014.4 |
| 20260902040520 | 21 | 132 | 0.0 | 0.0 | 0.00 | 0.69 | 0.00 | 96 | 1014.6 |
| 20260902040439 | 21 | 132 | 0.0 | 0.0 | 0.00 | 0.69 | 0.00 | 96 | 1014.4 |
| 20260902040339 | 21 | 132 | 0.0 | 0.0 | 0.00 | 0.69 | 0.00 | 96 | 1014.4 |
| 20260902040258 | 21 | 132 | 0.0 | 0.0 | 0.00 | 0.69 | 0.00 | 96 | 1014.4 |
| 20260902040246 | 21 | 132 | 0.0 | 0.0 | 0.00 | 0.69 | 0.00 | 96 | 1014.4 |
| 20260902040037 | 21 | 132 | 0.0 | 0.0 | 0.00 | 0.69 | 0.00 | 96 | 1014.4 |
| 20260902040021 | 21 | 132 | 0.0 | 0.0 | 0.00 | 0.69 | 0.00 | 96 | 1014.6 |
| 20260902035939 | 21 | 132 | 0.0 | 0.0 | 0.00 | 0.69 | 0.69 | 96 | 1014.4 |
| 20260902035851 | 21 | 132 | 0.0 | 0.0 | 0.00 | 0.69 | 0.69 | 96 | 1014.4 |
| 20260902035847 | 21 | 132 | 0.0 | 0.0 | 0.00 | 0.69 | 0.69 | 96 | 1014.5 |
| 20260902035720 | 21 | 132 | 0.0 | 0.0 | 0.00 | 0.69 | 0.69 | 96 | 1014.4 |
| 20260902035637 | 21 | 132 | 0.0 | 0.0 | 0.00 | 0.69 | 0.69 | 96 | 1014.4 |
| 20260902035537 | 21 | 131 | 0.0 | 0.0 | 0.00 | 0.69 | 0.69 | 96 | 1014.3 |
| 20260902035521 | 21 | 132 | 0.0 | 0.0 | 0.00 | 0.69 | 0.69 | 96 | 1014.6 |
| 20260902035435 | 21 | 132 | 0.0 | 0.0 | 0.00 | 0.69 | 0.69 | 96 | 1014.4 |
| 20260902035335 | 21 | 132 | 0.0 | 0.0 | 0.00 | 0.69 | 0.69 | 96 | 1014.3 |
| 20260902035217 | 21 | 132 | 0.0 | 0.0 | 0.00 | 0.69 | 0.69 | 96 | 1014.3 |
| 20260902035134 | 21 | 132 | 0.0 | 0.0 | 0.00 | 0.69 | 0.69 | 96 | 1014.2 |
| 20260902035034 | 21 | 132 | 0.0 | 0.0 | 0.00 | 0.69 | 0.69 | 96 | 1014.2 |
| 20260902035020 | 21 | 132 | 0.0 | 0.0 | 0.00 | 0.69 | 0.69 | 96 | 1014.4 |
| 20260902034932 | 21 | 132 | 0.0 | 0.0 | 0.00 | 0.69 | 0.69 | 96 | 1014.2 |
| 20260902034846 | 21 | 132 | 0.0 | 0.0 | 0.00 | 0.69 | 0.69 | 96 | 1014.1 |
| 20260902034842 | 21 | 131 | 0.0 | 0.0 | 0.00 | 0.69 | 0.69 | 96 | 1014.1 |
| 20260902034717 | 21 | 131 | 0.0 | 0.0 | 0.00 | 0.69 | 0.69 | 96 | 1014.1 |
| 20260902034632 | 21 | 132 | 0.0 | 0.0 | 0.00 | 0.69 | 0.69 | 96 | 1014.0 |
| 20260902034553 | 21 | 132 | 0.0 | 0.0 | 0.00 | 0.69 | 0.69 | 96 | 1014.0 |
| 20260902034520 | 21 | 132 | 0.0 | 0.0 | 0.00 | 0.69 | 0.69 | 96 | 1014.2 |
| 20260902034440 | 21 | 132 | 0.0 | 0.0 | 0.00 | 0.69 | 0.69 | 96 | 1014.0 |
| 20260902034215 | 21 | 132 | 0.0 | 0.0 | 0.00 | 0.69 | 0.69 | 96 | 1013.8 |
| 20260902034131 | 21 | 132 | 0.0 | 0.0 | 0.00 | 0.69 | 0.69 | 96 | 1013.8 |
| 20260902034030 | 21 | 132 | 0.0 | 0.0 | 0.00 | 0.69 | 0.69 | 96 | 1013.8 |
| 20260902034020 | 21 | 132 | 0.0 | 0.0 | 0.00 | 0.69 | 0.69 | 96 | 1013.8 |
| 20260902033955 | 21 | 132 | 0.0 | 1.6 | 0.00 | 0.69 | 0.69 | 96 | 1013.7 |
| 20260902033930 | 21 | 132 | 0.0 | 0.0 | 0.00 | 0.69 | 0.69 | 96 | 1013.6 |
| 20260902033858 | 21 | 131 | 0.0 | 1.6 | 0.00 | 0.69 | 0.69 | 96 | 1013.7 |
| 20260902033852 | 21 | 132 | 0.0 | 1.6 | 0.00 | 0.69 | 0.69 | 96 | 1013.7 |
| 20260902033843 | 21 | 131 | 0.0 | 1.6 | 0.00 | 0.69 | 0.69 | 96 | 1013.7 |
| 20260902033527 | 21 | 131 | 0.0 | 1.6 | 0.00 | 0.69 | 0.69 | 96 | 1013.7 |
| 20260902033521 | 21 | 132 | 0.0 | 1.6 | 0.00 | 0.69 | 0.69 | 96 | 1013.9 |
| 20260902033427 | 21 | 132 | 0.0 | 1.6 | 0.00 | 0.69 | 0.69 | 96 | 1013.7 |
| 20260902033326 | 21 | 132 | 0.0 | 1.6 | 0.00 | 0.69 | 0.69 | 96 | 1013.7 |
| 20260902033212 | 21 | 132 | 0.0 | 1.6 | 0.00 | 0.69 | 0.69 | 96 | 1013.7 |
| 20260902033127 | 21 | 132 | 0.0 | 1.6 | 0.00 | 0.69 | 0.69 | 96 | 1013.6 |
| 20260902033024 | 21 | 132 | 0.0 | 1.6 | 0.00 | 0.69 | 0.69 | 96 | 1013.6 |
| 20260902033021 | 21 | 132 | 0.0 | 1.6 | 0.00 | 0.69 | 0.69 | 96 | 1013.9 |
| 20260902032924 | 21 | 131 | 0.0 | 1.6 | 0.00 | 0.69 | 0.69 | 96 | 1013.7 |
| 20260902032822 | 21 | 131 | 0.0 | 1.6 | 0.00 | 0.69 | 0.69 | 96 | 1013.6 |
| 20260902032722 | 21 | 132 | 0.0 | 1.6 | 0.00 | 0.69 | 0.69 | 96 | 1013.6 |
| 20260902032712 | 21 | 132 | 0.0 | 0.0 | 0.00 | 0.69 | 0.69 | 96 | 1013.6 |
| 20260902032622 | 21 | 132 | 0.0 | 0.0 | 0.00 | 0.69 | 0.69 | 96 | 1013.6 |
| 20260902032521 | 21 | 132 | 0.0 | 0.0 | 0.00 | 0.69 | 0.69 | 96 | 1013.6 |
| 20260902032422 | 21 | 132 | 0.0 | 0.0 | 0.00 | 0.69 | 0.69 | 96 | 1013.4 |
| 20260902032414 | 21 | 132 | 0.0 | 0.0 | 0.00 | 0.69 | 0.69 | 96 | 1013.4 |
| 20260902032410 | 21 | 132 | 0.0 | 0.0 | 0.00 | 0.69 | 0.69 | 96 | 1013.4 |
| 20260902032405 | 21 | 132 | 0.0 | 0.0 | 0.00 | 0.69 | 0.69 | 96 | 1013.4 |
| 20260902032247 | 21 | 132 | 0.0 | 0.0 | 0.00 | 0.69 | 0.69 | 96 | 1013.4 |
| 20260902032036 | 21 | 132 | 0.0 | 0.0 | 0.00 | 0.69 | 0.69 | 96 | 1013.6 |
| 20260902032027 | 21 | 132 | 0.0 | 0.0 | 0.00 | 0.69 | 0.69 | 96 | 1013.4 |
| 20260902031817 | 21 | 132 | 0.0 | 0.0 | 0.00 | 0.69 | 0.69 | 96 | 1013.4 |
| 20260902031749 | 21 | 132 | 0.0 | 0.0 | 0.00 | 0.69 | 0.69 | 96 | 1013.6 |
| 20260902031744 | 21 | 132 | 0.0 | 0.0 | 0.00 | 0.69 | 0.69 | 96 | 1013.6 |
| 20260902031731 | 21 | 132 | 0.0 | 0.0 | 0.00 | 0.69 | 0.69 | 96 | 1013.5 |
| 20260902031521 | 21 | 132 | 0.0 | 0.0 | 0.00 | 0.69 | 0.69 | 96 | 1013.8 |
| 20260902031415 | 21 | 132 | 0.0 | 0.0 | 0.00 | 0.69 | 0.69 | 96 | 1013.6 |
| 20260902031314 | 21 | 132 | 0.0 | 0.0 | 0.00 | 0.69 | 0.69 | 96 | 1013.6 |
| 20260902031215 | 21 | 132 | 0.0 | 0.0 | 0.00 | 0.69 | 0.69 | 96 | 1013.6 |
| 20260902031126 | 21 | 132 | 0.0 | 0.0 | 0.00 | 0.69 | 0.69 | 96 | 1013.6 |
| 20260902031122 | 21 | 132 | 0.0 | 0.0 | 0.00 | 0.69 | 0.69 | 96 | 1013.6 |
| 20260902031021 | 21 | 132 | 0.0 | 0.0 | 0.00 | 0.69 | 0.69 | 96 | 1013.9 |
| 20260902030912 | 21 | 132 | 0.0 | 0.0 | 0.00 | 0.69 | 0.69 | 96 | 1013.7 |
| 20260902030812 | 21 | 132 | 0.0 | 0.0 | 0.00 | 0.69 | 0.69 | 96 | 1013.8 |
| 20260902030711 | 21 | 132 | 0.0 | 0.0 | 0.00 | 0.69 | 0.69 | 96 | 1013.8 |
| 20260902030611 | 21 | 132 | 0.0 | 0.0 | 0.00 | 0.69 | 0.69 | 96 | 1013.8 |
| 20260902030521 | 21 | 132 | 0.0 | 0.0 | 0.00 | 0.69 | 0.69 | 96 | 1014.0 |
| 20260902030509 | 21 | 132 | 0.0 | 1.6 | 0.00 | 0.69 | 0.69 | 96 | 1013.8 |
| 20260902030409 | 21 | 132 | 0.0 | 1.6 | 0.00 | 0.69 | 0.69 | 96 | 1013.8 |
| 20260902030308 | 21 | 132 | 0.0 | 1.6 | 0.00 | 0.69 | 0.69 | 96 | 1013.8 |
| 20260902030209 | 21 | 132 | 0.0 | 1.6 | 0.00 | 0.69 | 0.69 | 96 | 1013.8 |
| 20260902030108 | 21 | 132 | 0.0 | 1.6 | 0.00 | 0.69 | 0.69 | 96 | 1013.9 |
| 20260902030020 | 21 | 132 | 0.0 | 1.6 | 0.00 | 0.69 | 0.69 | 96 | 1014.1 |
| 20260902030009 | 21 | 132 | 0.0 | 1.6 | 0.00 | 0.69 | 0.69 | 96 | 1013.9 |
| 20260902025905 | 21 | 132 | 0.0 | 1.6 | 0.00 | 0.69 | 0.69 | 96 | 1013.9 |
| 20260902025805 | 21 | 132 | 0.0 | 1.6 | 0.00 | 0.69 | 0.69 | 96 | 1013.9 |
| 20260902025710 | 21 | 132 | 0.0 | 1.6 | 0.00 | 0.69 | 0.69 | 96 | 1013.9 |
| 20260902025704 | 21 | 132 | 0.0 | 1.6 | 0.00 | 0.69 | 0.69 | 96 | 1013.8 |
| 20260902025603 | 21 | 132 | 0.0 | 1.6 | 0.00 | 0.69 | 0.69 | 96 | 1013.7 |
| 20260902025521 | 21 | 132 | 0.0 | 1.6 | 0.00 | 0.69 | 0.69 | 96 | 1013.8 |
| 20260902025503 | 21 | 132 | 0.0 | 1.6 | 0.00 | 0.69 | 0.69 | 96 | 1013.6 |
| 20260902025436 | 21 | 132 | 0.0 | 1.6 | 0.00 | 0.69 | 0.69 | 96 | 1013.5 |
| 20260902025402 | 21 | 132 | 0.0 | 1.6 | 0.00 | 0.69 | 0.69 | 96 | 1013.7 |
| 20260902025331 | 21 | 132 | 0.0 | 1.6 | 0.00 | 0.69 | 0.69 | 96 | 1013.4 |
| 20260902025325 | 21 | 132 | 0.0 | 1.6 | 0.00 | 0.69 | 0.69 | 96 | 1013.5 |
| 20260902025211 | 21 | 132 | 0.0 | 1.6 | 0.00 | 0.69 | 0.69 | 96 | 1013.5 |
| 20260902025028 | 21 | 132 | 0.0 | 1.6 | 0.00 | 0.69 | 0.69 | 96 | 1013.3 |
| 20260902025023 | 21 | 132 | 0.0 | 1.6 | 0.00 | 0.69 | 0.69 | 96 | 1013.3 |
| 20260902025021 | 21 | 132 | 0.0 | 1.6 | 0.00 | 0.69 | 0.69 | 96 | 1013.4 |
| 20260902025018 | 21 | 132 | 0.0 | 1.6 | 0.00 | 0.69 | 0.69 | 96 | 1013.3 |
| 20260902024709 | 21 | 132 | 0.0 | 1.6 | 0.00 | 0.69 | 0.69 | 96 | 1013.3 |
| 20260902024700 | 21 | 132 | 0.0 | 1.6 | 0.00 | 0.69 | 0.69 | 96 | 1013.3 |
| 20260902024559 | 21 | 132 | 0.0 | 1.6 | 0.00 | 0.69 | 0.69 | 96 | 1013.2 |
| 20260902024521 | 21 | 132 | 1.6 | 1.6 | 0.00 | 0.69 | 0.69 | 96 | 1013.4 |
| 20260902024459 | 21 | 132 | 0.0 | 1.6 | 0.00 | 0.69 | 0.69 | 96 | 1013.3 |
| 20260902024358 | 21 | 132 | 0.0 | 1.6 | 0.00 | 0.69 | 0.69 | 96 | 1013.2 |
| 20260902024257 | 21 | 132 | 0.0 | 1.6 | 0.00 | 0.69 | 0.69 | 95 | 1013.3 |
| 20260902024230 | 21 | 132 | 0.0 | 0.0 | 0.00 | 0.69 | 0.69 | 95 | 1013.2 |
| 20260902024226 | 21 | 132 | 0.0 | 0.0 | 0.00 | 0.69 | 0.69 | 95 | 1013.2 |
| 20260902024221 | 21 | 132 | 0.0 | 0.0 | 0.00 | 0.69 | 0.69 | 95 | 1013.2 |
| 20260902024215 | 21 | 132 | 0.0 | 0.0 | 0.00 | 0.69 | 0.69 | 95 | 1013.2 |
| 20260902024021 | 21 | 132 | 0.0 | 0.0 | 0.00 | 0.69 | 0.69 | 95 | 1013.3 |
| 20260902023855 | 21 | 132 | 0.0 | 0.0 | 0.00 | 0.69 | 0.69 | 95 | 1013.2 |
| 20260902023755 | 21 | 132 | 0.0 | 0.0 | 0.00 | 0.69 | 0.69 | 95 | 1013.2 |
| 20260902023705 | 21 | 132 | 0.0 | 0.0 | 0.00 | 0.69 | 0.69 | 95 | 1013.2 |
| 20260902023655 | 21 | 131 | 0.0 | 0.0 | 0.00 | 0.69 | 0.69 | 95 | 1013.1 |
| 20260902023553 | 21 | 132 | 0.0 | 3.2 | 0.00 | 0.69 | 0.69 | 95 | 1013.1 |
| 20260902023521 | 21 | 132 | 0.0 | 3.2 | 0.00 | 0.69 | 0.69 | 95 | 1013.2 |
| 20260902023451 | 21 | 132 | 0.0 | 3.2 | 0.00 | 0.69 | 0.69 | 95 | 1013.1 |
| 20260902023404 | 21 | 132 | 0.0 | 3.2 | 0.00 | 0.69 | 0.69 | 95 | 1013.0 |
| 20260902023400 | 21 | 132 | 0.0 | 3.2 | 0.00 | 0.69 | 0.69 | 95 | 1013.0 |
| 20260902023206 | 21 | 132 | 0.0 | 3.2 | 0.00 | 0.69 | 0.69 | 95 | 1013.0 |
| 20260902023150 | 21 | 132 | 0.0 | 3.2 | 0.00 | 0.69 | 0.69 | 95 | 1013.0 |
| 20260902023050 | 21 | 132 | 0.0 | 3.2 | 0.00 | 0.69 | 0.69 | 95 | 1013.0 |
| 20260902023020 | 21 | 132 | 0.0 | 3.2 | 0.00 | 0.69 | 0.69 | 95 | 1013.1 |
| 20260902022950 | 21 | 132 | 0.0 | 3.2 | 0.00 | 0.69 | 0.69 | 95 | 1013.0 |
| 20260902022848 | 21 | 132 | 0.0 | 3.2 | 0.00 | 0.69 | 0.69 | 95 | 1013.0 |
| 20260902022748 | 21 | 132 | 0.0 | 3.2 | 0.00 | 0.69 | 0.69 | 95 | 1013.0 |
| 20260902022706 | 21 | 132 | 0.0 | 3.2 | 0.00 | 0.69 | 0.69 | 95 | 1013.0 |
| 20260902022648 | 21 | 132 | 0.0 | 3.2 | 0.00 | 0.69 | 0.69 | 95 | 1013.0 |
| 20260902022558 | 21 | 132 | 0.0 | 3.2 | 0.00 | 0.69 | 0.69 | 95 | 1013.3 |
| 20260902022554 | 21 | 132 | 0.0 | 3.2 | 0.00 | 0.69 | 0.69 | 95 | 1013.2 |
| 20260902022520 | 21 | 132 | 0.0 | 3.2 | 0.00 | 0.69 | 0.69 | 95 | 1013.4 |
| 20260902022427 | 21 | 132 | 0.0 | 3.2 | 0.00 | 0.69 | 0.69 | 95 | 1013.4 |
| 20260902022343 | 21 | 132 | 0.0 | 3.2 | 0.00 | 0.69 | 0.69 | 95 | 1013.4 |
| 20260902022315 | 21 | 131 | 0.0 | 3.2 | 0.00 | 0.69 | 0.69 | 95 | 1013.4 |
| 20260902022143 | 21 | 132 | 0.0 | 3.2 | 0.00 | 0.69 | 0.69 | 95 | 1013.5 |
| 20260902022043 | 21 | 132 | 0.0 | 3.2 | 0.00 | 0.69 | 0.69 | 95 | 1013.5 |
| 20260902022021 | 21 | 132 | 0.0 | 3.2 | 0.00 | 0.69 | 0.69 | 95 | 1013.7 |
| 20260902021943 | 21 | 132 | 0.0 | 3.2 | 0.00 | 0.69 | 0.69 | 95 | 1013.6 |
| 20260902021843 | 21 | 132 | 0.0 | 3.2 | 0.00 | 0.69 | 0.69 | 95 | 1013.6 |
| 20260902021822 | 21 | 132 | 0.0 | 3.2 | 0.00 | 0.69 | 0.69 | 95 | 1013.6 |
| 20260902021807 | 21 | 132 | 0.0 | 3.2 | 0.00 | 0.69 | 0.69 | 95 | 1013.6 |
| 20260902021548 | 21 | 132 | 0.0 | 3.2 | 0.00 | 0.69 | 0.69 | 95 | 1013.5 |
| 20260902021521 | 21 | 132 | 0.0 | 3.2 | 0.00 | 0.69 | 0.69 | 95 | 1013.6 |
| 20260902021339 | 21 | 132 | 0.0 | 6.4 | 0.00 | 0.69 | 0.69 | 95 | 1013.4 |
| 20260902021238 | 21 | 128 | 0.0 | 6.4 | 0.00 | 0.69 | 0.69 | 95 | 1013.5 |
| 20260902021206 | 21 | 126 | 0.0 | 6.4 | 0.00 | 0.69 | 0.69 | 95 | 1013.5 |
| 20260902021137 | 21 | 126 | 0.0 | 6.4 | 0.00 | 0.69 | 0.69 | 95 | 1013.5 |
| 20260902021037 | 21 | 108 | 1.6 | 6.4 | 0.00 | 0.69 | 0.69 | 95 | 1013.4 |
| 20260902021021 | 21 | 108 | 0.0 | 4.8 | 0.00 | 0.69 | 0.69 | 95 | 1013.5 |
| 20260902020935 | 21 | 108 | 1.6 | 6.4 | 0.00 | 0.69 | 0.69 | 95 | 1013.4 |
| 20260902020835 | 21 | 108 | 1.6 | 6.4 | 0.00 | 0.69 | 0.69 | 95 | 1013.4 |
| 20260902020705 | 21 | 108 | 1.6 | 6.4 | 0.00 | 0.69 | 0.69 | 95 | 1013.3 |
| 20260902020633 | 21 | 108 | 1.6 | 6.4 | 0.00 | 0.69 | 0.69 | 95 | 1013.3 |
| 20260902020533 | 21 | 139 | 1.6 | 6.4 | 0.00 | 0.69 | 0.69 | 95 | 1013.2 |
| 20260902020521 | 21 | 140 | 1.6 | 4.8 | 0.00 | 0.69 | 0.69 | 95 | 1013.3 |
| 20260902020431 | 21 | 90 | 1.6 | 6.4 | 0.00 | 0.69 | 0.69 | 95 | 1013.2 |
| 20260902020344 | 21 | 59 | 1.6 | 6.4 | 0.00 | 0.69 | 0.69 | 95 | 1013.2 |
| 20260902020340 | 21 | 61 | 1.6 | 6.4 | 0.00 | 0.69 | 0.69 | 95 | 1013.2 |
| 20260902020206 | 21 | 121 | 1.6 | 6.4 | 0.00 | 0.69 | 0.69 | 95 | 1013.2 |
| 20260902020155 | 21 | 84 | 1.6 | 6.4 | 0.00 | 0.69 | 0.69 | 95 | 1013.1 |
| 20260902020150 | 21 | 111 | 1.6 | 6.4 | 0.00 | 0.69 | 0.69 | 95 | 1013.0 |
| 20260902020146 | 21 | 102 | 1.6 | 6.4 | 0.00 | 0.69 | 0.69 | 95 | 1013.1 |
| 20260902020021 | 21 | 92 | 3.2 | 6.4 | 0.00 | 0.69 | 0.69 | 95 | 1013.1 |
| 20260902015840 | 21 | 79 | 1.6 | 6.4 | 0.00 | 0.69 | 0.69 | 95 | 1013.0 |
| 20260902015836 | 21 | 100 | 1.6 | 6.4 | 0.00 | 0.69 | 0.69 | 95 | 1013.0 |
| 20260902015705 | 21 | 80 | 1.6 | 6.4 | 0.00 | 0.69 | 0.69 | 95 | 1013.1 |
| 20260902015627 | 21 | 58 | 1.6 | 6.4 | 0.00 | 0.69 | 0.69 | 95 | 1013.1 |
| 20260902015526 | 21 | 90 | 1.6 | 6.4 | 0.00 | 0.69 | 0.69 | 95 | 1013.1 |
| 20260902015521 | 21 | 90 | 3.2 | 6.4 | 0.00 | 0.69 | 0.69 | 95 | 1013.2 |
| 20260902015426 | 21 | 71 | 1.6 | 6.4 | 0.00 | 0.69 | 0.69 | 95 | 1013.1 |
| 20260902015324 | 21 | 107 | 1.6 | 4.8 | 0.00 | 0.69 | 0.69 | 95 | 1013.1 |
| 20260902015224 | 21 | 126 | 0.0 | 4.8 | 0.00 | 0.69 | 0.69 | 95 | 1013.1 |
| 20260902015204 | 21 | 107 | 0.0 | 4.8 | 0.00 | 0.69 | 0.69 | 95 | 1013.1 |
| 20260902015124 | 21 | 107 | 0.0 | 4.8 | 0.00 | 0.69 | 0.69 | 95 | 1013.1 |
| 20260902015023 | 21 | 101 | 0.0 | 4.8 | 0.00 | 0.69 | 0.69 | 95 | 1013.1 |
| 20260902015021 | 21 | 98 | 4.8 | 4.8 | 0.00 | 0.69 | 0.69 | 95 | 1013.2 |
| 20260902014923 | 21 | 204 | 0.0 | 3.2 | 0.00 | 0.69 | 0.69 | 95 | 1013.1 |
| 20260902014823 | 21 | 205 | 0.0 | 1.6 | 0.00 | 0.69 | 0.69 | 95 | 1013.1 |
| 20260902014703 | 21 | 225 | 0.0 | 1.6 | 0.00 | 0.69 | 0.69 | 95 | 1013.0 |
| 20260902014622 | 21 | 225 | 0.0 | 1.6 | 0.00 | 0.69 | 0.69 | 95 | 1013.0 |
| 20260902014522 | 21 | 225 | 0.0 | 0.0 | 0.00 | 0.69 | 0.69 | 95 | 1013.0 |
| 20260902014421 | 21 | 225 | 0.0 | 0.0 | 0.00 | 0.69 | 0.69 | 95 | 1012.9 |
| 20260902014320 | 21 | 225 | 0.0 | 0.0 | 0.00 | 0.69 | 0.69 | 95 | 1013.0 |
| 20260902014253 | 21 | 225 | 0.0 | 0.0 | 0.00 | 0.69 | 0.69 | 95 | 1012.9 |
| 20260902014248 | 21 | 225 | 0.0 | 0.0 | 0.00 | 0.69 | 0.69 | 95 | 1012.9 |
| 20260902014235 | 21 | 225 | 0.0 | 0.0 | 0.00 | 0.69 | 0.69 | 95 | 1012.9 |
| 20260902014036 | 21 | 225 | 0.0 | 0.0 | 0.00 | 0.69 | 0.69 | 95 | 1012.9 |
| 20260902013918 | 21 | 225 | 0.0 | 0.0 | 0.00 | 0.69 | 0.69 | 95 | 1012.8 |
| 20260902013831 | 21 | 225 | 0.0 | 0.0 | 0.00 | 0.69 | 0.69 | 95 | 1012.6 |
| 20260902013826 | 21 | 225 | 0.0 | 0.0 | 0.00 | 0.69 | 0.69 | 95 | 1012.7 |
| 20260902013700 | 21 | 225 | 0.0 | 0.0 | 0.00 | 0.69 | 0.69 | 95 | 1012.6 |
| 20260902013617 | 21 | 225 | 0.0 | 0.0 | 0.00 | 0.69 | 0.69 | 95 | 1012.6 |
| 20260902013529 | 21 | 225 | 0.0 | 0.0 | 0.00 | 0.69 | 0.69 | 95 | 1012.3 |
| 20260902013525 | 21 | 225 | 0.0 | 0.0 | 0.00 | 0.69 | 0.69 | 95 | 1012.4 |
| 20260902013521 | 21 | 225 | 0.0 | 0.0 | 0.00 | 0.69 | 0.69 | 95 | 1012.4 |
| 20260902013316 | 21 | 225 | 0.0 | 0.0 | 0.00 | 0.69 | 0.69 | 95 | 1012.2 |
| 20260902013215 | 21 | 225 | 0.0 | 0.0 | 0.00 | 0.69 | 0.69 | 95 | 1012.2 |
| 20260902013159 | 21 | 225 | 0.0 | 0.0 | 0.00 | 0.69 | 0.69 | 95 | 1012.2 |
| 20260902013115 | 21 | 225 | 0.0 | 0.0 | 0.00 | 0.69 | 0.69 | 94 | 1012.2 |
| 20260902013021 | 21 | 225 | 0.0 | 0.0 | 0.00 | 0.69 | 0.69 | 95 | 1012.1 |
| 20260902013014 | 21 | 225 | 0.0 | 0.0 | 0.00 | 0.69 | 0.69 | 95 | 1012.1 |
| 20260902012958 | 21 | 225 | 0.0 | 0.0 | 0.00 | 0.69 | 0.69 | 95 | 1011.7 |
| 20260902012954 | 21 | 225 | 0.0 | 0.0 | 0.00 | 0.69 | 0.69 | 95 | 1011.6 |
| 20260902012950 | 21 | 225 | 0.0 | 0.0 | 0.03 | 0.69 | 0.69 | 95 | 1011.6 |
| 20260902012945 | 21 | 225 | 0.0 | 0.0 | 0.00 | 0.69 | 0.69 | 94 | 1012.0 |
| 20260902012935 | 21 | 225 | 0.0 | 0.0 | 0.00 | 0.69 | 0.69 | 95 | 1011.8 |
| 20260902012521 | 21 | 225 | 0.0 | 0.0 | 0.03 | 0.69 | 0.69 | 94 | 1011.6 |
| 20260902012511 | 21 | 225 | 0.0 | 0.0 | 0.03 | 0.69 | 0.69 | 94 | 1011.6 |
| 20260902012411 | 21 | 225 | 0.0 | 0.0 | 0.05 | 0.69 | 0.69 | 94 | 1011.5 |
| 20260902012310 | 21 | 225 | 0.0 | 0.0 | 0.05 | 0.69 | 0.69 | 94 | 1011.4 |
| 20260902012210 | 21 | 225 | 0.0 | 0.0 | 0.10 | 0.69 | 0.69 | 94 | 1011.3 |
| 20260902012158 | 21 | 225 | 0.0 | 0.0 | 0.10 | 0.69 | 0.69 | 94 | 1011.3 |
| 20260902012120 | 21 | 225 | 0.0 | 0.0 | 0.20 | 0.69 | 0.69 | 94 | 1011.3 |
| 20260902012115 | 21 | 225 | 0.0 | 0.0 | 0.15 | 0.69 | 0.69 | 94 | 1011.3 |
| 20260902012021 | 21 | 225 | 0.0 | 0.0 | 0.18 | 0.69 | 0.69 | 94 | 1011.4 |
| 20260902011916 | 21 | 225 | 0.0 | 0.0 | 0.36 | 0.69 | 0.69 | 95 | 1011.5 |
| 20260902011907 | 21 | 225 | 0.0 | 0.0 | 0.25 | 0.69 | 0.69 | 94 | 1011.4 |
| 20260902011815 | 21 | 225 | 0.0 | 0.0 | 0.30 | 0.69 | 0.69 | 94 | 1011.5 |
| 20260902011806 | 21 | 225 | 0.0 | 0.0 | 0.36 | 0.69 | 0.69 | 95 | 1011.5 |
| 20260902011605 | 21 | 225 | 0.0 | 0.0 | 0.38 | 0.69 | 0.69 | 94 | 1011.5 |
| 20260902011536 | 22 | 225 | 0.0 | 0.0 | 0.38 | 0.69 | 0.69 | 94 | 1011.6 |
| 20260902011505 | 21 | 225 | 0.0 | 0.0 | 0.41 | 0.69 | 0.69 | 94 | 1011.5 |
| 20260902011405 | 21 | 225 | 0.0 | 0.0 | 0.46 | 0.69 | 0.69 | 94 | 1011.5 |
| 20260902011304 | 21 | 225 | 0.0 | 0.0 | 0.46 | 0.69 | 0.69 | 94 | 1011.5 |
| 20260902011157 | 21 | 225 | 0.0 | 0.0 | 0.48 | 0.69 | 0.69 | 94 | 1011.4 |
| 20260902011103 | 21 | 225 | 0.0 | 0.0 | 0.51 | 0.69 | 0.69 | 94 | 1011.4 |
| 20260902011036 | 22 | 225 | 0.0 | 0.0 | 0.51 | 0.69 | 0.69 | 94 | 1011.5 |
| 20260902011004 | 22 | 225 | 0.0 | 0.0 | 0.51 | 0.69 | 0.69 | 94 | 1011.4 |
| 20260902010903 | 22 | 225 | 0.0 | 0.0 | 0.56 | 0.69 | 0.69 | 94 | 1011.5 |
| 20260902010801 | 22 | 225 | 0.0 | 3.2 | 0.58 | 0.69 | 0.69 | 94 | 1011.5 |
| 20260902010655 | 22 | 225 | 0.0 | 3.2 | 0.61 | 0.69 | 0.69 | 94 | 1011.5 |
| 20260902010600 | 22 | 225 | 0.0 | 3.2 | 0.61 | 0.69 | 0.69 | 94 | 1011.4 |
| 20260902010521 | 22 | 225 | 0.0 | 3.2 | 0.61 | 0.69 | 0.69 | 94 | 1011.6 |
| 20260902010458 | 22 | 225 | 0.0 | 3.2 | 0.61 | 0.69 | 0.69 | 94 | 1011.5 |
| 20260902010411 | 22 | 225 | 1.6 | 4.8 | 0.64 | 0.69 | 0.69 | 94 | 1011.7 |
| 20260902010407 | 22 | 225 | 0.0 | 4.8 | 0.64 | 0.69 | 0.69 | 94 | 1011.6 |
| 20260902010158 | 22 | 225 | 1.6 | 4.8 | 0.64 | 0.69 | 0.69 | 94 | 1011.7 |
| 20260902010056 | 22 | 225 | 1.6 | 6.4 | 0.66 | 0.69 | 0.69 | 94 | 1011.8 |
| 20260902010036 | 22 | 225 | 0.0 | 6.4 | 0.66 | 0.69 | 0.69 | 94 | 1012.0 |
| 20260902005955 | 22 | 225 | 1.6 | 6.4 | 0.66 | 0.69 | 0.69 | 94 | 1011.9 |
| 20260902005853 | 22 | 225 | 1.6 | 6.4 | 0.66 | 0.69 | 0.69 | 94 | 1011.8 |
| 20260902005753 | 22 | 204 | 1.6 | 6.4 | 0.66 | 0.69 | 0.69 | 94 | 1011.6 |
| 20260902005652 | 22 | 204 | 1.6 | 6.4 | 0.66 | 0.69 | 0.69 | 93 | 1011.5 |
| 20260902005551 | 22 | 204 | 1.6 | 6.4 | 0.66 | 0.69 | 0.69 | 93 | 1011.5 |
| 20260902005521 | 22 | 204 | 1.6 | 6.4 | 0.66 | 0.69 | 0.69 | 93 | 1011.7 |
| 20260902005451 | 22 | 204 | 1.6 | 6.4 | 0.66 | 0.69 | 0.69 | 93 | 1011.7 |
| 20260902005350 | 22 | 204 | 1.6 | 6.4 | 0.66 | 0.69 | 0.69 | 93 | 1011.7 |
| 20260902005250 | 22 | 204 | 0.0 | 6.4 | 0.66 | 0.69 | 0.69 | 93 | 1011.9 |
| 20260902005149 | 22 | 203 | 0.0 | 6.4 | 0.66 | 0.69 | 0.69 | 93 | 1011.9 |
| 20260902005048 | 22 | 172 | 0.0 | 3.2 | 0.66 | 0.69 | 0.69 | 93 | 1012.0 |
| 20260902005021 | 22 | 172 | 0.0 | 3.2 | 0.66 | 0.69 | 0.69 | 93 | 1011.9 |
| 20260902004948 | 22 | 172 | 1.6 | 3.2 | 0.66 | 0.69 | 0.69 | 93 | 1011.9 |
| 20260902004848 | 22 | 120 | 1.6 | 4.8 | 0.66 | 0.69 | 0.69 | 93 | 1011.9 |
| 20260902004748 | 22 | 109 | 1.6 | 4.8 | 0.66 | 0.69 | 0.69 | 93 | 1011.9 |
| 20260902004647 | 22 | 109 | 1.6 | 4.8 | 0.66 | 0.69 | 0.69 | 93 | 1011.8 |
| 20260902004546 | 22 | 109 | 1.6 | 4.8 | 0.66 | 0.69 | 0.69 | 93 | 1011.6 |
| 20260902004520 | 22 | 109 | 1.6 | 4.8 | 0.66 | 0.69 | 0.69 | 93 | 1011.3 |
| 20260902004456 | 22 | 109 | 1.6 | 4.8 | 0.66 | 0.69 | 0.69 | 93 | 1011.2 |
| 20260902004452 | 22 | 109 | 1.6 | 4.8 | 0.66 | 0.69 | 0.69 | 93 | 1011.3 |
| 20260902004242 | 22 | 109 | 1.6 | 4.8 | 0.66 | 0.69 | 0.69 | 93 | 1011.0 |
| 20260902004142 | 22 | 109 | 1.6 | 4.8 | 0.66 | 0.69 | 0.69 | 92 | 1010.9 |
| 20260902004041 | 22 | 109 | 1.6 | 4.8 | 0.66 | 0.69 | 0.69 | 92 | 1010.8 |
| 20260902004035 | 22 | 243 | 3.2 | 4.8 | 0.66 | 0.69 | 0.69 | 92 | 1010.7 |
| 20260902003941 | 22 | 243 | 1.6 | 4.8 | 0.66 | 0.69 | 0.69 | 92 | 1010.7 |
| 20260902003852 | 22 | 242 | 1.6 | 4.8 | 0.66 | 0.69 | 0.69 | 92 | 1010.4 |
| 20260902003848 | 22 | 242 | 1.6 | 4.8 | 0.66 | 0.69 | 0.69 | 92 | 1010.6 |
| 20260902003656 | 22 | 242 | 1.6 | 4.8 | 0.66 | 0.69 | 0.69 | 92 | 1010.4 |
| 20260902003646 | 22 | 242 | 1.6 | 4.8 | 0.66 | 0.69 | 0.69 | 92 | 1010.3 |
| 20260902003521 | 22 | 242 | 0.0 | 4.8 | 0.66 | 0.69 | 0.69 | 92 | 1010.4 |
| 20260902003435 | 22 | 242 | 1.6 | 4.8 | 0.66 | 0.69 | 0.69 | 92 | 1010.4 |
| 20260902003335 | 22 | 242 | 1.6 | 4.8 | 0.66 | 0.69 | 0.69 | 92 | 1010.4 |
| 20260902003235 | 22 | 242 | 1.6 | 4.8 | 0.66 | 0.69 | 0.69 | 92 | 1010.5 |
| 20260902003152 | 22 | 242 | 0.0 | 4.8 | 0.66 | 0.69 | 0.69 | 91 | 1010.7 |
| 20260902003149 | 22 | 242 | 0.0 | 4.8 | 0.66 | 0.69 | 0.69 | 92 | 1010.7 |
| 20260902003142 | 22 | 242 | 0.0 | 4.8 | 0.66 | 0.69 | 0.69 | 91 | 1010.7 |
| 20260902003021 | 22 | 242 | 1.6 | 4.8 | 0.66 | 0.69 | 0.69 | 91 | 1010.9 |
| 20260902002933 | 22 | 242 | 0.0 | 4.8 | 0.66 | 0.69 | 0.69 | 91 | 1010.9 |
| 20260902002831 | 22 | 243 | 0.0 | 4.8 | 0.66 | 0.69 | 0.69 | 91 | 1011.0 |
| 20260902002745 | 22 | 241 | 0.0 | 3.2 | 0.66 | 0.69 | 0.69 | 91 | 1011.0 |
| 20260902002736 | 22 | 232 | 0.0 | 0.0 | 0.64 | 0.66 | 0.69 | 90 | 1011.1 |
| 20260902002544 | 22 | 227 | 0.0 | 0.0 | 0.64 | 0.66 | 0.66 | 90 | 1011.1 |
| 20260902002540 | 22 | 229 | 0.0 | 0.0 | 0.64 | 0.66 | 0.66 | 90 | 1011.1 |
| 20260902002521 | 22 | 227 | 0.0 | 0.0 | 0.64 | 0.66 | 0.66 | 90 | 1011.1 |
| 20260902002329 | 23 | 227 | 0.0 | 0.0 | 0.61 | 0.64 | 0.64 | 90 | 1011.2 |
| 20260902002229 | 23 | 244 | 0.0 | 0.0 | 0.56 | 0.58 | 0.61 | 89 | 1011.3 |
| 20260902002145 | 23 | 244 | 0.0 | 0.0 | 0.51 | 0.53 | 0.58 | 89 | 1011.4 |
| 20260902002129 | 23 | 244 | 0.0 | 0.0 | 0.51 | 0.53 | 0.56 | 89 | 1011.4 |
| 20260902002039 | 23 | 288 | 0.0 | 0.0 | 0.41 | 0.43 | 0.48 | 89 | 1011.6 |
| 20260902002035 | 23 | 244 | 0.0 | 0.0 | 0.46 | 0.48 | 0.53 | 89 | 1011.6 |
| 20260902002022 | 23 | 244 | 0.0 | 0.0 | 0.48 | 0.51 | 0.51 | 89 | 1011.7 |
| 20260902001825 | 23 | 270 | 0.0 | 0.0 | 0.36 | 0.38 | 0.41 | 88 | 1011.7 |
| 20260902001725 | 23 | 252 | 0.0 | 0.0 | 0.30 | 0.33 | 0.38 | 88 | 1011.7 |
| 20260902001644 | 23 | 275 | 0.0 | 0.0 | 0.30 | 0.33 | 0.33 | 87 | 1011.6 |
| 20260902001637 | 23 | 210 | 0.0 | 0.0 | 0.25 | 0.28 | 0.30 | 87 | 1011.7 |
| 20260902001633 | 23 | 261 | 0.0 | 0.0 | 0.28 | 0.30 | 0.33 | 87 | 1011.6 |
| 20260902001551 | 23 | 273 | 0.0 | 0.0 | 0.28 | 0.30 | 0.30 | 86 | 1011.8 |
| 20260902001436 | 24 | 286 | 0.0 | 0.0 | 0.20 | 0.23 | 0.25 | 85 | 1011.7 |
| 20260902001432 | 23 | 277 | 0.0 | 0.0 | 0.20 | 0.23 | 0.25 | 86 | 1011.7 |
| 20260902001222 | 24 | 245 | 0.0 | 0.0 | 0.18 | 0.20 | 0.23 | 84 | 1011.8 |
| 20260902001145 | 24 | 277 | 0.0 | 0.0 | 0.18 | 0.20 | 0.20 | 84 | 1011.8 |
| 20260902001121 | 24 | 272 | 0.0 | 0.0 | 0.15 | 0.18 | 0.20 | 84 | 1011.8 |
| 20260902001047 | 25 | 249 | 0.0 | 0.0 | 0.10 | 0.13 | 0.15 | 84 | 1011.9 |
| 20260902001042 | 25 | 317 | 0.0 | 0.0 | 0.08 | 0.10 | 0.13 | 83 | 1011.8 |
| 20260902001037 | 25 | 310 | 0.0 | 0.0 | 0.15 | 0.18 | 0.18 | 84 | 1011.9 |
| 20260902001021 | 25 | 290 | 0.0 | 0.0 | 0.15 | 0.18 | 0.18 | 83 | 1011.9 |
| 20260902000719 | 25 | 223 | 0.0 | 0.0 | 0.05 | 0.08 | 0.10 | 83 | 1011.8 |
| 20260902000645 | 25 | 276 | 0.0 | 0.0 | 0.05 | 0.08 | 0.08 | 82 | 1011.9 |
| 20260902000618 | 25 | 244 | 0.0 | 0.0 | 0.05 | 0.08 | 0.08 | 82 | 1011.9 |
| 20260902000521 | 26 | 261 | 0.0 | 0.0 | 0.05 | 0.08 | 0.08 | 82 | 1011.9 |
| 20260902000518 | 26 | 314 | 0.0 | 0.0 | 0.05 | 0.08 | 0.08 | 82 | 1011.9 |
| 20260902000418 | 26 | 271 | 0.0 | 0.0 | 0.03 | 0.05 | 0.08 | 82 | 1011.9 |
| 20260902000409 | 27 | 298 | 0.0 | 0.0 | 0.03 | 0.05 | 0.05 | 86 | 1011.8 |
| 20260902000316 | 26 | 308 | 0.0 | 0.0 | 0.03 | 0.05 | 0.05 | 84 | 1011.9 |
| 20260902000252 | 27 | 293 | 0.0 | 0.0 | 0.03 | 0.05 | 0.05 | 86 | 1012.0 |
| 20260902000129 | 27 | 296 | 0.0 | 0.0 | 0.00 | 0.03 | 0.03 | 88 | 1011.6 |
| 20260902000125 | 27 | 287 | 0.0 | 0.0 | 0.00 | 0.03 | 0.05 | 87 | 1011.8 |
| 20260902000021 | 27 | 317 | 0.0 | 0.0 | 0.00 | 0.03 | 0.03 | 88 | 1011.4 |
| 20260901235916 | 27 | 279 | 0.0 | 0.0 | 0.00 | 0.03 | 0.03 | 89 | 1011.4 |
| 20260901235815 | 27 | 261 | 0.0 | 0.0 | 0.00 | 0.03 | 0.03 | 88 | 1011.3 |
| 20260901235756 | 27 | 219 | 0.0 | 0.0 | 0.00 | 0.03 | 0.03 | 88 | 1010.7 |
| 20260901235751 | 27 | 219 | 0.0 | 0.0 | 0.00 | 0.03 | 0.03 | 88 | 1010.6 |
| 20260901235746 | 27 | 219 | 0.0 | 0.0 | 0.00 | 0.03 | 0.03 | 88 | 1010.9 |
| 20260901235738 | 27 | 219 | 0.0 | 0.0 | 0.00 | 0.03 | 0.03 | 88 | 1010.7 |
| 20260901235520 | 27 | 219 | 0.0 | 0.0 | 0.00 | 0.03 | 0.03 | 88 | 1010.6 |
| 20260901235325 | 27 | 218 | 0.0 | 0.0 | 0.00 | 0.03 | 0.03 | 87 | 1010.6 |
| 20260901235321 | 27 | 218 | 0.0 | 0.0 | 0.00 | 0.03 | 0.03 | 88 | 1010.6 |
| 20260901235112 | 27 | 218 | 0.0 | 0.0 | 0.00 | 0.03 | 0.03 | 87 | 1010.6 |
| 20260901235021 | 27 | 218 | 0.0 | 0.0 | 0.00 | 0.03 | 0.03 | 87 | 1010.5 |
| 20260901235011 | 27 | 218 | 0.0 | 0.0 | 0.00 | 0.03 | 0.03 | 87 | 1010.6 |
| 20260901234911 | 27 | 218 | 0.0 | 0.0 | 0.00 | 0.03 | 0.03 | 87 | 1010.5 |
| 20260901234709 | 27 | 218 | 0.0 | 0.0 | 0.00 | 0.03 | 0.03 | 87 | 1010.4 |
| 20260901234641 | 27 | 219 | 0.0 | 0.0 | 0.00 | 0.03 | 0.03 | 87 | 1010.5 |
| 20260901234608 | 27 | 218 | 0.0 | 0.0 | 0.00 | 0.03 | 0.03 | 87 | 1010.5 |
| 20260901234521 | 27 | 218 | 0.0 | 0.0 | 0.00 | 0.03 | 0.03 | 87 | 1010.4 |
| 20260901234508 | 27 | 218 | 0.0 | 0.0 | 0.00 | 0.03 | 0.03 | 87 | 1010.5 |
| 20260901234409 | 27 | 218 | 0.0 | 0.0 | 0.00 | 0.03 | 0.03 | 87 | 1010.4 |
| 20260901234307 | 27 | 218 | 0.0 | 0.0 | 0.00 | 0.03 | 0.03 | 86 | 1010.3 |
| 20260901234207 | 27 | 218 | 0.0 | 0.0 | 0.00 | 0.03 | 0.03 | 86 | 1010.2 |
| 20260901234142 | 27 | 218 | 0.0 | 0.0 | 0.00 | 0.03 | 0.03 | 86 | 1010.2 |
| 20260901234106 | 27 | 218 | 0.0 | 0.0 | 0.00 | 0.03 | 0.03 | 86 | 1010.3 |
| 20260901234021 | 27 | 218 | 0.0 | 0.0 | 0.00 | 0.03 | 0.03 | 86 | 1010.3 |
| 20260901234006 | 27 | 218 | 0.0 | 0.0 | 0.00 | 0.03 | 0.03 | 86 | 1010.3 |
| 20260901233947 | 27 | 218 | 0.0 | 0.0 | 0.00 | 0.03 | 0.03 | 86 | 1010.5 |
| 20260901233941 | 27 | 218 | 0.0 | 0.0 | 0.00 | 0.03 | 0.03 | 86 | 1010.4 |
| 20260901233719 | 27 | 218 | 0.0 | 0.0 | 0.00 | 0.03 | 0.03 | 86 | 1010.6 |
| 20260901233711 | 27 | 218 | 0.0 | 0.0 | 0.00 | 0.03 | 0.03 | 86 | 1010.6 |
| 20260901233521 | 27 | 218 | 0.0 | 0.0 | 0.00 | 0.03 | 0.03 | 85 | 1010.8 |
| 20260901233518 | 27 | 218 | 0.0 | 0.0 | 0.00 | 0.03 | 0.03 | 85 | 1010.8 |
| 20260901233514 | 27 | 218 | 0.0 | 0.0 | 0.00 | 0.03 | 0.03 | 85 | 1010.8 |
| 20260901233358 | 27 | 218 | 0.0 | 0.0 | 0.00 | 0.03 | 0.03 | 84 | 1010.9 |
| 20260901233304 | 27 | 218 | 0.0 | 0.0 | 0.00 | 0.03 | 0.03 | 85 | 1010.8 |
| 20260901233246 | 27 | 218 | 0.0 | 0.0 | 0.00 | 0.03 | 0.03 | 85 | 1010.8 |
| 20260901233103 | 27 | 218 | 0.0 | 0.0 | 0.00 | 0.03 | 0.03 | 84 | 1010.8 |
| 20260901233021 | 27 | 218 | 0.0 | 0.0 | 0.00 | 0.03 | 0.03 | 84 | 1010.7 |
| 20260901233003 | 27 | 218 | 0.0 | 0.0 | 0.00 | 0.03 | 0.03 | 84 | 1010.8 |
| 20260901232915 | 27 | 218 | 0.0 | 0.0 | 0.00 | 0.03 | 0.03 | 85 | 1010.6 |
| 20260901232911 | 27 | 218 | 0.0 | 0.0 | 0.00 | 0.03 | 0.03 | 85 | 1010.7 |
| 20260901232638 | 27 | 218 | 0.0 | 0.0 | 0.00 | 0.03 | 0.03 | 84 | 1010.6 |
| 20260901232601 | 27 | 218 | 0.0 | 0.0 | 0.00 | 0.03 | 0.03 | 84 | 1010.5 |
| 20260901232521 | 27 | 218 | 0.0 | 0.0 | 0.00 | 0.03 | 0.03 | 84 | 1010.4 |
| 20260901232500 | 27 | 218 | 0.0 | 0.0 | 0.00 | 0.03 | 0.03 | 84 | 1010.5 |
| 20260901232359 | 27 | 218 | 0.0 | 0.0 | 0.00 | 0.03 | 0.03 | 84 | 1010.5 |
| 20260901232300 | 27 | 218 | 0.0 | 0.0 | 0.00 | 0.03 | 0.03 | 84 | 1010.5 |
| 20260901232159 | 27 | 218 | 0.0 | 0.0 | 0.00 | 0.03 | 0.03 | 84 | 1010.5 |
| 20260901232138 | 28 | 218 | 0.0 | 0.0 | 0.00 | 0.03 | 0.03 | 84 | 1010.5 |
| 20260901232059 | 28 | 218 | 0.0 | 0.0 | 0.00 | 0.03 | 0.03 | 84 | 1010.5 |
| 20260901232021 | 28 | 218 | 0.0 | 0.0 | 0.00 | 0.03 | 0.03 | 83 | 1010.4 |
| 20260901231956 | 28 | 218 | 0.0 | 0.0 | 0.00 | 0.03 | 0.03 | 83 | 1010.5 |
| 20260901231855 | 28 | 218 | 0.0 | 0.0 | 0.00 | 0.03 | 0.03 | 83 | 1010.4 |
| 20260901231755 | 28 | 218 | 0.0 | 0.0 | 0.00 | 0.03 | 0.03 | 83 | 1010.4 |
| 20260901231712 | 28 | 218 | 0.0 | 0.0 | 0.00 | 0.03 | 0.03 | 83 | 1010.5 |
| 20260901231602 | 28 | 218 | 0.0 | 0.0 | 0.00 | 0.03 | 0.03 | 83 | 1010.5 |
| 20260901231521 | 28 | 218 | 0.0 | 0.0 | 0.00 | 0.03 | 0.03 | 83 | 1010.4 |
| 20260901231352 | 28 | 218 | 0.0 | 0.0 | 0.00 | 0.03 | 0.03 | 83 | 1010.5 |
| 20260901231251 | 28 | 218 | 0.0 | 0.0 | 0.00 | 0.03 | 0.03 | 83 | 1010.4 |
| 20260901231134 | 28 | 218 | 0.0 | 0.0 | 0.00 | 0.03 | 0.03 | 82 | 1010.5 |
| 20260901231050 | 28 | 218 | 0.0 | 0.0 | 0.00 | 0.03 | 0.03 | 82 | 1010.5 |
| 20260901231021 | 28 | 218 | 0.0 | 0.0 | 0.00 | 0.03 | 0.03 | 82 | 1010.4 |
| 20260901230950 | 28 | 218 | 0.0 | 0.0 | 0.00 | 0.03 | 0.03 | 82 | 1010.5 |
| 20260901230902 | 28 | 218 | 0.0 | 0.0 | 0.00 | 0.03 | 0.03 | 81 | 1010.7 |
| 20260901230858 | 28 | 218 | 0.0 | 0.0 | 0.00 | 0.03 | 0.03 | 81 | 1010.6 |
| 20260901230633 | 28 | 218 | 0.0 | 0.0 | 0.00 | 0.03 | 0.03 | 81 | 1010.7 |
| 20260901230548 | 28 | 218 | 0.0 | 0.0 | 0.00 | 0.03 | 0.03 | 81 | 1010.7 |
| 20260901230521 | 28 | 218 | 0.0 | 0.0 | 0.00 | 0.03 | 0.03 | 81 | 1010.6 |
| 20260901230509 | 28 | 218 | 0.0 | 0.0 | 0.00 | 0.03 | 0.03 | 81 | 1010.7 |
| 20260901230347 | 28 | 218 | 0.0 | 0.0 | 0.00 | 0.03 | 0.03 | 81 | 1010.8 |
| 20260901230250 | 28 | 218 | 0.0 | 0.0 | 0.00 | 0.03 | 0.03 | 80 | 1010.8 |
| 20260901230241 | 28 | 218 | 0.0 | 0.0 | 0.00 | 0.03 | 0.03 | 80 | 1010.8 |
| 20260901230046 | 28 | 218 | 0.0 | 0.0 | 0.00 | 0.03 | 0.03 | 80 | 1010.8 |
| 20260901230020 | 28 | 218 | 0.0 | 0.0 | 0.00 | 0.03 | 0.03 | 80 | 1010.6 |
| 20260901225946 | 28 | 218 | 0.0 | 0.0 | 0.00 | 0.03 | 0.03 | 80 | 1010.7 |
| 20260901225844 | 28 | 218 | 0.0 | 0.0 | 0.00 | 0.03 | 0.03 | 79 | 1010.6 |
| 20260901225820 | 28 | 218 | 0.0 | 0.0 | 0.00 | 0.03 | 0.03 | 80 | 1010.5 |
| 20260901225700 | 28 | 218 | 0.0 | 0.0 | 0.00 | 0.03 | 0.03 | 79 | 1010.3 |
| 20260901225652 | 29 | 218 | 0.0 | 0.0 | 0.00 | 0.03 | 0.03 | 79 | 1010.2 |
| 20260901225521 | 29 | 218 | 0.0 | 0.0 | 0.00 | 0.03 | 0.03 | 79 | 1010.0 |
| 20260901225341 | 29 | 218 | 0.0 | 0.0 | 0.00 | 0.03 | 0.03 | 79 | 1010.1 |
| 20260901225333 | 29 | 218 | 0.0 | 0.0 | 0.00 | 0.03 | 0.03 | 79 | 1010.4 |
| 20260901225326 | 29 | 218 | 0.0 | 0.0 | 0.00 | 0.03 | 0.03 | 79 | 1010.2 |
| 20260901225317 | 29 | 218 | 0.0 | 0.0 | 0.00 | 0.03 | 0.03 | 79 | 1010.3 |
| 20260901225021 | 29 | 218 | 0.0 | 0.0 | 0.00 | 0.03 | 0.03 | 79 | 1010.3 |
| 20260901224949 | 29 | 218 | 0.0 | 0.0 | 0.00 | 0.03 | 0.03 | 79 | 1010.4 |
| 20260901224739 | 29 | 218 | 0.0 | 0.0 | 0.00 | 0.03 | 0.03 | 78 | 1010.6 |
| 20260901224628 | 29 | 218 | 0.0 | 0.0 | 0.00 | 0.03 | 0.03 | 78 | 1010.6 |
| 20260901224537 | 30 | 218 | 0.0 | 0.0 | 0.00 | 0.03 | 0.03 | 78 | 1010.5 |
| 20260901224437 | 30 | 218 | 0.0 | 0.0 | 0.00 | 0.03 | 0.03 | 78 | 1010.5 |
| 20260901224337 | 30 | 218 | 0.0 | 0.0 | 0.00 | 0.03 | 0.03 | 77 | 1010.3 |
| 20260901224248 | 30 | 218 | 0.0 | 0.0 | 0.00 | 0.03 | 0.03 | 77 | 1010.0 |
| 20260901224244 | 30 | 218 | 0.0 | 0.0 | 0.00 | 0.03 | 0.03 | 77 | 1010.2 |
| 20260901224128 | 30 | 218 | 0.0 | 0.0 | 0.00 | 0.03 | 0.03 | 77 | 1010.0 |
| 20260901224048 | 30 | 218 | 0.0 | 0.0 | 0.00 | 0.03 | 0.03 | 77 | 1010.1 |
| 20260901224044 | 30 | 218 | 0.0 | 0.0 | 0.00 | 0.03 | 0.03 | 77 | 1010.1 |
| 20260901224021 | 30 | 218 | 0.0 | 0.0 | 0.00 | 0.03 | 0.03 | 77 | 1010.0 |
| 20260901223833 | 30 | 218 | 0.0 | 0.0 | 0.00 | 0.03 | 0.03 | 77 | 1010.2 |
| 20260901223733 | 30 | 218 | 0.0 | 0.0 | 0.00 | 0.03 | 0.03 | 77 | 1010.4 |
| 20260901223705 | 30 | 218 | 0.0 | 0.0 | 0.00 | 0.03 | 0.03 | 77 | 1010.5 |
| 20260901223701 | 30 | 218 | 0.0 | 0.0 | 0.00 | 0.03 | 0.03 | 76 | 1010.6 |
| 20260901223649 | 30 | 218 | 0.0 | 0.0 | 0.00 | 0.03 | 0.03 | 77 | 1010.5 |
| 20260901223521 | 30 | 218 | 0.0 | 0.0 | 0.00 | 0.03 | 0.03 | 76 | 1010.6 |
| 20260901223331 | 30 | 218 | 0.0 | 0.0 | 0.00 | 0.03 | 0.03 | 76 | 1010.6 |
| 20260901223249 | 30 | 218 | 0.0 | 0.0 | 0.00 | 0.03 | 0.03 | 76 | 1010.6 |
| 20260901223244 | 30 | 218 | 0.0 | 0.0 | 0.00 | 0.03 | 0.03 | 76 | 1010.6 |
| 20260901223131 | 30 | 218 | 0.0 | 0.0 | 0.00 | 0.03 | 0.03 | 76 | 1010.6 |
| 20260901223040 | 30 | 218 | 0.0 | 0.0 | 0.00 | 0.03 | 0.03 | 75 | 1010.6 |
| 20260901223031 | 30 | 218 | 0.0 | 0.0 | 0.00 | 0.03 | 0.03 | 75 | 1010.6 |
| 20260901223021 | 30 | 218 | 0.0 | 0.0 | 0.00 | 0.03 | 0.03 | 75 | 1010.6 |
| 20260901222829 | 30 | 218 | 0.0 | 0.0 | 0.00 | 0.03 | 0.03 | 74 | 1010.6 |
| 20260901222822 | 30 | 218 | 0.0 | 1.6 | 0.00 | 0.03 | 0.03 | 74 | 1010.7 |
| 20260901222818 | 31 | 218 | 0.0 | 1.6 | 0.00 | 0.03 | 0.03 | 73 | 1010.7 |
| 20260901222812 | 30 | 218 | 0.0 | 0.0 | 0.00 | 0.03 | 0.03 | 74 | 1010.6 |
| 20260901222657 | 30 | 218 | 0.0 | 0.0 | 0.00 | 0.03 | 0.03 | 74 | 1010.7 |
| 20260901222521 | 31 | 218 | 0.0 | 1.6 | 0.00 | 0.03 | 0.03 | 74 | 1010.7 |
| 20260901222434 | 31 | 218 | 0.0 | 3.2 | 0.00 | 0.03 | 0.03 | 74 | 1010.5 |
| 20260901222430 | 31 | 218 | 0.0 | 3.2 | 0.00 | 0.03 | 0.03 | 73 | 1010.4 |
| 20260901222426 | 31 | 218 | 0.0 | 1.6 | 0.00 | 0.03 | 0.03 | 74 | 1010.7 |
| 20260901222419 | 31 | 218 | 0.0 | 3.2 | 0.00 | 0.03 | 0.03 | 73 | 1010.4 |
| 20260901222413 | 31 | 218 | 0.0 | 1.6 | 0.00 | 0.03 | 0.03 | 73 | 1010.7 |
| 20260901222149 | 31 | 218 | 0.0 | 1.6 | 0.00 | 0.03 | 0.03 | 74 | 1010.6 |
| 20260901222021 | 31 | 218 | 0.0 | 3.2 | 0.00 | 0.03 | 0.03 | 74 | 1010.4 |
| 20260901221722 | 31 | 218 | 0.0 | 3.2 | 0.00 | 0.03 | 0.03 | 72 | 1010.4 |
| 20260901221620 | 31 | 218 | 0.0 | 3.2 | 0.00 | 0.03 | 0.03 | 72 | 1010.4 |
| 20260901221536 | 31 | 218 | 1.6 | 3.2 | 0.00 | 0.03 | 0.03 | 71 | 1010.5 |
| 20260901221520 | 31 | 218 | 0.0 | 3.2 | 0.00 | 0.03 | 0.03 | 71 | 1010.5 |
| 20260901221420 | 31 | 218 | 0.0 | 3.2 | 0.00 | 0.03 | 0.03 | 71 | 1010.6 |
| 20260901221333 | 31 | 218 | 0.0 | 3.2 | 0.00 | 0.03 | 0.03 | 70 | 1010.7 |
| 20260901221328 | 31 | 218 | 0.0 | 3.2 | 0.00 | 0.03 | 0.03 | 71 | 1010.7 |
| 20260901221119 | 31 | 218 | 0.0 | 3.2 | 0.00 | 0.03 | 0.03 | 70 | 1010.7 |
| 20260901221021 | 31 | 218 | 0.0 | 3.2 | 0.00 | 0.03 | 0.03 | 70 | 1010.6 |
| 20260901221017 | 31 | 218 | 0.0 | 1.6 | 0.00 | 0.03 | 0.03 | 70 | 1010.7 |
| 20260901220917 | 31 | 218 | 0.0 | 3.2 | 0.00 | 0.03 | 0.03 | 70 | 1010.7 |
| 20260901220817 | 31 | 218 | 0.0 | 3.2 | 0.00 | 0.03 | 0.03 | 70 | 1010.7 |
| 20260901220716 | 31 | 218 | 0.0 | 3.2 | 0.00 | 0.03 | 0.03 | 70 | 1010.6 |
| 20260901220627 | 31 | 218 | 0.0 | 3.2 | 0.00 | 0.03 | 0.03 | 70 | 1010.6 |
| 20260901220616 | 31 | 218 | 0.0 | 3.2 | 0.00 | 0.03 | 0.03 | 69 | 1010.6 |
| 20260901220551 | 31 | 218 | 0.0 | 3.2 | 0.00 | 0.03 | 0.03 | 68 | 1010.4 |
| 20260901220515 | 31 | 218 | 0.0 | 3.2 | 0.00 | 0.03 | 0.03 | 68 | 1010.5 |
| 20260901220413 | 31 | 218 | 0.0 | 3.2 | 0.00 | 0.03 | 0.03 | 68 | 1010.5 |
| 20260901220313 | 31 | 218 | 0.0 | 3.2 | 0.00 | 0.03 | 0.03 | 68 | 1010.5 |
| 20260901220212 | 31 | 218 | 0.0 | 3.2 | 0.00 | 0.03 | 0.03 | 69 | 1010.5 |
| 20260901220126 | 31 | 218 | 0.0 | 3.2 | 0.00 | 0.03 | 0.03 | 69 | 1010.5 |
| 20260901220112 | 31 | 218 | 0.0 | 3.2 | 0.00 | 0.03 | 0.03 | 68 | 1010.5 |
| 20260901220021 | 31 | 218 | 3.2 | 3.2 | 0.00 | 0.03 | 0.03 | 68 | 1010.3 |
| 20260901220012 | 31 | 218 | 0.0 | 3.2 | 0.00 | 0.03 | 0.03 | 68 | 1010.4 |
| 20260901215910 | 31 | 218 | 0.0 | 3.2 | 0.00 | 0.03 | 0.03 | 68 | 1010.4 |
| 20260901215848 | 31 | 218 | 0.0 | 3.2 | 0.00 | 0.03 | 0.03 | 69 | 1010.4 |
| 20260901215736 | 31 | 218 | 0.0 | 0.0 | 0.00 | 0.03 | 0.03 | 69 | 1010.4 |
| 20260901215731 | 31 | 218 | 0.0 | 0.0 | 0.00 | 0.03 | 0.03 | 69 | 1010.4 |
| 20260901215723 | 31 | 218 | 0.0 | 0.0 | 0.00 | 0.03 | 0.03 | 69 | 1010.4 |
| 20260901215521 | 32 | 218 | 0.0 | 0.0 | 0.00 | 0.03 | 0.03 | 69 | 1010.3 |
| 20260901215406 | 31 | 218 | 0.0 | 0.0 | 0.00 | 0.03 | 0.03 | 69 | 1010.4 |
| 20260901215306 | 31 | 218 | 0.0 | 0.0 | 0.00 | 0.03 | 0.03 | 69 | 1010.4 |
| 20260901215206 | 31 | 218 | 0.0 | 0.0 | 0.00 | 0.03 | 0.03 | 69 | 1010.4 |
| 20260901215124 | 31 | 218 | 0.0 | 0.0 | 0.00 | 0.03 | 0.03 | 69 | 1010.4 |
| 20260901215105 | 31 | 218 | 0.0 | 0.0 | 0.00 | 0.03 | 0.03 | 69 | 1010.4 |
| 20260901215021 | 31 | 218 | 0.0 | 0.0 | 0.00 | 0.03 | 0.03 | 69 | 1010.4 |
| 20260901215005 | 31 | 218 | 0.0 | 0.0 | 0.00 | 0.03 | 0.03 | 69 | 1010.5 |
| 20260901214904 | 31 | 217 | 0.0 | 0.0 | 0.00 | 0.03 | 0.03 | 69 | 1010.5 |
| 20260901214804 | 31 | 217 | 0.0 | 0.0 | 0.00 | 0.03 | 0.03 | 68 | 1010.5 |
| 20260901214704 | 31 | 217 | 0.0 | 0.0 | 0.00 | 0.03 | 0.03 | 69 | 1010.5 |
| 20260901214622 | 31 | 217 | 0.0 | 0.0 | 0.00 | 0.03 | 0.03 | 69 | 1010.5 |
| 20260901214603 | 31 | 217 | 0.0 | 0.0 | 0.00 | 0.03 | 0.03 | 69 | 1010.5 |
| 20260901214521 | 31 | 217 | 0.0 | 0.0 | 0.00 | 0.03 | 0.03 | 68 | 1010.5 |
| 20260901214503 | 31 | 217 | 0.0 | 0.0 | 0.00 | 0.03 | 0.03 | 68 | 1010.6 |
| 20260901214401 | 31 | 217 | 0.0 | 0.0 | 0.00 | 0.03 | 0.03 | 68 | 1010.6 |
| 20260901214301 | 31 | 217 | 0.0 | 0.0 | 0.00 | 0.03 | 0.03 | 68 | 1010.6 |
| 20260901214201 | 31 | 217 | 0.0 | 0.0 | 0.00 | 0.03 | 0.03 | 69 | 1010.7 |
| 20260901214120 | 31 | 217 | 0.0 | 0.0 | 0.00 | 0.03 | 0.03 | 69 | 1010.7 |
| 20260901214059 | 31 | 217 | 0.0 | 0.0 | 0.00 | 0.03 | 0.03 | 69 | 1010.7 |
| 20260901214051 | 31 | 217 | 0.0 | 0.0 | 0.00 | 0.03 | 0.03 | 69 | 1010.7 |
| 20260901213959 | 31 | 217 | 0.0 | 0.0 | 0.00 | 0.03 | 0.03 | 69 | 1010.8 |
| 20260901213859 | 31 | 217 | 0.0 | 0.0 | 0.00 | 0.03 | 0.03 | 69 | 1010.8 |
| 20260901213847 | 31 | 273 | 0.0 | 0.0 | 0.00 | 0.03 | 0.03 | 70 | 1010.8 |
| 20260901213734 | 31 | 274 | 0.0 | 0.0 | 0.00 | 0.03 | 0.03 | 69 | 1010.8 |
| 20260901213622 | 31 | 274 | 0.0 | 0.0 | 0.00 | 0.03 | 0.03 | 68 | 1010.8 |
| 20260901213615 | 31 | 274 | 0.0 | 0.0 | 0.00 | 0.03 | 0.03 | 68 | 1010.8 |
| 20260901213521 | 31 | 274 | 0.0 | 0.0 | 0.00 | 0.03 | 0.03 | 68 | 1010.8 |
| 20260901213255 | 31 | 274 | 0.0 | 0.0 | 0.00 | 0.03 | 0.03 | 68 | 1011.0 |
| 20260901213155 | 31 | 274 | 0.0 | 0.0 | 0.00 | 0.03 | 0.03 | 68 | 1011.0 |
| 20260901213118 | 31 | 274 | 0.0 | 0.0 | 0.00 | 0.03 | 0.03 | 68 | 1011.0 |
| 20260901213054 | 31 | 274 | 0.0 | 0.0 | 0.00 | 0.03 | 0.03 | 68 | 1011.0 |
| 20260901213021 | 31 | 274 | 0.0 | 0.0 | 0.00 | 0.03 | 0.03 | 67 | 1010.9 |
| 20260901212954 | 31 | 274 | 0.0 | 0.0 | 0.00 | 0.03 | 0.03 | 67 | 1011.0 |
| 20260901212854 | 31 | 329 | 0.0 | 0.0 | 0.00 | 0.03 | 0.03 | 67 | 1011.1 |
| 20260901212753 | 31 | 285 | 0.0 | 0.0 | 0.00 | 0.03 | 0.03 | 67 | 1011.0 |
| 20260901212652 | 31 | 298 | 0.0 | 0.0 | 0.00 | 0.03 | 0.03 | 67 | 1011.0 |
| 20260901212617 | 31 | 304 | 0.0 | 0.0 | 0.00 | 0.03 | 0.03 | 67 | 1011.0 |
| 20260901212549 | 32 | 269 | 0.0 | 0.0 | 0.00 | 0.03 | 0.03 | 67 | 1011.0 |
| 20260901212521 | 32 | 270 | 0.0 | 3.2 | 0.00 | 0.03 | 0.03 | 67 | 1010.9 |
| 20260901212449 | 32 | 270 | 0.0 | 4.8 | 0.00 | 0.03 | 0.03 | 67 | 1011.0 |
| 20260901212348 | 32 | 270 | 0.0 | 4.8 | 0.00 | 0.03 | 0.03 | 67 | 1011.0 |
| 20260901212248 | 32 | 270 | 1.6 | 4.8 | 0.00 | 0.03 | 0.03 | 67 | 1010.9 |
| 20260901212148 | 32 | 270 | 1.6 | 4.8 | 0.00 | 0.03 | 0.03 | 66 | 1010.9 |
| 20260901212115 | 32 | 270 | 1.6 | 6.4 | 0.00 | 0.03 | 0.03 | 66 | 1010.9 |
| 20260901212102 | 32 | 271 | 1.6 | 6.4 | 0.00 | 0.03 | 0.03 | 66 | 1010.8 |
| 20260901212057 | 32 | 273 | 1.6 | 6.4 | 0.00 | 0.03 | 0.03 | 66 | 1010.9 |
| 20260901212036 | 32 | 271 | 0.0 | 6.4 | 0.00 | 0.03 | 0.03 | 66 | 1010.7 |
| 20260901211846 | 32 | 265 | 1.6 | 6.4 | 0.00 | 0.03 | 0.03 | 66 | 1010.8 |
| 20260901211747 | 32 | 265 | 3.2 | 9.7 | 0.00 | 0.03 | 0.03 | 65 | 1010.7 |
| 20260901211647 | 32 | 265 | 3.2 | 9.7 | 0.00 | 0.03 | 0.03 | 65 | 1010.7 |
| 20260901211615 | 32 | 265 | 3.2 | 9.7 | 0.00 | 0.03 | 0.03 | 65 | 1010.7 |
| 20260901211546 | 32 | 265 | 3.2 | 9.7 | 0.00 | 0.03 | 0.03 | 65 | 1010.7 |
| 20260901211521 | 32 | 267 | 3.2 | 9.7 | 0.00 | 0.03 | 0.03 | 65 | 1010.6 |
| 20260901211446 | 32 | 267 | 3.2 | 9.7 | 0.00 | 0.03 | 0.03 | 65 | 1010.7 |
| 20260901211344 | 32 | 267 | 3.2 | 9.7 | 0.00 | 0.03 | 0.03 | 65 | 1010.7 |
| 20260901211244 | 32 | 229 | 3.2 | 9.7 | 0.00 | 0.03 | 0.03 | 65 | 1010.7 |
| 20260901211143 | 32 | 296 | 3.2 | 11.3 | 0.00 | 0.03 | 0.03 | 65 | 1010.6 |
| 20260901211115 | 32 | 269 | 3.2 | 11.3 | 0.00 | 0.03 | 0.03 | 64 | 1010.6 |
| 20260901211051 | 32 | 269 | 1.6 | 11.3 | 0.00 | 0.03 | 0.03 | 65 | 1010.6 |
| 20260901211043 | 32 | 269 | 3.2 | 11.3 | 0.00 | 0.03 | 0.03 | 65 | 1010.6 |
| 20260901210941 | 32 | 269 | 3.2 | 11.3 | 0.00 | 0.03 | 0.03 | 65 | 1010.7 |
| 20260901210841 | 32 | 311 | 3.2 | 11.3 | 0.00 | 0.03 | 0.03 | 66 | 1010.7 |
| 20260901210821 | 32 | 271 | 3.2 | 11.3 | 0.00 | 0.03 | 0.03 | 65 | 1010.7 |
| 20260901210816 | 32 | 200 | 1.6 | 11.3 | 0.00 | 0.03 | 0.03 | 66 | 1010.7 |
| 20260901210703 | 32 | 270 | 1.6 | 11.3 | 0.00 | 0.03 | 0.03 | 66 | 1010.7 |
| 20260901210655 | 32 | 271 | 1.6 | 11.3 | 0.00 | 0.03 | 0.03 | 66 | 1010.7 |
| 20260901210521 | 32 | 271 | 0.0 | 11.3 | 0.00 | 0.03 | 0.03 | 65 | 1010.6 |
| 20260901210336 | 32 | 271 | 3.2 | 11.3 | 0.00 | 0.03 | 0.03 | 65 | 1010.7 |
| 20260901210236 | 32 | 271 | 1.6 | 11.3 | 0.00 | 0.03 | 0.03 | 64 | 1010.8 |
| 20260901210113 | 32 | 234 | 1.6 | 4.8 | 0.00 | 0.03 | 0.03 | 65 | 1010.7 |
| 20260901210035 | 32 | 234 | 1.6 | 4.8 | 0.00 | 0.03 | 0.03 | 65 | 1010.7 |
| 20260901210021 | 32 | 234 | 1.6 | 6.4 | 0.00 | 0.03 | 0.03 | 65 | 1010.6 |
| 20260901205934 | 32 | 234 | 1.6 | 6.4 | 0.00 | 0.03 | 0.03 | 65 | 1010.7 |
| 20260901205832 | 32 | 234 | 1.6 | 6.4 | 0.00 | 0.03 | 0.03 | 65 | 1010.7 |
| 20260901205732 | 32 | 234 | 1.6 | 6.4 | 0.00 | 0.03 | 0.03 | 65 | 1010.8 |
| 20260901205612 | 32 | 234 | 1.6 | 6.4 | 0.00 | 0.03 | 0.03 | 65 | 1010.8 |
| 20260901205533 | 32 | 235 | 1.6 | 6.4 | 0.00 | 0.03 | 0.03 | 65 | 1010.8 |
| 20260901205524 | 32 | 225 | 1.6 | 6.4 | 0.00 | 0.03 | 0.03 | 65 | 1010.8 |
| 20260901205521 | 32 | 236 | 3.2 | 6.4 | 0.00 | 0.03 | 0.03 | 66 | 1010.7 |
| 20260901205413 | 32 | 246 | 1.6 | 6.4 | 0.00 | 0.03 | 0.03 | 65 | 1010.7 |
| 20260901205408 | 32 | 246 | 1.6 | 6.4 | 0.00 | 0.03 | 0.03 | 66 | 1010.8 |
| 20260901205402 | 32 | 245 | 1.6 | 6.4 | 0.00 | 0.03 | 0.03 | 66 | 1010.8 |
| 20260901205244 | 32 | 246 | 1.6 | 6.4 | 0.00 | 0.03 | 0.03 | 65 | 1010.7 |
| 20260901205021 | 32 | 252 | 1.6 | 4.8 | 0.00 | 0.03 | 0.03 | 66 | 1010.7 |
| 20260901204929 | 32 | 252 | 1.6 | 6.4 | 0.00 | 0.03 | 0.03 | 66 | 1010.8 |
| 20260901204836 | 32 | 251 | 3.2 | 8.0 | 0.00 | 0.03 | 0.03 | 66 | 1010.8 |
| 20260901204827 | 32 | 251 | 1.6 | 6.4 | 0.00 | 0.03 | 0.03 | 66 | 1010.8 |
| 20260901204728 | 32 | 251 | 3.2 | 8.0 | 0.00 | 0.03 | 0.03 | 66 | 1010.7 |
| 20260901204719 | 32 | 251 | 3.2 | 8.0 | 0.00 | 0.03 | 0.03 | 66 | 1010.8 |
| 20260901204523 | 32 | 252 | 3.2 | 8.0 | 0.00 | 0.03 | 0.03 | 66 | 1010.8 |
| 20260901204521 | 32 | 252 | 3.2 | 8.0 | 0.00 | 0.03 | 0.03 | 66 | 1010.8 |
| 20260901204424 | 32 | 256 | 3.2 | 8.0 | 0.00 | 0.03 | 0.03 | 66 | 1010.9 |
| 20260901204337 | 32 | 235 | 3.2 | 8.0 | 0.00 | 0.03 | 0.03 | 66 | 1010.9 |
| 20260901204332 | 32 | 259 | 3.2 | 8.0 | 0.00 | 0.03 | 0.03 | 66 | 1010.8 |
| 20260901204122 | 32 | 235 | 3.2 | 8.0 | 0.00 | 0.03 | 0.03 | 66 | 1010.9 |
| 20260901204111 | 32 | 235 | 3.2 | 8.0 | 0.00 | 0.03 | 0.03 | 66 | 1010.9 |
| 20260901204021 | 32 | 235 | 3.2 | 8.0 | 0.00 | 0.03 | 0.03 | 65 | 1010.9 |
| 20260901203920 | 32 | 230 | 3.2 | 8.0 | 0.00 | 0.03 | 0.03 | 65 | 1010.9 |
| 20260901203833 | 32 | 231 | 1.6 | 8.0 | 0.00 | 0.03 | 0.03 | 67 | 1010.8 |
| 20260901203828 | 32 | 225 | 1.6 | 8.0 | 0.00 | 0.03 | 0.03 | 67 | 1010.8 |
| 20260901203639 | 32 | 176 | 1.6 | 8.0 | 0.00 | 0.03 | 0.03 | 67 | 1010.9 |
| 20260901203627 | 32 | 199 | 1.6 | 8.0 | 0.00 | 0.03 | 0.03 | 67 | 1010.9 |
| 20260901203521 | 32 | 170 | 1.6 | 8.0 | 0.00 | 0.03 | 0.03 | 67 | 1010.8 |
| 20260901203439 | 32 | 170 | 1.6 | 8.0 | 0.00 | 0.03 | 0.03 | 67 | 1010.9 |
| 20260901203326 | 32 | 169 | 1.6 | 11.3 | 0.00 | 0.03 | 0.03 | 67 | 1010.9 |
| 20260901203109 | 32 | 169 | 1.6 | 11.3 | 0.00 | 0.03 | 0.03 | 66 | 1010.9 |
| 20260901203030 | 32 | 168 | 3.2 | 11.3 | 0.00 | 0.03 | 0.03 | 65 | 1010.8 |
| 20260901203024 | 32 | 168 | 1.6 | 11.3 | 0.00 | 0.03 | 0.03 | 66 | 1010.8 |
| 20260901203021 | 32 | 168 | 1.6 | 11.3 | 0.00 | 0.03 | 0.03 | 66 | 1010.7 |
| 20260901202856 | 32 | 228 | 3.2 | 14.5 | 0.00 | 0.03 | 0.03 | 65 | 1010.9 |
| 20260901202815 | 32 | 168 | 3.2 | 11.3 | 0.00 | 0.03 | 0.03 | 65 | 1010.9 |
| 20260901202750 | 32 | 257 | 3.2 | 11.3 | 0.00 | 0.03 | 0.03 | 66 | 1010.9 |
| 20260901202741 | 32 | 228 | 3.2 | 14.5 | 0.00 | 0.03 | 0.03 | 65 | 1010.9 |
| 20260901202522 | 32 | 228 | 3.2 | 14.5 | 0.00 | 0.03 | 0.03 | 65 | 1011.0 |
| 20260901202311 | 32 | 260 | 3.2 | 14.5 | 0.00 | 0.03 | 0.03 | 65 | 1011.0 |
| 20260901202211 | 32 | 260 | 3.2 | 14.5 | 0.00 | 0.03 | 0.03 | 65 | 1010.9 |
| 20260901202112 | 32 | 261 | 3.2 | 14.5 | 0.00 | 0.03 | 0.03 | 65 | 1010.9 |
| 20260901202051 | 32 | 188 | 4.8 | 14.5 | 0.00 | 0.03 | 0.03 | 66 | 1010.8 |
| 20260901202010 | 32 | 189 | 3.2 | 14.5 | 0.00 | 0.03 | 0.03 | 66 | 1010.9 |
| 20260901201910 | 32 | 242 | 1.6 | 14.5 | 0.00 | 0.03 | 0.03 | 66 | 1010.9 |
| 20260901201809 | 32 | 246 | 1.6 | 14.5 | 0.00 | 0.03 | 0.03 | 66 | 1010.9 |
| 20260901201709 | 32 | 229 | 1.6 | 14.5 | 0.00 | 0.03 | 0.03 | 67 | 1010.9 |
| 20260901201610 | 32 | 250 | 1.6 | 6.4 | 0.00 | 0.03 | 0.03 | 68 | 1010.9 |
| 20260901201551 | 32 | 250 | 0.0 | 6.4 | 0.00 | 0.03 | 0.03 | 67 | 1010.9 |
| 20260901201508 | 32 | 250 | 1.6 | 6.4 | 0.00 | 0.03 | 0.03 | 67 | 1010.9 |
| 20260901201407 | 32 | 250 | 1.6 | 6.4 | 0.00 | 0.03 | 0.03 | 67 | 1011.0 |
| 20260901201353 | 32 | 290 | 3.2 | 9.7 | 0.00 | 0.03 | 0.03 | 68 | 1011.0 |
| 20260901201349 | 32 | 290 | 3.2 | 11.3 | 0.00 | 0.03 | 0.03 | 68 | 1011.0 |
| 20260901201344 | 31 | 296 | 3.2 | 11.3 | 0.00 | 0.03 | 0.03 | 68 | 1011.0 |
| 20260901201338 | 32 | 275 | 3.2 | 6.4 | 0.00 | 0.03 | 0.03 | 68 | 1011.0 |
| 20260901201114 | 32 | 290 | 3.2 | 11.3 | 0.00 | 0.03 | 0.03 | 68 | 1011.0 |
| 20260901201021 | 32 | 296 | 6.4 | 11.3 | 0.00 | 0.03 | 0.03 | 68 | 1010.9 |
| 20260901200930 | 31 | 284 | 3.2 | 11.3 | 0.00 | 0.03 | 0.03 | 68 | 1010.9 |
| 20260901200905 | 31 | 257 | 3.2 | 11.3 | 0.00 | 0.03 | 0.03 | 68 | 1011.0 |
| 20260901200833 | 31 | 284 | 3.2 | 11.3 | 0.00 | 0.03 | 0.03 | 68 | 1010.9 |
| 20260901200828 | 31 | 257 | 3.2 | 11.3 | 0.00 | 0.03 | 0.03 | 67 | 1011.0 |
| 20260901200819 | 31 | 247 | 3.2 | 11.3 | 0.00 | 0.03 | 0.03 | 68 | 1010.9 |
| 20260901200521 | 31 | 284 | 3.2 | 11.3 | 0.00 | 0.03 | 0.03 | 68 | 1010.8 |
| 20260901200503 | 31 | 284 | 3.2 | 11.3 | 0.00 | 0.03 | 0.03 | 68 | 1010.9 |
| 20260901200402 | 31 | 273 | 3.2 | 14.5 | 0.00 | 0.03 | 0.03 | 68 | 1010.9 |
| 20260901200303 | 31 | 280 | 3.2 | 14.5 | 0.00 | 0.03 | 0.03 | 67 | 1010.9 |
| 20260901200202 | 31 | 288 | 3.2 | 14.5 | 0.00 | 0.03 | 0.03 | 67 | 1010.9 |
| 20260901200107 | 31 | 255 | 3.2 | 14.5 | 0.00 | 0.05 | 0.03 | 67 | 1010.9 |
| 20260901200021 | 31 | 267 | 1.6 | 14.5 | 0.00 | 0.05 | 0.03 | 67 | 1010.9 |
| 20260901200001 | 31 | 267 | 3.2 | 14.5 | 0.00 | 0.05 | 0.03 | 67 | 1010.9 |
| 20260901195902 | 31 | 278 | 3.2 | 14.5 | 0.00 | 0.05 | 0.03 | 67 | 1010.9 |
| 20260901195802 | 31 | 278 | 3.2 | 14.5 | 0.00 | 0.05 | 0.03 | 67 | 1011.0 |
| 20260901195720 | 31 | 278 | 4.8 | 14.5 | 0.00 | 0.05 | 0.03 | 68 | 1011.0 |
| 20260901195715 | 31 | 278 | 4.8 | 14.5 | 0.00 | 0.05 | 0.03 | 67 | 1011.0 |
| 20260901195707 | 31 | 278 | 4.8 | 14.5 | 0.00 | 0.05 | 0.03 | 68 | 1011.0 |
| 20260901195521 | 31 | 278 | 3.2 | 14.5 | 0.00 | 0.05 | 0.03 | 67 | 1011.0 |
| 20260901195459 | 31 | 278 | 3.2 | 14.5 | 0.00 | 0.05 | 0.03 | 67 | 1011.0 |
| 20260901195359 | 31 | 259 | 3.2 | 14.5 | 0.00 | 0.05 | 0.03 | 67 | 1011.1 |
| 20260901195312 | 31 | 269 | 3.2 | 14.5 | 0.00 | 0.05 | 0.03 | 66 | 1011.1 |
| 20260901195307 | 31 | 265 | 3.2 | 14.5 | 0.00 | 0.05 | 0.03 | 67 | 1011.1 |
| 20260901195117 | 31 | 287 | 3.2 | 12.9 | 0.00 | 0.05 | 0.03 | 67 | 1011.2 |
| 20260901195112 | 31 | 268 | 3.2 | 14.5 | 0.00 | 0.05 | 0.03 | 66 | 1011.1 |
| 20260901195106 | 31 | 268 | 3.2 | 14.5 | 0.00 | 0.05 | 0.03 | 66 | 1011.1 |
| 20260901195036 | 31 | 275 | 3.2 | 12.9 | 0.00 | 0.05 | 0.03 | 67 | 1011.1 |
| 20260901194921 | 31 | 204 | 3.2 | 12.9 | 0.00 | 0.05 | 0.03 | 66 | 1011.2 |
| 20260901194917 | 31 | 202 | 1.6 | 12.9 | 0.00 | 0.05 | 0.03 | 67 | 1011.1 |
| 20260901194911 | 31 | 290 | 3.2 | 12.9 | 0.00 | 0.05 | 0.03 | 67 | 1011.1 |
| 20260901194606 | 31 | 271 | 1.6 | 12.9 | 0.00 | 0.05 | 0.03 | 66 | 1011.1 |
| 20260901194553 | 31 | 271 | 3.2 | 12.9 | 0.00 | 0.05 | 0.03 | 66 | 1011.0 |
| 20260901194521 | 32 | 271 | 1.6 | 12.9 | 0.00 | 0.05 | 0.03 | 66 | 1010.9 |
| 20260901194452 | 32 | 271 | 3.2 | 12.9 | 0.00 | 0.05 | 0.03 | 66 | 1011.0 |
| 20260901194349 | 32 | 271 | 3.2 | 12.9 | 0.00 | 0.05 | 0.03 | 65 | 1011.0 |
| 20260901194249 | 32 | 244 | 3.2 | 12.9 | 0.00 | 0.05 | 0.03 | 66 | 1011.1 |
| 20260901194149 | 32 | 319 | 3.2 | 9.7 | 0.00 | 0.05 | 0.03 | 66 | 1011.1 |
| 20260901194105 | 32 | 245 | 3.2 | 11.3 | 0.00 | 0.05 | 0.03 | 66 | 1011.0 |
| 20260901194048 | 32 | 245 | 3.2 | 11.3 | 0.00 | 0.05 | 0.03 | 66 | 1011.0 |
| 20260901194021 | 32 | 245 | 3.2 | 11.3 | 0.00 | 0.05 | 0.03 | 66 | 1010.9 |
| 20260901193947 | 32 | 245 | 3.2 | 11.3 | 0.00 | 0.05 | 0.03 | 66 | 1011.0 |
| 20260901193847 | 32 | 245 | 3.2 | 11.3 | 0.00 | 0.05 | 0.03 | 65 | 1011.1 |
| 20260901193747 | 32 | 247 | 3.2 | 11.3 | 0.00 | 0.05 | 0.03 | 65 | 1011.1 |
| 20260901193646 | 32 | 247 | 3.2 | 11.3 | 0.00 | 0.05 | 0.03 | 64 | 1011.1 |
| 20260901193605 | 32 | 240 | 3.2 | 11.3 | 0.00 | 0.05 | 0.03 | 64 | 1011.2 |
| 20260901193545 | 32 | 240 | 3.2 | 11.3 | 0.00 | 0.05 | 0.03 | 64 | 1011.2 |
| 20260901193536 | 32 | 332 | 1.6 | 11.3 | 0.00 | 0.05 | 0.03 | 64 | 1011.1 |
| 20260901193444 | 32 | 332 | 3.2 | 11.3 | 0.00 | 0.05 | 0.03 | 64 | 1011.2 |
| 20260901193344 | 32 | 252 | 3.2 | 11.3 | 0.00 | 0.05 | 0.03 | 64 | 1011.2 |
| 20260901193243 | 32 | 246 | 3.2 | 11.3 | 0.00 | 0.05 | 0.03 | 63 | 1011.3 |
| 20260901193142 | 32 | 255 | 4.8 | 11.3 | 0.00 | 0.05 | 0.03 | 64 | 1011.3 |
| 20260901193105 | 32 | 281 | 3.2 | 11.3 | 0.00 | 0.08 | 0.03 | 64 | 1011.3 |
| 20260901193042 | 32 | 281 | 3.2 | 11.3 | 0.00 | 0.08 | 0.03 | 64 | 1011.3 |
| 20260901193021 | 32 | 257 | 1.6 | 11.3 | 0.00 | 0.08 | 0.03 | 64 | 1011.2 |
| 20260901192940 | 32 | 263 | 3.2 | 11.3 | 0.00 | 0.08 | 0.03 | 64 | 1011.3 |
| 20260901192840 | 32 | 231 | 4.8 | 11.3 | 0.00 | 0.08 | 0.03 | 64 | 1011.3 |
| 20260901192741 | 32 | 231 | 4.8 | 11.3 | 0.00 | 0.08 | 0.03 | 63 | 1011.3 |
| 20260901192700 | 33 | 244 | 4.8 | 11.3 | 0.00 | 0.08 | 0.03 | 62 | 1011.2 |
| 20260901192655 | 33 | 225 | 4.8 | 11.3 | 0.00 | 0.08 | 0.03 | 63 | 1011.3 |
| 20260901192647 | 33 | 222 | 4.8 | 11.3 | 0.00 | 0.08 | 0.03 | 63 | 1011.3 |
| 20260901192522 | 33 | 244 | 3.2 | 11.3 | 0.00 | 0.08 | 0.03 | 62 | 1011.1 |
| 20260901192439 | 33 | 255 | 4.8 | 11.3 | 0.00 | 0.08 | 0.03 | 63 | 1011.2 |
| 20260901192339 | 33 | 166 | 4.8 | 11.3 | 0.00 | 0.08 | 0.03 | 63 | 1011.2 |
| 20260901192323 | 33 | 264 | 3.2 | 9.7 | 0.00 | 0.08 | 0.03 | 64 | 1011.2 |
| 20260901192239 | 33 | 107 | 4.8 | 11.3 | 0.00 | 0.08 | 0.03 | 62 | 1011.2 |
| 20260901192212 | 33 | 263 | 3.2 | 9.7 | 0.00 | 0.08 | 0.03 | 63 | 1011.2 |
| 20260901192039 | 33 | 250 | 3.2 | 9.7 | 0.00 | 0.08 | 0.03 | 64 | 1011.2 |
| 20260901192021 | 33 | 250 | 4.8 | 9.7 | 0.00 | 0.08 | 0.03 | 64 | 1011.2 |
| 20260901191937 | 33 | 272 | 3.2 | 9.7 | 0.00 | 0.08 | 0.03 | 63 | 1011.3 |
| 20260901191837 | 33 | 270 | 3.2 | 9.7 | 0.00 | 0.08 | 0.03 | 63 | 1011.2 |
| 20260901191736 | 33 | 315 | 3.2 | 9.7 | 0.00 | 0.08 | 0.03 | 64 | 1011.2 |
| 20260901191635 | 32 | 219 | 3.2 | 9.7 | 0.00 | 0.08 | 0.03 | 64 | 1011.2 |
| 20260901191604 | 32 | 217 | 1.6 | 9.7 | 0.00 | 0.08 | 0.03 | 64 | 1011.2 |
| 20260901191534 | 32 | 217 | 1.6 | 9.7 | 0.00 | 0.08 | 0.03 | 64 | 1011.2 |
| 20260901191521 | 32 | 221 | 4.8 | 9.7 | 0.00 | 0.08 | 0.03 | 65 | 1011.1 |
| 20260901191435 | 32 | 194 | 1.6 | 9.7 | 0.00 | 0.08 | 0.03 | 64 | 1011.2 |
| 20260901191334 | 32 | 263 | 1.6 | 8.0 | 0.00 | 0.08 | 0.03 | 64 | 1011.1 |
| 20260901191231 | 32 | 227 | 1.6 | 8.0 | 0.00 | 0.08 | 0.03 | 64 | 1011.2 |
| 20260901191130 | 32 | 242 | 1.6 | 8.0 | 0.00 | 0.08 | 0.03 | 64 | 1011.2 |
| 20260901191105 | 32 | 241 | 0.0 | 8.0 | 0.00 | 0.08 | 0.03 | 64 | 1011.2 |
| 20260901191036 | 32 | 241 | 1.6 | 8.0 | 0.00 | 0.08 | 0.03 | 64 | 1011.1 |
| 20260901191029 | 32 | 241 | 0.0 | 8.0 | 0.00 | 0.08 | 0.03 | 64 | 1011.2 |
| 20260901190929 | 32 | 242 | 0.0 | 8.0 | 0.00 | 0.08 | 0.03 | 64 | 1011.2 |
| 20260901190829 | 32 | 236 | 0.0 | 4.8 | 0.00 | 0.08 | 0.03 | 65 | 1011.2 |
| 20260901190727 | 32 | 254 | 0.0 | 3.2 | 0.00 | 0.08 | 0.03 | 65 | 1011.2 |
| 20260901190627 | 32 | 238 | 0.0 | 0.0 | 0.00 | 0.08 | 0.03 | 64 | 1011.2 |
| 20260901190604 | 32 | 236 | 0.0 | 0.0 | 0.00 | 0.08 | 0.03 | 64 | 1011.2 |
| 20260901190527 | 32 | 202 | 0.0 | 0.0 | 0.00 | 0.08 | 0.03 | 64 | 1011.2 |
| 20260901190521 | 32 | 202 | 0.0 | 0.0 | 0.00 | 0.08 | 0.03 | 63 | 1011.1 |
| 20260901190426 | 32 | 202 | 0.0 | 0.0 | 0.00 | 0.08 | 0.03 | 63 | 1011.2 |
| 20260901190340 | 32 | 278 | 0.0 | 0.0 | 0.00 | 0.08 | 0.03 | 65 | 1011.2 |
| 20260901190335 | 32 | 200 | 0.0 | 0.0 | 0.00 | 0.08 | 0.03 | 63 | 1011.3 |
| 20260901190145 | 32 | 277 | 0.0 | 0.0 | 0.00 | 0.08 | 0.03 | 65 | 1011.1 |
| 20260901190133 | 32 | 277 | 0.0 | 0.0 | 0.00 | 0.08 | 0.03 | 65 | 1011.1 |
| 20260901190021 | 32 | 277 | 0.0 | 0.0 | 0.00 | 0.08 | 0.03 | 64 | 1011.0 |
| 20260901185924 | 32 | 307 | 0.0 | 0.0 | 0.00 | 0.08 | 0.03 | 64 | 1011.1 |
| 20260901185823 | 32 | 309 | 0.0 | 0.0 | 0.00 | 0.08 | 0.03 | 64 | 1011.2 |
| 20260901185734 | 32 | 235 | 0.0 | 0.0 | 0.00 | 0.08 | 0.03 | 64 | 1011.1 |
| 20260901185729 | 32 | 309 | 0.0 | 0.0 | 0.00 | 0.08 | 0.03 | 64 | 1011.2 |
| 20260901185602 | 32 | 237 | 0.0 | 0.0 | 0.00 | 0.08 | 0.03 | 64 | 1011.2 |
| 20260901185522 | 32 | 243 | 0.0 | 0.0 | 0.00 | 0.08 | 0.03 | 65 | 1011.2 |
| 20260901185421 | 32 | 243 | 0.0 | 0.0 | 0.00 | 0.08 | 0.03 | 65 | 1011.3 |
| 20260901185329 | 32 | 286 | 0.0 | 0.0 | 0.00 | 0.08 | 0.03 | 64 | 1011.2 |
| 20260901185319 | 32 | 292 | 0.0 | 0.0 | 0.00 | 0.08 | 0.03 | 65 | 1011.3 |
| 20260901185219 | 32 | 269 | 0.0 | 0.0 | 0.00 | 0.08 | 0.03 | 65 | 1011.3 |
| 20260901185209 | 32 | 287 | 0.0 | 0.0 | 0.00 | 0.08 | 0.03 | 64 | 1011.2 |
| 20260901185021 | 32 | 263 | 0.0 | 0.0 | 0.00 | 0.08 | 0.03 | 65 | 1011.1 |
| 20260901185018 | 32 | 263 | 0.0 | 0.0 | 0.00 | 0.08 | 0.03 | 65 | 1011.2 |
| 20260901184919 | 32 | 267 | 0.0 | 0.0 | 0.00 | 0.08 | 0.03 | 65 | 1011.2 |
| 20260901184819 | 32 | 262 | 0.0 | 0.0 | 0.00 | 0.08 | 0.03 | 65 | 1011.3 |
| 20260901184717 | 32 | 262 | 0.0 | 0.0 | 0.00 | 0.08 | 0.03 | 65 | 1011.3 |
| 20260901184617 | 32 | 262 | 0.0 | 0.0 | 0.00 | 0.08 | 0.03 | 65 | 1011.3 |
| 20260901184601 | 32 | 262 | 0.0 | 0.0 | 0.00 | 0.08 | 0.03 | 65 | 1011.3 |
| 20260901184521 | 32 | 263 | 0.0 | 0.0 | 0.00 | 0.08 | 0.03 | 65 | 1011.3 |
| 20260901184515 | 32 | 263 | 0.0 | 0.0 | 0.00 | 0.08 | 0.03 | 65 | 1011.3 |
| 20260901184414 | 32 | 261 | 0.0 | 0.0 | 0.00 | 0.08 | 0.03 | 65 | 1011.4 |
| 20260901184321 | 32 | 278 | 0.0 | 0.0 | 0.00 | 0.08 | 0.03 | 64 | 1011.4 |
| 20260901184314 | 32 | 261 | 0.0 | 0.0 | 0.00 | 0.08 | 0.03 | 66 | 1011.4 |
| 20260901184216 | 32 | 263 | 0.0 | 0.0 | 0.00 | 0.08 | 0.03 | 65 | 1011.4 |
| 20260901184207 | 32 | 310 | 0.0 | 0.0 | 0.00 | 0.08 | 0.03 | 64 | 1011.4 |
| 20260901184021 | 32 | 280 | 0.0 | 0.0 | 0.00 | 0.08 | 0.03 | 65 | 1011.3 |
| 20260901184012 | 32 | 280 | 0.0 | 0.0 | 0.00 | 0.08 | 0.03 | 65 | 1011.4 |
| 20260901183912 | 32 | 178 | 0.0 | 0.0 | 0.00 | 0.08 | 0.03 | 65 | 1011.4 |
| 20260901183825 | 32 | 178 | 0.0 | 0.0 | 0.00 | 0.08 | 0.03 | 64 | 1011.4 |
| 20260901183820 | 32 | 178 | 0.0 | 0.0 | 0.00 | 0.08 | 0.03 | 65 | 1011.4 |
| 20260901183609 | 32 | 178 | 0.0 | 0.0 | 0.00 | 0.08 | 0.03 | 66 | 1011.4 |
| 20260901183600 | 32 | 178 | 0.0 | 0.0 | 0.00 | 0.08 | 0.03 | 66 | 1011.5 |
| 20260901183521 | 32 | 226 | 0.0 | 0.0 | 0.00 | 0.08 | 0.03 | 67 | 1011.4 |
| 20260901183508 | 32 | 226 | 0.0 | 0.0 | 0.00 | 0.08 | 0.03 | 67 | 1011.5 |
| 20260901183407 | 32 | 217 | 0.0 | 0.0 | 0.00 | 0.08 | 0.03 | 67 | 1011.5 |
| 20260901183306 | 32 | 170 | 0.0 | 0.0 | 0.00 | 0.08 | 0.03 | 68 | 1011.5 |
| 20260901183206 | 32 | 170 | 0.0 | 0.0 | 0.00 | 0.08 | 0.03 | 67 | 1011.6 |
| 20260901183106 | 32 | 170 | 0.0 | 0.0 | 0.00 | 0.08 | 0.03 | 67 | 1011.6 |
| 20260901183057 | 32 | 170 | 0.0 | 0.0 | 0.00 | 0.08 | 0.03 | 66 | 1011.6 |
| 20260901183021 | 32 | 170 | 0.0 | 0.0 | 0.00 | 0.08 | 0.03 | 65 | 1011.4 |
| 20260901183005 | 32 | 170 | 0.0 | 0.0 | 0.00 | 0.08 | 0.03 | 65 | 1011.5 |
| 20260901182920 | 32 | 249 | 0.0 | 0.0 | 0.00 | 0.08 | 0.03 | 66 | 1011.5 |
| 20260901182915 | 32 | 259 | 0.0 | 0.0 | 0.00 | 0.08 | 0.03 | 67 | 1011.5 |
| 20260901182705 | 32 | 249 | 0.0 | 0.0 | 0.00 | 0.08 | 0.03 | 65 | 1011.5 |
| 20260901182604 | 32 | 249 | 0.0 | 0.0 | 0.00 | 0.08 | 0.03 | 66 | 1011.6 |
| 20260901182557 | 32 | 248 | 0.0 | 0.0 | 0.00 | 0.08 | 0.03 | 65 | 1011.6 |
| 20260901182521 | 32 | 248 | 0.0 | 0.0 | 0.00 | 0.08 | 0.03 | 65 | 1011.5 |
| 20260901182503 | 32 | 248 | 0.0 | 0.0 | 0.00 | 0.08 | 0.03 | 65 | 1011.6 |
| 20260901182402 | 32 | 253 | 0.0 | 0.0 | 0.00 | 0.08 | 0.03 | 65 | 1011.6 |
| 20260901182305 | 32 | 259 | 0.0 | 0.0 | 0.00 | 0.08 | 0.03 | 66 | 1011.5 |
| 20260901182202 | 32 | 259 | 0.0 | 0.0 | 0.00 | 0.08 | 0.03 | 66 | 1011.6 |
| 20260901182056 | 32 | 259 | 0.0 | 0.0 | 0.00 | 0.08 | 0.03 | 66 | 1011.6 |
| 20260901182021 | 32 | 259 | 0.0 | 0.0 | 0.00 | 0.08 | 0.03 | 66 | 1011.4 |
| 20260901182015 | 32 | 259 | 0.0 | 0.0 | 0.00 | 0.08 | 0.03 | 65 | 1011.4 |
| 20260901182009 | 32 | 259 | 0.0 | 0.0 | 0.00 | 0.08 | 0.03 | 66 | 1011.5 |
| 20260901181814 | 31 | 234 | 0.0 | 4.8 | 0.00 | 0.08 | 0.03 | 67 | 1011.4 |
| 20260901181800 | 32 | 273 | 0.0 | 0.0 | 0.00 | 0.08 | 0.03 | 65 | 1011.4 |
| 20260901181710 | 32 | 275 | 0.0 | 3.2 | 0.00 | 0.08 | 0.03 | 67 | 1011.4 |
| 20260901181701 | 31 | 234 | 0.0 | 4.8 | 0.00 | 0.08 | 0.03 | 67 | 1011.4 |
| 20260901181521 | 31 | 277 | 0.0 | 4.8 | 0.00 | 0.08 | 0.03 | 68 | 1011.3 |
| 20260901181458 | 31 | 277 | 1.6 | 4.8 | 0.00 | 0.08 | 0.03 | 68 | 1011.4 |
| 20260901181412 | 31 | 275 | 1.6 | 14.5 | 0.00 | 0.08 | 0.03 | 68 | 1011.4 |
| 20260901181408 | 31 | 276 | 1.6 | 4.8 | 0.00 | 0.08 | 0.03 | 68 | 1011.4 |
| 20260901181158 | 31 | 275 | 3.2 | 14.5 | 0.00 | 0.08 | 0.03 | 67 | 1011.4 |
| 20260901181116 | 31 | 275 | 3.2 | 14.5 | 0.00 | 0.08 | 0.03 | 67 | 1011.4 |
| 20260901181108 | 31 | 275 | 3.2 | 14.5 | 0.00 | 0.08 | 0.03 | 68 | 1011.4 |
| 20260901181021 | 31 | 275 | 0.0 | 14.5 | 0.00 | 0.08 | 0.03 | 67 | 1011.4 |
| 20260901180856 | 31 | 244 | 3.2 | 14.5 | 0.00 | 0.08 | 0.03 | 68 | 1011.4 |
| 20260901180809 | 31 | 225 | 3.2 | 14.5 | 0.00 | 0.08 | 0.03 | 67 | 1011.4 |
| 20260901180805 | 31 | 229 | 3.2 | 14.5 | 0.00 | 0.08 | 0.03 | 67 | 1011.4 |
| 20260901180557 | 31 | 296 | 3.2 | 14.5 | 0.00 | 0.08 | 0.03 | 67 | 1011.4 |
| 20260901180521 | 31 | 300 | 0.0 | 14.5 | 0.00 | 0.08 | 0.03 | 66 | 1011.5 |
| 20260901180455 | 31 | 300 | 3.2 | 14.5 | 0.00 | 0.08 | 0.03 | 66 | 1011.5 |
| 20260901180354 | 31 | 299 | 3.2 | 14.5 | 0.00 | 0.08 | 0.03 | 65 | 1011.5 |
| 20260901180253 | 31 | 239 | 3.2 | 8.0 | 0.00 | 0.08 | 0.03 | 67 | 1011.5 |
| 20260901180153 | 31 | 232 | 3.2 | 8.0 | 0.00 | 0.08 | 0.03 | 68 | 1011.5 |
| 20260901180054 | 31 | 232 | 3.2 | 8.0 | 0.00 | 0.08 | 0.03 | 68 | 1011.5 |
| 20260901180021 | 31 | 236 | 3.2 | 8.0 | 0.00 | 0.08 | 0.03 | 68 | 1011.5 |
| 20260901175952 | 31 | 236 | 3.2 | 8.0 | 0.00 | 0.08 | 0.03 | 68 | 1011.5 |
| 20260901175850 | 31 | 236 | 3.2 | 8.0 | 0.00 | 0.08 | 0.03 | 68 | 1011.5 |
| 20260901175802 | 31 | 236 | 3.2 | 8.0 | 0.00 | 0.08 | 0.03 | 67 | 1011.5 |
| 20260901175758 | 31 | 236 | 3.2 | 8.0 | 0.00 | 0.08 | 0.03 | 68 | 1011.5 |
| 20260901175548 | 31 | 236 | 1.6 | 8.0 | 0.00 | 0.08 | 0.03 | 65 | 1011.5 |
| 20260901175521 | 31 | 236 | 3.2 | 8.0 | 0.00 | 0.08 | 0.03 | 66 | 1011.6 |
| 20260901175448 | 31 | 236 | 1.6 | 8.0 | 0.00 | 0.08 | 0.03 | 66 | 1011.6 |
| 20260901175347 | 31 | 251 | 1.6 | 6.4 | 0.00 | 0.08 | 0.03 | 67 | 1011.6 |
| 20260901175247 | 31 | 195 | 1.6 | 4.8 | 0.00 | 0.08 | 0.03 | 66 | 1011.6 |
| 20260901175145 | 31 | 198 | 1.6 | 4.8 | 0.00 | 0.08 | 0.03 | 67 | 1011.7 |
| 20260901175045 | 31 | 198 | 0.0 | 4.8 | 0.00 | 0.08 | 0.03 | 66 | 1011.6 |
| 20260901175021 | 31 | 190 | 3.2 | 4.8 | 0.00 | 0.08 | 0.03 | 67 | 1011.6 |
| 20260901174945 | 31 | 190 | 0.0 | 4.8 | 0.00 | 0.08 | 0.03 | 67 | 1011.6 |
| 20260901174844 | 31 | 187 | 0.0 | 4.8 | 0.00 | 0.08 | 0.03 | 67 | 1011.6 |
| 20260901174757 | 31 | 169 | 0.0 | 0.0 | 0.00 | 0.08 | 0.03 | 67 | 1011.4 |
| 20260901174752 | 31 | 169 | 0.0 | 0.0 | 0.00 | 0.08 | 0.03 | 68 | 1011.4 |
| 20260901174601 | 31 | 228 | 0.0 | 0.0 | 0.00 | 0.08 | 0.03 | 67 | 1011.5 |
| 20260901174557 | 31 | 167 | 0.0 | 0.0 | 0.00 | 0.08 | 0.03 | 66 | 1011.5 |
| 20260901174552 | 31 | 180 | 0.0 | 0.0 | 0.00 | 0.08 | 0.03 | 68 | 1011.5 |
| 20260901174521 | 31 | 218 | 0.0 | 0.0 | 0.00 | 0.08 | 0.03 | 68 | 1011.5 |
| 20260901174341 | 31 | 229 | 0.0 | 0.0 | 0.00 | 0.08 | 0.03 | 67 | 1011.5 |
| 20260901174241 | 31 | 228 | 0.0 | 0.0 | 0.00 | 0.08 | 0.03 | 67 | 1011.6 |
| 20260901174140 | 31 | 227 | 0.0 | 0.0 | 0.00 | 0.08 | 0.03 | 67 | 1011.6 |
| 20260901174047 | 31 | 223 | 0.0 | 0.0 | 0.00 | 0.08 | 0.03 | 68 | 1011.6 |
| 20260901174040 | 31 | 219 | 0.0 | 0.0 | 0.00 | 0.08 | 0.03 | 68 | 1011.6 |
| 20260901174021 | 31 | 219 | 0.0 | 0.0 | 0.00 | 0.08 | 0.03 | 68 | 1011.6 |
| 20260901173939 | 31 | 218 | 0.0 | 0.0 | 0.00 | 0.08 | 0.03 | 68 | 1011.6 |
| 20260901173852 | 31 | 160 | 0.0 | 0.0 | 0.00 | 0.08 | 0.03 | 68 | 1011.6 |
| 20260901173848 | 31 | 246 | 0.0 | 0.0 | 0.00 | 0.08 | 0.03 | 68 | 1011.6 |
| 20260901173638 | 31 | 162 | 0.0 | 0.0 | 0.00 | 0.08 | 0.03 | 68 | 1011.6 |
| 20260901173548 | 31 | 162 | 0.0 | 0.0 | 0.00 | 0.08 | 0.03 | 68 | 1011.6 |
| 20260901173537 | 31 | 155 | 0.0 | 0.0 | 0.00 | 0.08 | 0.03 | 68 | 1011.6 |
| 20260901173521 | 31 | 147 | 0.0 | 0.0 | 0.00 | 0.08 | 0.03 | 69 | 1011.6 |
| 20260901173437 | 31 | 146 | 0.0 | 0.0 | 0.00 | 0.08 | 0.03 | 67 | 1011.6 |
| 20260901173350 | 31 | 196 | 0.0 | 0.0 | 0.00 | 0.08 | 0.03 | 69 | 1011.6 |
| 20260901173345 | 31 | 175 | 0.0 | 0.0 | 0.00 | 0.08 | 0.03 | 69 | 1011.6 |
| 20260901173135 | 30 | 181 | 0.0 | 0.0 | 0.00 | 0.08 | 0.03 | 69 | 1011.6 |
| 20260901173057 | 30 | 219 | 0.0 | 0.0 | 0.00 | 0.08 | 0.03 | 68 | 1011.5 |
| 20260901173021 | 31 | 278 | 0.0 | 0.0 | 0.00 | 0.08 | 0.03 | 68 | 1011.6 |
| 20260901172943 | 30 | 185 | 0.0 | 0.0 | 0.00 | 0.08 | 0.03 | 68 | 1011.6 |
| 20260901172733 | 31 | 182 | 0.0 | 0.0 | 0.00 | 0.08 | 0.03 | 67 | 1011.6 |
| 20260901172632 | 31 | 180 | 0.0 | 0.0 | 0.00 | 0.08 | 0.03 | 68 | 1011.6 |
| 20260901172546 | 31 | 219 | 0.0 | 0.0 | 0.00 | 0.08 | 0.03 | 69 | 1011.6 |
| 20260901172532 | 31 | 219 | 0.0 | 0.0 | 0.00 | 0.08 | 0.03 | 69 | 1011.6 |
| 20260901172521 | 31 | 219 | 0.0 | 0.0 | 0.00 | 0.08 | 0.03 | 69 | 1011.6 |
| 20260901172444 | 30 | 261 | 0.0 | 0.0 | 0.00 | 0.08 | 0.03 | 70 | 1011.6 |
| 20260901172440 | 30 | 248 | 0.0 | 0.0 | 0.00 | 0.08 | 0.03 | 69 | 1011.6 |
| 20260901172231 | 30 | 230 | 0.0 | 0.0 | 0.00 | 0.08 | 0.03 | 69 | 1011.7 |
| 20260901172130 | 30 | 230 | 0.0 | 0.0 | 0.00 | 0.08 | 0.03 | 69 | 1011.7 |
| 20260901172046 | 30 | 240 | 0.0 | 0.0 | 0.00 | 0.08 | 0.03 | 70 | 1011.7 |
| 20260901172030 | 30 | 198 | 0.0 | 0.0 | 0.00 | 0.08 | 0.03 | 70 | 1011.7 |
| 20260901172021 | 30 | 198 | 0.0 | 0.0 | 0.00 | 0.08 | 0.03 | 69 | 1011.7 |
| 20260901171942 | 30 | 231 | 0.0 | 0.0 | 0.00 | 0.08 | 0.03 | 70 | 1011.8 |
| 20260901171938 | 30 | 180 | 0.0 | 0.0 | 0.00 | 0.08 | 0.03 | 69 | 1011.7 |
| 20260901171727 | 30 | 231 | 0.0 | 0.0 | 0.00 | 0.08 | 0.03 | 72 | 1011.9 |
| 20260901171645 | 30 | 210 | 0.0 | 0.0 | 0.00 | 0.08 | 0.03 | 70 | 1011.9 |
| 20260901171641 | 30 | 210 | 0.0 | 0.0 | 0.00 | 0.08 | 0.03 | 71 | 1011.9 |
| 20260901171632 | 30 | 212 | 0.0 | 0.0 | 0.00 | 0.08 | 0.03 | 70 | 1011.9 |
| 20260901171536 | 30 | 210 | 0.0 | 0.0 | 0.00 | 0.08 | 0.03 | 71 | 1011.9 |
| 20260901171426 | 30 | 211 | 0.0 | 0.0 | 0.00 | 0.08 | 0.03 | 71 | 1011.9 |
| 20260901171326 | 30 | 316 | 0.0 | 0.0 | 0.00 | 0.08 | 0.03 | 71 | 1012.0 |
| 20260901171224 | 30 | 208 | 0.0 | 0.0 | 0.00 | 0.08 | 0.03 | 73 | 1012.0 |
| 20260901171124 | 30 | 209 | 0.0 | 0.0 | 0.00 | 0.08 | 0.03 | 73 | 1012.0 |
| 20260901171045 | 30 | 262 | 0.0 | 0.0 | 0.00 | 0.08 | 0.03 | 73 | 1012.0 |
| 20260901171023 | 30 | 235 | 0.0 | 0.0 | 0.00 | 0.08 | 0.03 | 73 | 1012.0 |
| 20260901171021 | 30 | 235 | 0.0 | 0.0 | 0.00 | 0.08 | 0.03 | 73 | 1011.9 |
| 20260901170923 | 30 | 237 | 0.0 | 0.0 | 0.00 | 0.08 | 0.03 | 73 | 1012.0 |
| 20260901170823 | 30 | 221 | 0.0 | 0.0 | 0.00 | 0.08 | 0.03 | 73 | 1012.1 |
| 20260901170736 | 29 | 165 | 0.0 | 0.0 | 0.00 | 0.08 | 0.03 | 75 | 1012.1 |
| 20260901170732 | 29 | 220 | 0.0 | 0.0 | 0.00 | 0.08 | 0.03 | 76 | 1012.1 |
| 20260901170545 | 29 | 164 | 0.0 | 0.0 | 0.00 | 0.08 | 0.03 | 75 | 1012.0 |
| 20260901170522 | 29 | 164 | 0.0 | 0.0 | 0.00 | 0.08 | 0.03 | 76 | 1012.0 |
| 20260901170421 | 29 | 164 | 0.0 | 0.0 | 0.00 | 0.08 | 0.03 | 76 | 1012.1 |
| 20260901170404 | 29 | 158 | 0.0 | 0.0 | 0.00 | 0.08 | 0.03 | 76 | 1012.2 |
| 20260901170320 | 29 | 160 | 0.0 | 0.0 | 0.00 | 0.08 | 0.03 | 76 | 1012.1 |
| 20260901170256 | 29 | 159 | 0.0 | 0.0 | 0.00 | 0.08 | 0.03 | 75 | 1012.1 |
| 20260901170247 | 29 | 159 | 0.0 | 0.0 | 0.00 | 0.08 | 0.03 | 76 | 1012.2 |
| 20260901170028 | 29 | 190 | 0.0 | 0.0 | 0.00 | 0.08 | 0.03 | 76 | 1012.2 |
| 20260901170021 | 29 | 206 | 0.0 | 0.0 | 0.00 | 0.08 | 0.03 | 76 | 1012.1 |
| 20260901165818 | 28 | 128 | 0.0 | 0.0 | 0.00 | 0.08 | 0.03 | 77 | 1012.2 |
| 20260901165717 | 28 | 254 | 0.0 | 0.0 | 0.00 | 0.08 | 0.03 | 77 | 1012.1 |
| 20260901165617 | 28 | 257 | 0.0 | 0.0 | 0.00 | 0.08 | 0.03 | 79 | 1012.2 |
| 20260901165543 | 28 | 276 | 0.0 | 0.0 | 0.00 | 0.08 | 0.03 | 79 | 1012.2 |
| 20260901165521 | 28 | 196 | 0.0 | 0.0 | 0.00 | 0.08 | 0.03 | 79 | 1012.1 |
| 20260901165515 | 28 | 196 | 0.0 | 0.0 | 0.00 | 0.08 | 0.03 | 79 | 1012.2 |
| 20260901165416 | 28 | 196 | 0.0 | 0.0 | 0.00 | 0.08 | 0.03 | 79 | 1012.2 |
| 20260901165343 | 28 | 211 | 0.0 | 0.0 | 0.00 | 0.08 | 0.03 | 82 | 1012.1 |
| 20260901165313 | 28 | 192 | 0.0 | 0.0 | 0.00 | 0.08 | 0.03 | 80 | 1012.2 |
| 20260901165244 | 28 | 213 | 0.0 | 0.0 | 0.00 | 0.08 | 0.03 | 82 | 1012.1 |
| 20260901165239 | 28 | 211 | 0.0 | 0.0 | 0.00 | 0.08 | 0.03 | 81 | 1012.2 |
| 20260901165230 | 28 | 211 | 0.0 | 0.0 | 0.00 | 0.08 | 0.03 | 81 | 1012.1 |
| 20260901165021 | 28 | 213 | 0.0 | 0.0 | 0.00 | 0.08 | 0.03 | 82 | 1011.9 |
| 20260901165008 | 27 | 211 | 0.0 | 0.0 | 0.00 | 0.08 | 0.03 | 82 | 1011.8 |
| 20260901165002 | 28 | 212 | 0.0 | 0.0 | 0.00 | 0.08 | 0.03 | 82 | 1011.9 |
| 20260901164850 | 27 | 212 | 0.0 | 0.0 | 0.00 | 0.08 | 0.03 | 83 | 1011.8 |
| 20260901164844 | 28 | 211 | 0.0 | 0.0 | 0.00 | 0.08 | 0.03 | 82 | 1011.8 |
| 20260901164725 | 27 | 211 | 0.0 | 0.0 | 0.00 | 0.08 | 0.03 | 82 | 1011.7 |
| 20260901164521 | 27 | 213 | 0.0 | 0.0 | 0.00 | 0.08 | 0.03 | 83 | 1011.8 |
| 20260901164410 | 27 | 177 | 0.0 | 0.0 | 0.00 | 0.08 | 0.03 | 84 | 1011.8 |
| 20260901164309 | 27 | 157 | 0.0 | 0.0 | 0.00 | 0.08 | 0.03 | 85 | 1011.8 |
| 20260901164210 | 27 | 157 | 0.0 | 0.0 | 0.00 | 0.08 | 0.03 | 84 | 1011.8 |
| 20260901164109 | 27 | 157 | 0.0 | 0.0 | 0.00 | 0.08 | 0.03 | 85 | 1011.9 |
| 20260901164021 | 27 | 157 | 0.0 | 0.0 | 0.00 | 0.08 | 0.03 | 85 | 1011.9 |
| 20260901164009 | 27 | 157 | 0.0 | 0.0 | 0.00 | 0.08 | 0.03 | 85 | 1011.9 |
| 20260901163909 | 27 | 157 | 0.0 | 0.0 | 0.00 | 0.08 | 0.03 | 85 | 1011.9 |
| 20260901163807 | 26 | 160 | 0.0 | 0.0 | 0.00 | 0.08 | 0.03 | 85 | 1011.9 |
| 20260901163707 | 26 | 160 | 0.0 | 0.0 | 0.00 | 0.08 | 0.03 | 86 | 1011.9 |
| 20260901163607 | 26 | 159 | 0.0 | 0.0 | 0.00 | 0.08 | 0.03 | 86 | 1011.8 |
| 20260901163535 | 26 | 159 | 0.0 | 0.0 | 0.00 | 0.08 | 0.03 | 85 | 1011.7 |
| 20260901163521 | 26 | 159 | 0.0 | 0.0 | 0.00 | 0.08 | 0.03 | 85 | 1011.7 |
| 20260901163516 | 26 | 159 | 0.0 | 0.0 | 0.00 | 0.08 | 0.03 | 85 | 1011.7 |
| 20260901163306 | 26 | 157 | 0.0 | 0.0 | 0.00 | 0.08 | 0.03 | 86 | 1012.1 |
| 20260901163206 | 26 | 155 | 0.0 | 0.0 | 0.00 | 0.08 | 0.03 | 85 | 1012.2 |
| 20260901163105 | 26 | 155 | 0.0 | 0.0 | 0.00 | 0.08 | 0.03 | 86 | 1012.3 |
| 20260901163036 | 26 | 155 | 0.0 | 0.0 | 0.00 | 0.08 | 0.03 | 86 | 1012.4 |
| 20260901163034 | 26 | 155 | 0.0 | 0.0 | 0.00 | 0.08 | 0.03 | 86 | 1012.3 |
| 20260901163005 | 26 | 155 | 0.0 | 0.0 | 0.00 | 0.08 | 0.03 | 86 | 1012.4 |
| 20260901162905 | 26 | 159 | 0.0 | 0.0 | 0.00 | 0.08 | 0.03 | 85 | 1012.3 |
| 20260901162803 | 26 | 159 | 0.0 | 0.0 | 0.00 | 0.08 | 0.03 | 85 | 1012.5 |
| 20260901162717 | 26 | 159 | 0.0 | 0.0 | 0.00 | 0.08 | 0.03 | 84 | 1012.6 |
| 20260901162712 | 26 | 159 | 0.0 | 0.0 | 0.00 | 0.08 | 0.03 | 85 | 1012.5 |
| 20260901162533 | 26 | 159 | 0.0 | 0.0 | 0.00 | 0.08 | 0.03 | 84 | 1012.6 |
| 20260901162521 | 26 | 215 | 0.0 | 0.0 | 0.00 | 0.08 | 0.03 | 84 | 1012.7 |
| 20260901162502 | 26 | 215 | 0.0 | 0.0 | 0.00 | 0.08 | 0.03 | 84 | 1012.7 |
| 20260901162401 | 26 | 215 | 0.0 | 0.0 | 0.00 | 0.08 | 0.03 | 84 | 1012.7 |
| 20260901162301 | 26 | 225 | 0.0 | 0.0 | 0.00 | 0.08 | 0.03 | 84 | 1012.7 |
| 20260901162254 | 27 | 229 | 0.0 | 0.0 | 0.00 | 0.08 | 0.03 | 84 | 1012.8 |
| 20260901162159 | 27 | 229 | 0.0 | 0.0 | 0.00 | 0.08 | 0.03 | 84 | 1012.8 |
| 20260901162141 | 27 | 229 | 0.0 | 0.0 | 0.00 | 0.08 | 0.03 | 84 | 1012.8 |
| 20260901162021 | 27 | 229 | 0.0 | 0.0 | 0.00 | 0.08 | 0.03 | 84 | 1012.9 |
| 20260901161958 | 27 | 229 | 0.0 | 0.0 | 0.00 | 0.08 | 0.03 | 84 | 1012.9 |
| 20260901161911 | 27 | 229 | 0.0 | 0.0 | 0.00 | 0.08 | 0.03 | 84 | 1013.0 |
| 20260901161907 | 27 | 229 | 0.0 | 0.0 | 0.00 | 0.08 | 0.03 | 84 | 1013.0 |
| 20260901161656 | 27 | 229 | 0.0 | 0.0 | 0.00 | 0.08 | 0.03 | 84 | 1013.0 |
| 20260901161556 | 27 | 229 | 0.0 | 0.0 | 0.00 | 0.08 | 0.03 | 84 | 1013.1 |
| 20260901161534 | 27 | 229 | 0.0 | 0.0 | 0.00 | 0.08 | 0.03 | 84 | 1013.1 |
| 20260901161521 | 27 | 229 | 0.0 | 0.0 | 0.00 | 0.08 | 0.03 | 84 | 1013.1 |
| 20260901161507 | 27 | 229 | 0.0 | 0.0 | 0.00 | 0.08 | 0.03 | 84 | 1013.1 |
| 20260901161503 | 27 | 229 | 0.0 | 0.0 | 0.00 | 0.08 | 0.03 | 84 | 1013.1 |
| 20260901161253 | 27 | 229 | 0.0 | 0.0 | 0.00 | 0.08 | 0.03 | 84 | 1013.1 |
| 20260901161153 | 27 | 229 | 0.0 | 0.0 | 0.00 | 0.08 | 0.03 | 84 | 1013.1 |
| 20260901161051 | 27 | 229 | 0.0 | 0.0 | 0.00 | 0.08 | 0.03 | 84 | 1013.1 |
| 20260901161033 | 27 | 229 | 0.0 | 0.0 | 0.00 | 0.08 | 0.03 | 84 | 1013.1 |
| 20260901160952 | 27 | 229 | 0.0 | 0.0 | 0.00 | 0.08 | 0.03 | 84 | 1013.1 |
| 20260901160852 | 27 | 229 | 0.0 | 0.0 | 0.00 | 0.08 | 0.03 | 84 | 1013.1 |
| 20260901160757 | 27 | 229 | 0.0 | 0.0 | 0.00 | 0.08 | 0.03 | 83 | 1013.1 |
| 20260901160752 | 27 | 229 | 0.0 | 0.0 | 0.00 | 0.08 | 0.03 | 84 | 1013.1 |
| 20260901160652 | 27 | 229 | 0.0 | 0.0 | 0.00 | 0.08 | 0.03 | 84 | 1013.1 |
| 20260901160640 | 27 | 229 | 0.0 | 0.0 | 0.00 | 0.08 | 0.03 | 83 | 1013.1 |
| 20260901160522 | 27 | 229 | 0.0 | 0.0 | 0.00 | 0.08 | 0.03 | 83 | 1013.1 |
| 20260901160451 | 27 | 229 | 0.0 | 0.0 | 0.00 | 0.08 | 0.03 | 83 | 1013.1 |
| 20260901160351 | 27 | 229 | 0.0 | 0.0 | 0.00 | 0.08 | 0.03 | 83 | 1013.0 |
| 20260901160250 | 27 | 229 | 0.0 | 0.0 | 0.00 | 0.08 | 0.03 | 82 | 1012.9 |
| 20260901160149 | 27 | 229 | 0.0 | 0.0 | 0.00 | 0.08 | 0.03 | 82 | 1012.9 |
| 20260901160030 | 27 | 229 | 0.0 | 0.0 | 0.00 | 0.08 | 0.03 | 82 | 1012.9 |
| 20260901160021 | 27 | 229 | 0.0 | 0.0 | 0.00 | 0.08 | 0.03 | 82 | 1013.0 |
| 20260901155948 | 27 | 229 | 0.0 | 0.0 | 0.00 | 0.08 | 0.03 | 83 | 1013.0 |
| 20260901155847 | 27 | 229 | 0.0 | 0.0 | 0.00 | 0.08 | 0.03 | 83 | 1012.9 |
| 20260901155746 | 27 | 229 | 0.0 | 0.0 | 0.00 | 0.08 | 0.03 | 83 | 1012.8 |
| 20260901155646 | 27 | 229 | 0.0 | 0.0 | 0.00 | 0.08 | 0.03 | 83 | 1012.8 |
| 20260901155545 | 27 | 229 | 0.0 | 0.0 | 0.00 | 0.08 | 0.03 | 84 | 1012.7 |
| 20260901155528 | 27 | 229 | 0.0 | 0.0 | 0.00 | 0.08 | 0.03 | 83 | 1012.7 |
| 20260901155522 | 27 | 229 | 0.0 | 0.0 | 0.00 | 0.08 | 0.03 | 83 | 1012.6 |
| 20260901155458 | 27 | 229 | 0.0 | 0.0 | 0.00 | 0.08 | 0.03 | 83 | 1012.3 |
| 20260901155454 | 27 | 229 | 0.0 | 0.0 | 0.00 | 0.08 | 0.03 | 83 | 1012.6 |
| 20260901155243 | 27 | 229 | 0.0 | 0.0 | 0.00 | 0.08 | 0.03 | 82 | 1012.5 |
| 20260901155144 | 27 | 229 | 0.0 | 0.0 | 0.00 | 0.08 | 0.03 | 83 | 1012.5 |
| 20260901155043 | 27 | 229 | 0.0 | 0.0 | 0.00 | 0.08 | 0.03 | 83 | 1012.4 |
| 20260901155030 | 27 | 229 | 0.0 | 0.0 | 0.00 | 0.08 | 0.03 | 84 | 1012.4 |
| 20260901155021 | 27 | 231 | 0.0 | 0.0 | 0.00 | 0.08 | 0.03 | 84 | 1012.5 |
| 20260901154943 | 27 | 231 | 0.0 | 0.0 | 0.00 | 0.08 | 0.03 | 84 | 1012.5 |
| 20260901154842 | 27 | 231 | 0.0 | 0.0 | 0.00 | 0.08 | 0.03 | 83 | 1012.4 |
| 20260901154741 | 26 | 231 | 0.0 | 0.0 | 0.00 | 0.08 | 0.03 | 83 | 1012.7 |
| 20260901154640 | 26 | 231 | 0.0 | 0.0 | 0.00 | 0.08 | 0.03 | 84 | 1012.8 |
| 20260901154527 | 26 | 231 | 0.0 | 0.0 | 0.00 | 0.08 | 0.03 | 84 | 1012.8 |
| 20260901154521 | 26 | 231 | 0.0 | 0.0 | 0.00 | 0.08 | 0.03 | 84 | 1012.8 |
| 20260901154440 | 26 | 231 | 0.0 | 0.0 | 0.00 | 0.08 | 0.03 | 84 | 1012.8 |
| 20260901154339 | 26 | 231 | 0.0 | 0.0 | 0.00 | 0.08 | 0.03 | 84 | 1012.9 |
| 20260901154251 | 26 | 231 | 0.0 | 0.0 | 0.00 | 0.08 | 0.03 | 84 | 1013.0 |
| 20260901154239 | 26 | 231 | 0.0 | 0.0 | 0.00 | 0.08 | 0.03 | 84 | 1012.9 |
| 20260901154143 | 26 | 231 | 0.0 | 0.0 | 0.00 | 0.08 | 0.03 | 84 | 1012.9 |
| 20260901154134 | 26 | 231 | 0.0 | 0.0 | 0.00 | 0.08 | 0.03 | 84 | 1013.0 |
| 20260901154021 | 26 | 231 | 0.0 | 0.0 | 0.00 | 0.08 | 0.03 | 84 | 1013.0 |
| 20260901154008 | 26 | 231 | 0.0 | 0.0 | 0.00 | 0.08 | 0.03 | 83 | 1013.0 |
| 20260901154004 | 26 | 231 | 0.0 | 0.0 | 0.00 | 0.08 | 0.03 | 84 | 1013.0 |
| 20260901154000 | 26 | 231 | 0.0 | 0.0 | 0.00 | 0.08 | 0.03 | 84 | 1013.0 |
| 20260901153955 | 26 | 231 | 0.0 | 0.0 | 0.00 | 0.08 | 0.03 | 84 | 1013.0 |
| 20260901153642 | 26 | 231 | 0.0 | 0.0 | 0.00 | 0.08 | 0.03 | 84 | 1012.9 |
| 20260901153633 | 26 | 231 | 0.0 | 0.0 | 0.00 | 0.08 | 0.03 | 84 | 1013.0 |
| 20260901153521 | 26 | 231 | 0.0 | 0.0 | 0.00 | 0.08 | 0.03 | 84 | 1013.0 |
| 20260901153436 | 26 | 231 | 0.0 | 0.0 | 0.00 | 0.08 | 0.03 | 84 | 1013.0 |
| 20260901153334 | 26 | 231 | 0.0 | 0.0 | 0.00 | 0.08 | 0.03 | 84 | 1013.0 |
| 20260901153247 | 26 | 231 | 0.0 | 0.0 | 0.00 | 0.08 | 0.03 | 84 | 1013.0 |
| 20260901153243 | 26 | 231 | 0.0 | 0.0 | 0.00 | 0.08 | 0.03 | 84 | 1013.0 |
| 20260901153051 | 26 | 227 | 0.0 | 0.0 | 0.00 | 0.08 | 0.03 | 85 | 1013.1 |
| 20260901153039 | 26 | 227 | 0.0 | 0.0 | 0.00 | 0.08 | 0.03 | 84 | 1013.0 |
| 20260901153021 | 26 | 227 | 0.0 | 0.0 | 0.00 | 0.08 | 0.03 | 84 | 1013.1 |
| 20260901152843 | 26 | 227 | 0.0 | 0.0 | 0.00 | 0.08 | 0.03 | 84 | 1013.1 |
| 20260901152838 | 26 | 227 | 0.0 | 0.0 | 0.00 | 0.08 | 0.03 | 85 | 1013.1 |
| 20260901152629 | 26 | 227 | 0.0 | 0.0 | 0.00 | 0.08 | 0.03 | 84 | 1013.1 |
| 20260901152600 | 26 | 209 | 0.0 | 0.0 | 0.00 | 0.08 | 0.03 | 85 | 1013.1 |
| 20260901152556 | 26 | 209 | 0.0 | 0.0 | 0.00 | 0.08 | 0.03 | 85 | 1013.0 |
| 20260901152544 | 26 | 227 | 0.0 | 0.0 | 0.00 | 0.08 | 0.03 | 85 | 1013.1 |
| 20260901152521 | 26 | 211 | 0.0 | 0.0 | 0.00 | 0.08 | 0.03 | 85 | 1013.1 |
| 20260901152227 | 26 | 209 | 0.0 | 0.0 | 0.00 | 0.08 | 0.03 | 85 | 1013.0 |
| 20260901152127 | 26 | 209 | 0.0 | 0.0 | 0.00 | 0.08 | 0.03 | 84 | 1013.1 |
| 20260901152022 | 26 | 209 | 0.0 | 0.0 | 0.00 | 0.08 | 0.03 | 84 | 1013.1 |
| 20260901151926 | 26 | 209 | 0.0 | 0.0 | 0.00 | 0.08 | 0.03 | 84 | 1013.0 |
| 20260901151825 | 26 | 209 | 0.0 | 0.0 | 0.00 | 0.08 | 0.03 | 84 | 1013.1 |
| 20260901151725 | 26 | 209 | 0.0 | 0.0 | 0.00 | 0.08 | 0.03 | 84 | 1013.0 |
| 20260901151644 | 26 | 209 | 0.0 | 0.0 | 0.00 | 0.08 | 0.03 | 85 | 1013.1 |
| 20260901151638 | 26 | 209 | 0.0 | 0.0 | 0.00 | 0.08 | 0.03 | 85 | 1013.1 |
| 20260901151525 | 26 | 209 | 0.0 | 0.0 | 0.00 | 0.08 | 0.03 | 85 | 1013.1 |
| 20260901151521 | 26 | 209 | 0.0 | 0.0 | 0.00 | 0.08 | 0.03 | 85 | 1013.1 |
| 20260901151437 | 26 | 209 | 0.0 | 0.0 | 0.00 | 0.08 | 0.03 | 85 | 1013.1 |
| 20260901151433 | 26 | 209 | 0.0 | 0.0 | 0.00 | 0.08 | 0.03 | 85 | 1013.1 |
| 20260901151317 | 26 | 209 | 0.0 | 0.0 | 0.00 | 0.08 | 0.03 | 85 | 1013.0 |
| 20260901151311 | 26 | 209 | 0.0 | 0.0 | 0.00 | 0.08 | 0.03 | 85 | 1013.1 |
| 20260901151049 | 26 | 209 | 0.0 | 0.0 | 0.00 | 0.08 | 0.03 | 86 | 1013.0 |
| 20260901151044 | 26 | 209 | 0.0 | 0.0 | 0.00 | 0.08 | 0.03 | 85 | 1013.0 |
| 20260901151038 | 26 | 209 | 0.0 | 0.0 | 0.00 | 0.08 | 0.03 | 86 | 1013.0 |
| 20260901151021 | 26 | 209 | 0.0 | 0.0 | 0.00 | 0.08 | 0.03 | 86 | 1013.0 |
| 20260901150733 | 26 | 209 | 0.0 | 0.0 | 0.00 | 0.08 | 0.03 | 86 | 1013.0 |
| 20260901150728 | 26 | 209 | 0.0 | 0.0 | 0.00 | 0.08 | 0.03 | 86 | 1013.0 |
| 20260901150521 | 26 | 209 | 0.0 | 0.0 | 0.00 | 0.08 | 0.03 | 86 | 1013.1 |
| 20260901150519 | 26 | 209 | 0.0 | 0.0 | 0.00 | 0.08 | 0.03 | 86 | 1013.1 |
| 20260901150418 | 26 | 209 | 0.0 | 0.0 | 0.00 | 0.08 | 0.03 | 86 | 1013.1 |
| 20260901150318 | 26 | 209 | 0.0 | 0.0 | 0.00 | 0.08 | 0.03 | 85 | 1013.1 |
| 20260901150217 | 26 | 209 | 0.0 | 0.0 | 0.00 | 0.08 | 0.03 | 85 | 1013.1 |
| 20260901150145 | 26 | 209 | 0.0 | 0.0 | 0.00 | 0.08 | 0.03 | 85 | 1013.1 |
| 20260901150026 | 26 | 209 | 0.0 | 0.0 | 0.00 | 0.08 | 0.03 | 85 | 1013.1 |
| 20260901150022 | 26 | 209 | 0.0 | 0.0 | 0.00 | 0.08 | 0.03 | 85 | 1013.1 |
| 20260901145837 | 26 | 209 | 0.0 | 0.0 | 0.00 | 0.08 | 0.03 | 85 | 1013.1 |
| 20260901145723 | 26 | 209 | 0.0 | 0.0 | 0.00 | 0.08 | 0.03 | 85 | 1013.1 |
| 20260901145536 | 26 | 209 | 0.0 | 0.0 | 0.00 | 0.08 | 0.03 | 85 | 1013.1 |
| 20260901145514 | 26 | 209 | 0.0 | 0.0 | 0.00 | 0.08 | 0.03 | 85 | 1013.1 |
| 20260901145413 | 26 | 209 | 0.0 | 0.0 | 0.00 | 0.08 | 0.03 | 86 | 1013.1 |
| 20260901145313 | 26 | 209 | 0.0 | 0.0 | 0.00 | 0.08 | 0.03 | 86 | 1013.1 |
| 20260901145213 | 26 | 209 | 0.0 | 0.0 | 0.00 | 0.08 | 0.03 | 86 | 1013.1 |
| 20260901145112 | 26 | 209 | 0.0 | 0.0 | 0.00 | 0.08 | 0.03 | 86 | 1013.0 |
| 20260901145021 | 26 | 209 | 0.0 | 0.0 | 0.00 | 0.08 | 0.03 | 86 | 1013.0 |
| 20260901145017 | 26 | 209 | 0.0 | 0.0 | 0.00 | 0.08 | 0.03 | 86 | 1013.0 |
| 20260901145012 | 26 | 209 | 0.0 | 0.0 | 0.00 | 0.08 | 0.03 | 86 | 1013.0 |
| 20260901144924 | 26 | 209 | 0.0 | 0.0 | 0.00 | 0.08 | 0.03 | 87 | 1012.9 |
| 20260901144920 | 26 | 209 | 0.0 | 0.0 | 0.00 | 0.08 | 0.03 | 86 | 1013.0 |
| 20260901144710 | 26 | 211 | 0.0 | 0.0 | 0.00 | 0.08 | 0.03 | 87 | 1012.9 |
| 20260901144609 | 26 | 211 | 0.0 | 0.0 | 0.00 | 0.08 | 0.03 | 87 | 1012.8 |
| 20260901144521 | 26 | 211 | 0.0 | 0.0 | 0.00 | 0.08 | 0.03 | 87 | 1011.9 |
| 20260901144508 | 26 | 211 | 0.0 | 0.0 | 0.00 | 0.08 | 0.03 | 87 | 1012.6 |
| 20260901144408 | 26 | 211 | 0.0 | 0.0 | 0.00 | 0.08 | 0.03 | 87 | 1011.9 |
| 20260901144308 | 26 | 211 | 0.0 | 0.0 | 0.00 | 0.08 | 0.03 | 87 | 1011.8 |
| 20260901144220 | 25 | 213 | 0.0 | 0.0 | 0.00 | 0.08 | 0.03 | 88 | 1012.6 |
| 20260901144216 | 26 | 212 | 0.0 | 0.0 | 0.00 | 0.08 | 0.03 | 87 | 1012.2 |
| 20260901144021 | 26 | 212 | 0.0 | 0.0 | 0.00 | 0.08 | 0.03 | 88 | 1012.6 |
| 20260901144014 | 25 | 213 | 0.0 | 0.0 | 0.00 | 0.08 | 0.03 | 88 | 1012.6 |
| 20260901144006 | 25 | 212 | 0.0 | 0.0 | 0.00 | 0.08 | 0.03 | 88 | 1012.6 |
| 20260901143906 | 25 | 213 | 0.0 | 0.0 | 0.00 | 0.08 | 0.03 | 88 | 1012.6 |
| 20260901143805 | 25 | 212 | 0.0 | 0.0 | 0.00 | 0.08 | 0.03 | 88 | 1012.7 |
| 20260901143705 | 25 | 213 | 0.0 | 0.0 | 0.00 | 0.08 | 0.03 | 88 | 1012.8 |
| 20260901143605 | 25 | 213 | 0.0 | 0.0 | 0.00 | 0.08 | 0.03 | 88 | 1012.7 |
| 20260901143521 | 25 | 212 | 0.0 | 0.0 | 0.00 | 0.08 | 0.03 | 88 | 1012.4 |
| 20260901143512 | 25 | 213 | 0.0 | 0.0 | 0.00 | 0.08 | 0.03 | 88 | 1012.7 |
| 20260901143504 | 25 | 212 | 0.0 | 0.0 | 0.00 | 0.08 | 0.03 | 88 | 1012.4 |
| 20260901143408 | 25 | 212 | 0.0 | 0.0 | 0.00 | 0.08 | 0.03 | 88 | 1012.2 |
| 20260901143404 | 25 | 212 | 0.0 | 0.0 | 0.00 | 0.08 | 0.03 | 88 | 1012.4 |
| 20260901143357 | 25 | 222 | 0.0 | 0.0 | 0.00 | 0.08 | 0.03 | 88 | 1012.2 |
| 20260901143351 | 25 | 213 | 0.0 | 0.0 | 0.00 | 0.08 | 0.03 | 88 | 1012.1 |
| 20260901143051 | 25 | 227 | 0.0 | 0.0 | 0.00 | 0.08 | 0.03 | 88 | 1012.5 |
| 20260901143017 | 25 | 227 | 0.0 | 0.0 | 0.00 | 0.08 | 0.03 | 88 | 1012.2 |
| 20260901143011 | 25 | 227 | 0.0 | 0.0 | 0.00 | 0.08 | 0.03 | 88 | 1012.5 |
| 20260901142801 | 25 | 227 | 0.0 | 0.0 | 0.00 | 0.08 | 0.03 | 88 | 1012.6 |
| 20260901142700 | 25 | 227 | 0.0 | 0.0 | 0.00 | 0.08 | 0.03 | 89 | 1012.6 |
| 20260901142600 | 25 | 227 | 0.0 | 0.0 | 0.00 | 0.08 | 0.03 | 89 | 1012.6 |
| 20260901142521 | 25 | 227 | 0.0 | 0.0 | 0.00 | 0.08 | 0.03 | 89 | 1012.8 |
| 20260901142508 | 25 | 227 | 0.0 | 0.0 | 0.00 | 0.08 | 0.03 | 89 | 1012.6 |
| 20260901142500 | 25 | 227 | 0.0 | 0.0 | 0.00 | 0.08 | 0.03 | 89 | 1012.8 |
| 20260901142359 | 25 | 227 | 0.0 | 0.0 | 0.00 | 0.08 | 0.03 | 89 | 1012.9 |
| 20260901142259 | 25 | 227 | 0.0 | 0.0 | 0.00 | 0.08 | 0.03 | 89 | 1013.0 |
| 20260901142158 | 25 | 227 | 0.0 | 0.0 | 0.00 | 0.08 | 0.03 | 89 | 1013.0 |
| 20260901142057 | 25 | 227 | 0.0 | 0.0 | 0.00 | 0.08 | 0.03 | 90 | 1013.0 |
| 20260901142036 | 25 | 227 | 0.0 | 0.0 | 0.00 | 0.08 | 0.03 | 90 | 1013.0 |
| 20260901142008 | 25 | 227 | 0.0 | 0.0 | 0.00 | 0.08 | 0.03 | 90 | 1013.0 |
| 20260901141958 | 25 | 227 | 0.0 | 0.0 | 0.00 | 0.08 | 0.03 | 90 | 1013.0 |
| 20260901141910 | 25 | 227 | 0.0 | 0.0 | 0.00 | 0.08 | 0.03 | 89 | 1013.0 |
| 20260901141906 | 25 | 227 | 0.0 | 0.0 | 0.00 | 0.08 | 0.03 | 90 | 1013.0 |
| 20260901141656 | 25 | 227 | 0.0 | 0.0 | 0.00 | 0.08 | 0.03 | 89 | 1013.1 |
| 20260901141555 | 25 | 227 | 0.0 | 0.0 | 0.00 | 0.08 | 0.03 | 90 | 1013.0 |
| 20260901141521 | 25 | 227 | 0.0 | 0.0 | 0.00 | 0.08 | 0.03 | 90 | 1013.0 |
| 20260901141508 | 25 | 227 | 0.0 | 0.0 | 0.00 | 0.08 | 0.03 | 90 | 1013.0 |
| 20260901141454 | 25 | 227 | 0.0 | 0.0 | 0.00 | 0.08 | 0.03 | 90 | 1013.0 |
| 20260901141354 | 25 | 227 | 0.0 | 0.0 | 0.00 | 0.08 | 0.03 | 90 | 1013.1 |
| 20260901141254 | 25 | 227 | 0.0 | 0.0 | 0.00 | 0.08 | 0.03 | 90 | 1013.1 |
| 20260901141153 | 25 | 227 | 0.0 | 0.0 | 0.00 | 0.08 | 0.03 | 91 | 1013.1 |
| 20260901141053 | 25 | 227 | 0.0 | 0.0 | 0.00 | 0.08 | 0.03 | 91 | 1013.0 |
| 20260901141021 | 25 | 227 | 0.0 | 0.0 | 0.00 | 0.08 | 0.03 | 91 | 1013.0 |
| 20260901141006 | 25 | 227 | 0.0 | 0.0 | 0.00 | 0.08 | 0.03 | 91 | 1013.0 |
| 20260901140952 | 25 | 227 | 0.0 | 0.0 | 0.00 | 0.08 | 0.03 | 91 | 1013.0 |
| 20260901140851 | 25 | 227 | 0.0 | 0.0 | 0.00 | 0.08 | 0.03 | 92 | 1013.0 |
| 20260901140836 | 25 | 226 | 0.0 | 0.0 | 0.00 | 0.08 | 0.03 | 92 | 1012.9 |
| 20260901140651 | 25 | 226 | 0.0 | 0.0 | 0.00 | 0.08 | 0.03 | 92 | 1012.8 |
| 20260901140615 | 25 | 226 | 0.0 | 0.0 | 0.00 | 0.08 | 0.03 | 92 | 1012.8 |
| 20260901140521 | 25 | 226 | 0.0 | 0.0 | 0.00 | 0.08 | 0.03 | 92 | 1012.8 |
| 20260901140450 | 25 | 226 | 0.0 | 0.0 | 0.00 | 0.08 | 0.03 | 92 | 1012.8 |
| 20260901140350 | 25 | 226 | 0.0 | 0.0 | 0.00 | 0.08 | 0.03 | 92 | 1012.8 |
| 20260901140322 | 25 | 223 | 0.0 | 0.0 | 0.00 | 0.08 | 0.03 | 94 | 1012.8 |
| 20260901140248 | 25 | 226 | 0.0 | 0.0 | 0.00 | 0.08 | 0.03 | 93 | 1012.8 |
| 20260901140229 | 25 | 223 | 0.0 | 0.0 | 0.00 | 0.08 | 0.03 | 94 | 1012.8 |
| 20260901140225 | 24 | 250 | 0.0 | 0.0 | 0.00 | 0.08 | 0.03 | 94 | 1012.7 |
| 20260901140219 | 25 | 223 | 0.0 | 0.0 | 0.00 | 0.08 | 0.03 | 93 | 1012.6 |
| 20260901140210 | 25 | 223 | 0.0 | 0.0 | 0.00 | 0.08 | 0.03 | 93 | 1012.7 |
| 20260901140021 | 25 | 223 | 0.0 | 0.0 | 0.00 | 0.08 | 0.03 | 94 | 1012.9 |
| 20260901135747 | 24 | 250 | 0.0 | 0.0 | 0.00 | 0.08 | 0.03 | 94 | 1010.6 |
| 20260901135646 | 24 | 250 | 0.0 | 0.0 | 0.00 | 0.08 | 0.03 | 94 | 1010.6 |
| 20260901135545 | 24 | 249 | 0.0 | 0.0 | 0.00 | 0.08 | 0.03 | 95 | 1010.8 |
| 20260901135521 | 24 | 249 | 0.0 | 0.0 | 0.00 | 0.08 | 0.03 | 95 | 1011.7 |
| 20260901135505 | 24 | 249 | 0.0 | 0.0 | 0.00 | 0.08 | 0.03 | 95 | 1011.8 |
| 20260901135445 | 24 | 249 | 0.0 | 0.0 | 0.00 | 0.08 | 0.03 | 95 | 1011.7 |
| 20260901135344 | 24 | 249 | 0.0 | 0.0 | 0.00 | 0.08 | 0.03 | 95 | 1011.7 |
| 20260901135310 | 24 | 260 | 0.0 | 0.0 | 0.00 | 0.08 | 0.03 | 95 | 1011.0 |
| 20260901135306 | 24 | 260 | 0.0 | 0.0 | 0.00 | 0.08 | 0.03 | 95 | 1010.9 |
| 20260901135021 | 24 | 260 | 0.0 | 0.0 | 0.00 | 0.08 | 0.03 | 95 | 1012.4 |
| 20260901135005 | 24 | 260 | 0.0 | 0.0 | 0.00 | 0.08 | 0.03 | 95 | 1012.4 |
| 20260901134955 | 24 | 260 | 0.0 | 0.0 | 0.00 | 0.08 | 0.03 | 95 | 1012.4 |
| 20260901134951 | 24 | 260 | 0.0 | 0.0 | 0.00 | 0.08 | 0.03 | 95 | 1012.4 |
| 20260901134753 | 24 | 260 | 0.0 | 0.0 | 0.00 | 0.08 | 0.03 | 95 | 1012.7 |
| 20260901134749 | 24 | 260 | 0.0 | 0.0 | 0.00 | 0.08 | 0.03 | 95 | 1012.5 |
| 20260901134538 | 23 | 255 | 0.0 | 0.0 | 0.00 | 0.08 | 0.03 | 95 | 1012.8 |
| 20260901134521 | 23 | 255 | 0.0 | 0.0 | 0.00 | 0.08 | 0.03 | 95 | 1013.0 |
| 20260901134511 | 23 | 257 | 0.0 | 0.0 | 0.00 | 0.08 | 0.03 | 95 | 1013.0 |
| 20260901134507 | 23 | 255 | 0.0 | 0.0 | 0.00 | 0.08 | 0.03 | 95 | 1013.0 |
| 20260901134502 | 23 | 257 | 0.0 | 0.0 | 0.00 | 0.08 | 0.03 | 95 | 1013.0 |
| 20260901134456 | 23 | 255 | 0.0 | 0.0 | 0.00 | 0.08 | 0.03 | 95 | 1013.0 |
| 20260901134137 | 23 | 257 | 0.0 | 0.0 | 0.00 | 0.08 | 0.03 | 95 | 1013.0 |
| 20260901134057 | 23 | 257 | 0.0 | 0.0 | 0.00 | 0.08 | 0.03 | 95 | 1013.1 |
| 20260901134052 | 23 | 257 | 0.0 | 0.0 | 0.00 | 0.08 | 0.03 | 95 | 1013.2 |
| 20260901134044 | 23 | 257 | 0.0 | 0.0 | 0.00 | 0.08 | 0.03 | 95 | 1013.1 |
| 20260901134021 | 23 | 257 | 0.0 | 0.0 | 0.00 | 0.08 | 0.03 | 95 | 1013.1 |
| 20260901133843 | 23 | 256 | 0.0 | 0.0 | 0.00 | 0.08 | 0.03 | 96 | 1013.1 |
| 20260901133834 | 23 | 256 | 0.0 | 0.0 | 0.00 | 0.08 | 0.03 | 96 | 1013.0 |
| 20260901133635 | 23 | 255 | 0.0 | 0.0 | 0.00 | 0.08 | 0.03 | 96 | 1012.7 |
| 20260901133612 | 23 | 261 | 0.0 | 0.0 | 0.00 | 0.08 | 0.03 | 96 | 1012.6 |
| 20260901133536 | 23 | 261 | 0.0 | 0.0 | 0.00 | 0.08 | 0.03 | 96 | 1012.4 |
| 20260901133432 | 23 | 261 | 0.0 | 0.0 | 0.00 | 0.08 | 0.03 | 96 | 1012.4 |
| 20260901133344 | 23 | 261 | 0.0 | 0.0 | 0.00 | 0.08 | 0.03 | 96 | 1012.4 |
| 20260901133231 | 23 | 261 | 0.0 | 0.0 | 0.00 | 0.08 | 0.03 | 96 | 1012.8 |
| 20260901133131 | 23 | 261 | 0.0 | 0.0 | 0.00 | 0.08 | 0.03 | 96 | 1012.9 |
| 20260901133111 | 23 | 261 | 0.0 | 0.0 | 0.00 | 0.08 | 0.03 | 96 | 1013.0 |
| 20260901133021 | 23 | 261 | 0.0 | 0.0 | 0.00 | 0.08 | 0.03 | 96 | 1013.1 |
| 20260901132930 | 23 | 261 | 0.0 | 0.0 | 0.00 | 0.08 | 0.03 | 96 | 1013.1 |
| 20260901132830 | 23 | 261 | 0.0 | 0.0 | 0.00 | 0.08 | 0.03 | 96 | 1013.1 |
| 20260901132729 | 23 | 261 | 0.0 | 0.0 | 0.00 | 0.08 | 0.03 | 96 | 1013.2 |
| 20260901132628 | 23 | 261 | 0.0 | 0.0 | 0.00 | 0.08 | 0.03 | 96 | 1013.1 |
| 20260901132527 | 23 | 261 | 0.0 | 0.0 | 0.00 | 0.08 | 0.03 | 96 | 1013.1 |
| 20260901132521 | 23 | 261 | 0.0 | 0.0 | 0.00 | 0.08 | 0.03 | 96 | 1013.2 |
| 20260901132503 | 23 | 261 | 0.0 | 0.0 | 0.00 | 0.08 | 0.03 | 96 | 1013.2 |
| 20260901132427 | 23 | 261 | 0.0 | 0.0 | 0.00 | 0.08 | 0.03 | 96 | 1013.2 |
| 20260901132327 | 23 | 261 | 0.0 | 0.0 | 0.00 | 0.08 | 0.03 | 96 | 1013.3 |
| 20260901132226 | 23 | 261 | 0.0 | 0.0 | 0.00 | 0.08 | 0.03 | 96 | 1013.2 |
| 20260901132126 | 23 | 261 | 0.0 | 0.0 | 0.00 | 0.08 | 0.03 | 96 | 1013.2 |
| 20260901132021 | 23 | 261 | 0.0 | 0.0 | 0.00 | 0.08 | 0.03 | 96 | 1013.2 |
| 20260901132002 | 23 | 261 | 0.0 | 0.0 | 0.00 | 0.08 | 0.03 | 96 | 1013.2 |
| 20260901131925 | 23 | 261 | 0.0 | 0.0 | 0.00 | 0.08 | 0.03 | 96 | 1013.2 |
| 20260901131823 | 23 | 261 | 0.0 | 0.0 | 0.00 | 0.08 | 0.03 | 96 | 1013.1 |
| 20260901131723 | 23 | 261 | 0.0 | 0.0 | 0.00 | 0.08 | 0.03 | 96 | 1013.2 |
| 20260901131623 | 23 | 261 | 0.0 | 0.0 | 0.00 | 0.08 | 0.03 | 97 | 1013.2 |
| 20260901131521 | 23 | 261 | 0.0 | 0.0 | 0.00 | 0.08 | 0.03 | 97 | 1013.3 |
| 20260901131503 | 23 | 261 | 0.0 | 0.0 | 0.00 | 0.08 | 0.03 | 97 | 1013.3 |
| 20260901131436 | 23 | 261 | 0.0 | 0.0 | 0.00 | 0.08 | 0.03 | 97 | 1013.2 |
| 20260901131430 | 23 | 261 | 0.0 | 0.0 | 0.00 | 0.08 | 0.03 | 97 | 1013.3 |
| 20260901131242 | 23 | 261 | 0.0 | 0.0 | 0.00 | 0.08 | 0.03 | 97 | 1013.2 |
| 20260901131129 | 23 | 261 | 0.0 | 0.0 | 0.00 | 0.08 | 0.03 | 97 | 1013.2 |
| 20260901131021 | 23 | 261 | 0.0 | 0.0 | 0.00 | 0.08 | 0.03 | 97 | 1013.2 |
| 20260901131001 | 23 | 261 | 0.0 | 0.0 | 0.00 | 0.08 | 0.03 | 97 | 1013.2 |
| 20260901130919 | 23 | 261 | 0.0 | 0.0 | 0.00 | 0.08 | 0.03 | 97 | 1013.2 |
| 20260901130817 | 23 | 261 | 0.0 | 0.0 | 0.00 | 0.08 | 0.03 | 97 | 1013.2 |
| 20260901130716 | 23 | 261 | 0.0 | 0.0 | 0.00 | 0.08 | 0.03 | 97 | 1013.1 |
| 20260901130615 | 23 | 261 | 0.0 | 0.0 | 0.00 | 0.08 | 0.03 | 97 | 1013.0 |
| 20260901130521 | 23 | 261 | 0.0 | 0.0 | 0.00 | 0.08 | 0.03 | 97 | 1013.1 |
| 20260901130515 | 23 | 261 | 0.0 | 0.0 | 0.00 | 0.08 | 0.03 | 97 | 1013.0 |
| 20260901130502 | 23 | 261 | 0.0 | 0.0 | 0.00 | 0.08 | 0.03 | 97 | 1013.1 |
| 20260901130429 | 23 | 261 | 0.0 | 0.0 | 0.00 | 0.08 | 0.03 | 97 | 1013.1 |
| 20260901130423 | 23 | 261 | 0.0 | 0.0 | 0.00 | 0.08 | 0.03 | 97 | 1013.1 |
| 20260901130234 | 23 | 261 | 0.0 | 0.0 | 0.00 | 0.08 | 0.03 | 97 | 1013.2 |
| 20260901130230 | 23 | 261 | 0.0 | 0.0 | 0.00 | 0.08 | 0.03 | 97 | 1013.3 |
| 20260901130224 | 23 | 261 | 0.0 | 0.0 | 0.00 | 0.08 | 0.03 | 97 | 1013.2 |
| 20260901130106 | 23 | 261 | 0.0 | 0.0 | 0.00 | 0.08 | 0.03 | 97 | 1013.3 |
| 20260901130021 | 23 | 261 | 0.0 | 0.0 | 0.00 | 0.08 | 0.03 | 97 | 1013.3 |
| 20260901125913 | 23 | 261 | 0.0 | 0.0 | 0.00 | 0.08 | 0.03 | 97 | 1013.3 |
| 20260901125825 | 23 | 261 | 0.0 | 0.0 | 0.00 | 0.08 | 0.03 | 97 | 1013.4 |
| 20260901125820 | 23 | 261 | 0.0 | 0.0 | 0.00 | 0.08 | 0.03 | 97 | 1013.4 |
| 20260901125610 | 23 | 261 | 0.0 | 0.0 | 0.00 | 0.08 | 0.03 | 97 | 1013.4 |
| 20260901125521 | 23 | 261 | 0.0 | 0.0 | 0.00 | 0.08 | 0.03 | 97 | 1013.4 |
| 20260901125509 | 23 | 261 | 0.0 | 0.0 | 0.00 | 0.08 | 0.03 | 97 | 1013.4 |
| 20260901125459 | 23 | 261 | 0.0 | 0.0 | 0.00 | 0.08 | 0.03 | 97 | 1013.4 |
| 20260901125408 | 23 | 261 | 0.0 | 0.0 | 0.00 | 0.08 | 0.03 | 97 | 1013.4 |
| 20260901125309 | 23 | 261 | 0.0 | 0.0 | 0.00 | 0.08 | 0.03 | 97 | 1013.4 |
| 20260901125208 | 23 | 261 | 0.0 | 0.0 | 0.00 | 0.08 | 0.03 | 97 | 1013.5 |
| 20260901125107 | 23 | 261 | 0.0 | 0.0 | 0.00 | 0.08 | 0.03 | 97 | 1013.4 |
| 20260901125021 | 23 | 261 | 0.0 | 0.0 | 0.00 | 0.08 | 0.03 | 97 | 1013.5 |
| 20260901125008 | 23 | 261 | 0.0 | 0.0 | 0.00 | 0.08 | 0.03 | 97 | 1013.5 |
| 20260901125001 | 23 | 261 | 0.0 | 0.0 | 0.00 | 0.08 | 0.03 | 97 | 1013.4 |
| 20260901124957 | 23 | 261 | 0.0 | 0.0 | 0.00 | 0.08 | 0.03 | 97 | 1013.5 |
| 20260901124951 | 23 | 261 | 0.0 | 0.0 | 0.00 | 0.08 | 0.03 | 97 | 1013.4 |
| 20260901124944 | 23 | 261 | 0.0 | 0.0 | 0.00 | 0.08 | 0.03 | 97 | 1013.5 |
| 20260901124605 | 23 | 261 | 0.0 | 0.0 | 0.00 | 0.08 | 0.03 | 97 | 1013.3 |
| 20260901124524 | 23 | 261 | 0.0 | 0.0 | 0.00 | 0.08 | 0.03 | 97 | 1013.3 |
| 20260901124522 | 23 | 261 | 0.0 | 0.0 | 0.00 | 0.08 | 0.03 | 97 | 1013.3 |
| 20260901124519 | 23 | 261 | 0.0 | 0.0 | 0.00 | 0.08 | 0.03 | 97 | 1013.3 |
| 20260901124512 | 23 | 261 | 0.0 | 0.0 | 0.00 | 0.08 | 0.03 | 97 | 1013.3 |
| 20260901124304 | 23 | 261 | 0.0 | 0.0 | 0.00 | 0.08 | 0.03 | 97 | 1013.3 |
| 20260901124209 | 23 | 261 | 0.0 | 0.0 | 0.00 | 0.08 | 0.03 | 97 | 1013.2 |
| 20260901124205 | 23 | 261 | 0.0 | 0.0 | 0.00 | 0.08 | 0.03 | 97 | 1013.3 |
| 20260901124158 | 23 | 261 | 0.0 | 0.0 | 0.00 | 0.08 | 0.03 | 97 | 1013.1 |
| 20260901124151 | 23 | 261 | 0.0 | 0.0 | 0.00 | 0.08 | 0.03 | 97 | 1013.2 |
| 20260901124051 | 23 | 261 | 0.0 | 0.0 | 0.00 | 0.08 | 0.03 | 97 | 1013.2 |
| 20260901124035 | 23 | 261 | 0.0 | 0.0 | 0.00 | 0.08 | 0.03 | 97 | 1013.2 |
| 20260901123924 | 23 | 261 | 0.0 | 0.0 | 0.00 | 0.08 | 0.03 | 98 | 1012.8 |
| 20260901123919 | 23 | 261 | 0.0 | 0.0 | 0.00 | 0.08 | 0.03 | 97 | 1013.1 |
| 20260901123612 | 23 | 261 | 0.0 | 0.0 | 0.00 | 0.08 | 0.03 | 97 | 1012.9 |
| 20260901123603 | 23 | 261 | 0.0 | 0.0 | 0.00 | 0.08 | 0.03 | 98 | 1012.8 |
| 20260901123521 | 23 | 261 | 0.0 | 0.0 | 0.00 | 0.08 | 0.03 | 98 | 1012.8 |